[[{"header":{"parameterUnit":"m.s-1","parameterCategory":1,"la1":31.0,"la2":29.5877,"lo1":-88.7671,"lo2":-86.6584,"dy":0.0162,"dx":0.0185,"nx":115,"ny":88,"refTime":"2024-07-05T12:00:00:Z","depth":0,"parameterNumber":2,"parameterNumberName":"U-component_of_WINDS"},"data":[0.0,0.0,0.0,0.0,0.0,0.0,0.0,0.0,0.0,0.0,0.0,0.0,0.0,0.0,0.0,0.0,0.0,0.0,0.0,0.0,0.0,0.0,0.0,0.0,0.0,0.0,0.0,0.0,0.0,0.0,0.0,0.0,0.0,0.0,0.0,0.0,0.0,0.0,0.0,0.0,0.0,0.0,0.0,0.0,0.0,0.0,0.0,0.0,0.0,0.0,0.0,0.0,0.0,0.0,0.0,0.0,0.0,0.0,0.0,0.0,0.0,0.0,0.0,0.0,0.0,0.0,0.0,0.0,0.0,0.0,0.0,0.0,0.0,0.0,0.0,0.0,0.0,0.0,0.0,0.0,0.0,0.0,0.0,0.0,0.0,0.0,0.0,0.0,0.0,0.0,0.0,0.0,0.0,0.0,0.0,0.0,0.0,0.0,0.0,0.0,0.0,0.0,0.0,0.0,0.0,0.0,0.0,0.0,0.0,0.0,0.0,0.0,0.0,0.0,0.0,0.0,0.0,0.0,0.0,0.0,0.0,0.0,0.0,0.0,0.0,0.0,0.0,0.0,0.0,0.0,0.0,0.0,0.0,0.0,0.0,0.0,0.0,0.0,0.0,0.0,0.0,0.0,0.0,0.0,0.0,0.0,0.0,0.0,0.0,0.0,0.0,0.0,0.0,0.0,0.0,0.0,0.0,0.0,0.0,0.0,0.0,0.0,0.0,0.0,0.0,0.0,0.0,0.0,0.0,0.0,0.0,0.0,0.0,0.0,0.0,0.0,0.0,0.0,0.0,0.0,0.0,0.0,0.0,0.0,0.0,0.0,0.0,0.0,0.0,0.0,0.0,0.0,0.0,0.0,0.0,0.0,0.0,0.0,0.0,0.0,0.0,0.0,0.0,0.0,0.0,0.0,0.0,0.0,0.0,0.0,0.0,0.0,0.0,0.0,0.0,0.0,0.0,0.0,0.0,0.0,0.0,0.0,0.0,0.0,0.0,0.0,0.0,0.0,0.0,0.0,0.0,0.0,0.0,0.0,0.0,0.0,0.0,0.0,0.0,0.0,0.0,0.0,0.0,0.0,0.0,0.0,0.0,0.0,0.0,0.0,0.0,0.0,0.0,0.0,0.0,0.0,0.0,0.0,0.0,0.0,0.0,0.0,0.0,0.0,0.0,0.0,0.0,0.0,0.0,0.0,0.0,0.0,0.0,0.0,0.0,0.0,0.0,0.0,0.0,0.0,0.0,0.0,0.0,0.0,0.0,0.0,0.0,0.0,0.0,0.0,0.0,0.0,0.0,0.0,0.0,0.0,0.0,0.0,0.0,0.0,0.0,0.0,0.0,0.0,0.0,0.0,0.0,0.0,0.0,0.0,0.0,0.0,0.0,0.0,0.0,0.0,0.0,0.0,0.0,0.0,0.0,0.0,0.0,0.0,0.0,0.0,0.0,0.0,0.0,0.0,0.0,0.0,0.0,0.0,0.0,0.0,0.0,0.0,0.0,0.0,0.0,0.0,0.0,0.0,0.0,0.0,0.0,0.0,0.0,0.0,0.0,0.0,0.0,0.0,0.0,0.0,0.0,0.0,0.0,0.0,0.0,0.0,0.0,0.0,0.0,0.0,0.0,0.0,0.0,0.0,0.0,0.0,0.0,0.0,0.0,0.0,0.0,0.0,0.0,0.0,0.0,0.0,0.0,0.0,0.0,0.0,0.0,0.0,0.0,0.0,0.0,0.0,0.0,0.0,0.0,0.0,0.0,0.0,0.0,0.0,0.0,0.0,0.0,0.0,0.0,0.0,0.0,0.0,0.0,0.0,0.0,0.0,0.0,0.0,0.0,0.0,0.0,0.0,0.0,0.0,0.0,0.0,0.0,0.0,0.0,0.0,0.0,0.0,0.0,0.0,0.0,0.0,0.0,0.0,0.0,0.0,0.0,0.0,0.0,0.0,0.0,0.0,0.0,0.0,0.0,0.0,0.0,0.0,0.0,0.0,0.0,0.0,0.0,0.0,0.0,0.0,0.0,0.0,0.0,0.0,0.0,0.0,0.0,0.0,0.0,0.0,0.0,0.0,0.0,0.0,0.0,0.0,0.0,0.0,0.0,0.0,0.0,0.0,0.0,0.0,0.0,0.0,0.0,0.0,0.0,0.0,0.0,0.0,0.0,0.0,0.0,0.0,0.0,0.0,0.0,0.0,0.0,0.0,0.0,0.0,0.0,0.0,0.0,0.0,0.0,0.0,0.0,0.0,0.0,0.0,0.0,0.0,0.0,0.0,0.0,0.0,0.0,0.0,0.0,0.0,0.0,0.0,0.0,0.0,0.0,0.0,0.0,0.0,0.0,0.0,0.0,0.0,0.0,0.0,0.0,0.0,0.0,0.0,0.0,0.0,0.0,0.0,0.0,0.0,0.0,0.0,0.0,0.0,0.0,0.0,0.0,0.0,0.0,0.0,0.0,0.0,0.0,0.0,0.0,0.0,0.0,0.0,0.0,0.0,0.0,0.0,0.0,0.0,0.0,0.0,0.0,0.0,0.0,0.0,0.0,0.0,0.0,0.0,0.0,0.0,0.0,0.0,0.0,0.0,0.0,0.0,0.0,0.0,0.0,0.0,0.0,0.0,0.0,0.0,0.0,0.0,0.0,0.0,0.0,0.0,0.0,0.0,0.0,0.0,0.0,0.0,0.0,0.0,0.0,0.0,0.0,0.0,0.0,0.0,0.0,0.0,0.0,0.0,0.0,0.0,0.0,0.0,0.0,0.0,0.0,0.0,0.0,0.0,0.0,0.0,0.0,0.0,0.0,0.0,0.0,0.0,0.0,0.0,0.0,0.0,0.0,0.0,0.0,0.0,0.0,0.0,0.0,0.0,0.0,0.0,0.0,0.0,0.0,0.0,0.0,0.0,0.0,0.0,0.0,0.0,0.0,0.0,0.0,0.0,0.0,0.0,0.0,0.0,0.0,0.0,0.0,0.0,0.0,0.0,0.0,0.0,0.0,0.0,0.0,0.0,0.0,0.0,0.0,0.0,0.0,0.0,0.0,0.0,0.0,0.0,0.0,0.0,0.0,0.0,0.0,0.0,0.0,0.0,0.0,0.0,0.0,0.0,0.0,0.0,0.0,0.0,0.0,0.0,0.0,0.0,0.0,0.0,0.0,0.0,0.0,0.0,0.0,0.0,0.0,0.0,0.0,0.0,0.0,0.0,0.0,0.0,0.0,0.0,0.0,0.0,0.0,0.0,0.0,0.0,0.0,0.0,0.0,0.0,0.0,0.0,0.0,0.0,0.0,0.0,0.0,0.0,0.0,0.0,0.0,0.0,0.0,0.0,0.0,0.0,0.0,0.0,0.0,0.0,0.0,0.0,0.0,0.0,0.0,0.0,0.0,0.0,0.0,0.0,0.0,0.0,0.0,0.0,0.0,0.0,0.0,0.0,0.0,0.0,0.0,0.0,0.0,0.0,0.0,0.0,0.0,0.0,0.0,0.0,0.0,0.0,0.0,0.0,0.0,0.0,0.0,0.0,0.0,0.0,0.0,0.0,0.0,0.0,0.0,0.0,0.0,0.0,0.0,0.0,0.0,0.0,0.0,0.0,0.0,0.0,0.0,0.0,0.0,0.0,0.0,0.0,0.0,0.0,0.0,0.0,0.0,0.0,0.0,0.0,0.0,0.0,0.0,0.0,0.0,0.0,0.0,0.0,0.0,0.0,0.0,0.0,0.0,0.0,0.0,0.0,0.0,0.0,0.0,0.0,0.0,0.0,0.0,0.0,0.0,0.0,0.0,0.0,0.0,0.0,0.0,0.0,0.0,0.0,0.0,0.0,0.0,0.0,0.0,0.0,0.0,0.0,0.0,0.0,0.0,0.0,0.0,0.0,0.0,0.0,0.0,0.0,0.0,0.0,0.0,0.0,0.0,0.0,0.0,0.0,0.0,0.0,0.0,0.0,0.0,0.0,0.0,0.0,0.0,0.0,0.0,0.0,0.0,0.0,0.0,0.0,0.0,0.0,0.0,0.0,0.0,0.0,0.0,0.0,0.0,0.0,0.0,0.0,0.0,0.0,0.0,0.0,0.0,0.0,0.0,0.0,0.0,0.0,0.0,0.0,0.0,0.0,0.0,0.0,0.0,0.0,0.0,0.0,0.0,0.0,0.0,0.0,0.0,0.0,0.0,0.0,0.0,0.0,0.0,0.0,0.0,0.0,0.0,0.0,0.0,0.0,0.0,0.0,0.0,0.0,0.0,0.0,0.0,0.0,0.0,0.0,0.0,0.0,-1.0312,0.0,0.0,0.0,0.0,0.0,0.0,0.0,0.0,0.0,0.0,0.0,0.0,0.0,0.0,0.0,0.0,0.0,0.0,0.0,0.0,0.0,0.0,0.0,0.0,0.0,0.0,0.0,0.0,0.0,0.0,0.0,0.0,0.0,0.0,0.0,0.0,0.0,0.0,0.0,0.0,0.0,0.0,0.0,0.0,0.0,0.0,0.0,0.0,0.0,0.0,0.0,0.0,0.0,0.0,0.0,0.0,0.0,0.0,0.0,0.0,0.0,0.0,0.0,0.0,0.0,0.0,0.0,0.0,0.0,0.0,0.0,0.0,0.0,0.0,0.0,0.0,0.0,0.0,0.0,0.0,0.0,0.0,0.0,0.0,0.0,0.0,0.0,0.0,0.0,0.0,0.0,0.0,0.0,0.0,0.0,0.0,0.0,0.0,0.0,0.0,0.0,0.0,0.0,0.0,0.0,0.0,0.0,0.0,0.0,0.0,-1.0312,-1.0312,-1.0312,-1.0312,-1.0312,0.0,0.0,0.0,0.0,0.0,0.0,0.0,0.0,0.0,0.0,0.0,0.0,0.0,0.0,0.0,0.0,0.0,0.0,0.0,0.0,0.0,0.0,0.0,0.0,0.0,0.0,0.0,0.0,0.0,0.0,0.0,0.0,0.0,0.0,0.0,0.0,0.0,0.0,0.0,0.0,0.0,0.0,0.0,0.0,0.0,0.0,0.0,0.0,0.0,0.0,0.0,0.0,0.0,0.0,0.0,0.0,0.0,0.0,0.0,0.0,0.0,0.0,0.0,0.0,0.0,0.0,0.0,0.0,0.0,0.0,0.0,0.0,0.0,0.0,0.0,0.0,0.0,0.0,0.0,0.0,0.0,0.0,0.0,0.0,0.0,0.0,0.0,0.0,0.0,0.0,0.0,0.0,0.0,0.0,0.0,0.0,0.0,0.0,0.0,0.0,0.0,0.0,0.0,0.0,0.0,0.0,0.0,0.0,0.0,0.0,0.0,0.0,-1.1152,-1.1172,-1.1172,0.0,0.0,0.0,0.0,0.0,0.0,0.0,0.0,0.0,0.0,0.0,0.0,0.0,0.0,0.0,0.0,0.0,0.0,0.0,0.0,0.0,0.0,0.0,0.0,0.0,0.0,0.0,0.0,0.0,0.0,0.0,0.0,0.0,0.0,0.0,0.0,0.0,0.0,0.0,0.0,0.0,0.0,0.0,0.0,0.0,0.0,0.0,0.0,0.0,0.0,0.0,0.0,0.0,0.0,0.0,0.0,0.0,0.0,0.0,0.0,0.0,0.0,0.0,0.0,0.0,0.0,0.0,0.0,0.0,0.0,0.0,0.0,0.0,0.0,0.0,0.0,0.0,0.0,0.0,0.0,0.0,0.0,0.0,0.0,0.0,0.0,0.0,0.0,0.0,0.0,0.0,0.0,0.0,0.0,0.0,0.0,0.0,0.0,0.0,0.0,0.0,0.0,0.0,0.0,0.0,0.0,0.0,0.0,0.0,0.0,-1.1314,-1.3599,-1.3687,0.0,-1.3769,0.0,0.0,0.0,0.0,0.0,0.0,0.0,0.0,0.0,0.0,0.0,0.0,0.0,0.0,0.0,0.0,0.0,0.0,0.0,0.0,0.0,0.0,0.0,0.0,0.0,0.0,0.0,0.0,0.0,0.0,0.0,0.0,0.0,0.0,0.0,0.0,0.0,0.0,0.0,0.0,0.0,0.0,0.0,0.0,0.0,0.0,0.0,0.0,0.0,0.0,0.0,0.0,0.0,0.0,0.0,0.0,0.0,0.0,0.0,0.0,0.0,0.0,0.0,0.0,0.0,0.0,0.0,0.0,0.0,0.0,0.0,0.0,0.0,0.0,0.0,0.0,0.0,0.0,0.0,0.0,0.0,0.0,0.0,0.0,0.0,0.0,0.0,0.0,0.0,0.0,0.0,0.0,0.0,0.0,0.0,0.0,0.0,0.0,0.0,0.0,0.0,0.0,0.0,0.0,0.0,0.0,0.0,0.0,0.0,0.0,0.0,-1.3974,-1.4072,-1.4094,0.0,0.0,0.0,0.0,0.0,0.0,0.0,0.0,0.0,0.0,0.0,0.0,0.0,0.0,0.0,0.0,0.0,0.0,0.0,0.0,0.0,0.0,0.0,0.0,0.0,0.0,0.0,0.0,0.0,0.0,0.0,0.0,0.0,0.0,0.0,0.0,0.0,0.0,0.0,0.0,0.0,0.0,0.0,0.0,0.0,0.0,0.0,0.0,0.0,0.0,0.0,0.0,0.0,0.0,0.0,0.0,0.0,0.0,0.0,0.0,0.0,0.0,0.0,0.0,0.0,0.0,0.0,0.0,0.0,0.0,0.0,0.0,0.0,0.0,0.0,0.0,0.0,0.0,0.0,0.0,0.0,0.0,0.0,0.0,0.0,0.0,0.0,0.0,0.0,0.0,0.0,0.0,0.0,0.0,0.0,0.0,0.0,0.0,0.0,0.0,0.0,0.0,0.0,0.0,0.0,0.0,0.0,0.0,0.0,0.0,-1.342,0.0,-1.5048,-1.5135,-1.485,-1.4121,0.0,0.0,0.0,0.0,0.0,0.0,0.0,0.0,0.0,0.0,0.0,0.0,0.0,0.0,0.0,0.0,0.0,0.0,0.0,0.0,0.0,0.0,0.0,0.0,0.0,0.0,0.0,0.0,0.0,0.0,0.0,0.0,0.0,0.0,0.0,0.0,0.0,0.0,0.0,0.0,0.0,0.0,0.0,0.0,0.0,0.0,0.0,0.0,0.0,0.0,0.0,0.0,0.0,0.0,0.0,0.0,0.0,0.0,0.0,0.0,0.0,0.0,0.0,0.0,0.0,0.0,0.0,0.0,0.0,0.0,0.0,0.0,0.0,0.0,0.0,0.0,0.0,0.0,0.0,0.0,0.0,0.0,0.0,0.0,0.0,0.0,0.0,0.0,0.0,0.0,0.0,0.0,0.0,0.0,0.0,0.0,0.0,0.0,0.0,0.0,0.0,0.0,0.0,0.0,0.0,0.0,0.0,0.0,0.0,-1.5154,-1.5198,-1.7637,-1.778,-1.6658,0.0,0.0,0.0,0.0,0.0,0.0,0.0,0.0,0.0,0.0,0.0,0.0,0.0,0.0,0.0,0.0,0.0,0.0,0.0,0.0,0.0,0.0,0.0,0.0,0.0,0.0,0.0,0.0,0.0,0.0,0.0,0.0,0.0,0.0,0.0,0.0,0.0,0.0,0.0,0.0,0.0,0.0,0.0,0.0,0.0,0.0,0.0,0.0,0.0,0.0,0.0,0.0,0.0,0.0,0.0,0.0,0.0,0.0,0.0,0.0,0.0,0.0,0.0,0.0,0.0,0.0,0.0,0.0,0.0,0.0,0.0,0.0,0.0,0.0,0.0,0.0,0.0,0.0,0.0,0.0,0.0,0.0,0.0,0.0,0.0,0.0,0.0,0.0,0.0,0.0,0.0,0.0,0.0,0.0,0.0,0.0,0.0,0.0,0.0,0.0,0.0,0.0,0.0,0.0,0.0,0.0,0.0,0.0,0.0,-1.2776,-1.3545,-1.5993,-1.9946,-1.7165,-1.5787,0.0,0.0,0.0,0.0,0.0,0.0,0.0,0.0,0.0,0.0,0.0,0.0,0.0,0.0,0.0,0.0,0.0,0.0,0.0,0.0,0.0,0.0,0.0,0.0,0.0,0.0,0.0,0.0,0.0,0.0,0.0,0.0,0.0,0.0,0.0,0.0,0.0,0.0,0.0,0.0,0.0,0.0,0.0,0.0,0.0,0.0,0.0,0.0,0.0,0.0,0.0,0.0,0.0,0.0,0.0,0.0,0.0,0.0,0.0,0.0,0.0,0.0,0.0,0.0,0.0,0.0,0.0,0.0,0.0,0.0,0.0,0.0,0.0,0.0,0.0,0.0,0.0,0.0,0.0,0.0,0.0,0.0,0.0,0.0,0.0,0.0,0.0,0.0,0.0,0.0,0.0,0.0,0.0,0.0,0.0,0.0,0.0,0.0,0.0,0.0,0.0,0.0,0.0,0.0,0.0,0.0,0.0,0.0,0.0,-1.2558,0.0,-1.7664,0.0,-1.704,-1.5303,0.0,0.0,0.0,0.0,0.0,0.0,0.0,0.0,0.0,0.0,0.0,0.0,0.0,0.0,0.0,0.0,0.0,0.0,0.0,0.0,0.0,0.0,0.0,0.0,0.0,0.0,0.0,0.0,0.0,0.0,0.0,0.0,0.0,0.0,0.0,0.0,0.0,0.0,0.0,0.0,0.0,0.0,0.0,0.0,0.0,0.0,0.0,0.0,0.0,0.0,0.0,0.0,0.0,0.0,0.0,0.0,0.0,0.0,0.0,0.0,0.0,0.0,0.0,0.0,0.0,0.0,0.0,0.0,0.0,0.0,0.0,0.0,0.0,0.0,0.0,0.0,0.0,0.0,0.0,0.0,0.0,0.0,0.0,0.0,0.0,0.0,0.0,0.0,0.0,0.0,0.0,0.0,0.0,0.0,0.0,0.0,0.0,0.0,0.0,0.0,0.0,0.0,0.0,0.0,0.0,0.0,0.0,0.0,-1.2635,-1.7391,-1.9931,-2.0084,-1.7997,-1.7745,-1.5394,0.0,0.0,0.0,0.0,0.0,0.0,0.0,0.0,0.0,0.0,0.0,0.0,0.0,0.0,0.0,0.0,0.0,0.0,0.0,0.0,0.0,0.0,0.0,0.0,0.0,0.0,0.0,0.0,0.0,0.0,0.0,0.0,0.0,0.0,0.0,0.0,0.0,0.0,0.0,0.0,0.0,0.0,0.0,0.0,0.0,0.0,0.0,0.0,0.0,0.0,0.0,0.0,0.0,0.0,0.0,0.0,0.0,0.0,0.0,0.0,0.0,0.0,0.0,0.0,0.0,0.0,0.0,0.0,0.0,0.0,0.0,0.0,0.0,0.0,0.0,0.0,0.0,0.0,0.0,0.0,0.0,0.0,0.0,0.0,0.0,0.0,0.0,0.0,0.0,0.0,0.0,0.0,0.0,0.0,0.0,0.0,0.0,0.0,0.0,0.0,0.0,0.0,0.0,0.0,0.0,0.0,0.0,0.0,0.0,-1.6003,-1.7872,-1.9338,-2.02,-1.7507,-1.5805,0.0,0.0,0.0,0.0,0.0,0.0,0.0,0.0,0.0,0.0,0.0,0.0,0.0,0.0,0.0,0.0,0.0,0.0,0.0,0.0,0.0,0.0,0.0,0.0,0.0,0.0,0.0,0.0,0.0,0.0,0.0,0.0,0.0,0.0,0.0,0.0,0.0,0.0,0.0,0.0,0.0,0.0,0.0,0.0,0.0,0.0,0.0,0.0,0.0,0.0,0.0,0.0,0.0,0.0,0.0,0.0,0.0,0.0,0.0,0.0,0.0,0.0,0.0,0.0,0.0,0.0,0.0,0.0,0.0,0.0,0.0,0.0,0.0,0.0,0.0,0.0,0.0,0.0,0.0,0.0,0.0,0.0,0.0,0.0,0.0,0.0,0.0,0.0,0.0,0.0,0.0,0.0,0.0,0.0,0.0,0.0,0.0,0.0,0.0,0.0,0.0,0.0,0.0,0.0,0.0,0.0,0.0,0.0,0.0,-1.8581,-1.9831,-2.0831,-2.1481,-1.8311,-1.6503,-1.6231,0.0,0.0,0.0,0.0,0.0,0.0,0.0,0.0,0.0,0.0,0.0,0.0,0.0,0.0,0.0,0.0,0.0,0.0,0.0,0.0,0.0,0.0,0.0,0.0,0.0,0.0,0.0,0.0,0.0,0.0,0.0,0.0,0.0,0.0,0.0,0.0,0.0,0.0,0.0,0.0,0.0,0.0,0.0,0.0,0.0,0.0,0.0,0.0,0.0,0.0,0.0,0.0,0.0,0.0,0.0,0.0,0.0,0.0,0.0,0.0,0.0,0.0,0.0,0.0,0.0,0.0,0.0,0.0,0.0,0.0,0.0,0.0,0.0,0.0,0.0,0.0,0.0,0.0,0.0,0.0,0.0,0.0,0.0,0.0,0.0,0.0,0.0,0.0,0.0,0.0,0.0,0.0,0.0,0.0,0.0,0.0,0.0,0.0,0.0,0.0,0.0,0.0,0.0,0.0,0.0,0.0,0.0,0.0,-2.4052,-2.4928,-2.4192,-2.1885,-2.0065,-1.7584,0.0,0.0,0.0,0.0,0.0,0.0,0.0,0.0,0.0,0.0,0.0,0.0,0.0,0.0,0.0,0.0,0.0,0.0,0.0,0.0,0.0,0.0,0.0,0.0,0.0,0.0,0.0,0.0,0.0,0.0,0.0,0.0,0.0,0.0,0.0,0.0,0.0,0.0,0.0,0.0,0.0,0.0,0.0,0.0,0.0,0.0,0.0,0.0,0.0,0.0,0.0,0.0,0.0,0.0,0.0,0.0,0.0,0.0,0.0,0.0,0.0,0.0,0.0,0.0,0.0,0.0,0.0,0.0,0.0,0.0,0.0,0.0,0.0,0.0,0.0,0.0,0.0,0.0,0.0,0.0,0.0,0.0,0.0,0.0,0.0,0.0,0.0,0.0,0.0,0.0,0.0,0.0,0.0,0.0,0.0,0.0,0.0,0.0,0.0,0.0,0.0,0.0,0.0,0.0,0.0,0.0,0.0,0.0,0.0,-2.4014,-2.5524,-2.5942,-2.5236,-2.2389,-1.9854,0.0,0.0,0.0,0.0,0.0,0.0,0.0,0.0,0.0,0.0,0.0,0.0,0.0,0.0,0.0,0.0,0.0,0.0,0.0,0.0,0.0,0.0,0.0,0.0,0.0,0.0,0.0,0.0,0.0,0.0,0.0,0.0,0.0,0.0,0.0,0.0,0.0,0.0,0.0,0.0,0.0,0.0,0.0,0.0,0.0,0.0,0.0,0.0,0.0,0.0,0.0,0.0,0.0,0.0,0.0,0.0,0.0,0.0,0.0,0.0,0.0,0.0,0.0,0.0,0.0,0.0,0.0,0.0,0.0,0.0,0.0,0.0,0.0,0.0,0.0,0.0,0.0,0.0,0.0,0.0,0.0,0.0,0.0,0.0,0.0,0.0,0.0,0.0,0.0,0.0,0.0,0.0,0.0,0.0,0.0,0.0,0.0,0.0,0.0,0.0,0.0,0.0,0.0,0.0,0.0,0.0,0.0,0.0,-2.2774,-2.563,-2.6645,-2.714,-2.7159,-2.4197,-2.1446,0.0,0.0,0.0,0.0,0.0,0.0,0.0,0.0,0.0,0.0,0.0,0.0,0.0,0.0,0.0,0.0,0.0,0.0,0.0,0.0,0.0,0.0,0.0,0.0,0.0,0.0,0.0,0.0,0.0,0.0,0.0,0.0,0.0,0.0,0.0,0.0,0.0,0.0,0.0,0.0,0.0,0.0,0.0,0.0,0.0,0.0,0.0,0.0,0.0,0.0,0.0,0.0,0.0,0.0,0.0,0.0,0.0,0.0,0.0,0.0,0.0,0.0,0.0,0.0,0.0,0.0,0.0,0.0,0.0,0.0,0.0,0.0,0.0,0.0,0.0,0.0,0.0,0.0,0.0,0.0,0.0,0.0,0.0,0.0,0.0,0.0,0.0,0.0,0.0,0.0,0.0,0.0,0.0,0.0,0.0,0.0,0.0,0.0,0.0,0.0,0.0,0.0,0.0,0.0,0.0,0.0,0.0,0.0,-2.449,-2.7664,-2.7948,-2.7972,-2.7832,-2.551,-2.2658,0.0,0.0,0.0,0.0,0.0,0.0,0.0,0.0,0.0,0.0,0.0,0.0,0.0,0.0,0.0,0.0,0.0,0.0,0.0,0.0,0.0,0.0,0.0,0.0,0.0,0.0,0.0,0.0,0.0,0.0,0.0,0.0,0.0,0.0,0.0,0.0,0.0,0.0,0.0,0.0,0.0,0.0,0.0,0.0,0.0,0.0,0.0,0.0,0.0,0.0,0.0,0.0,0.0,0.0,0.0,0.0,0.0,0.0,0.0,0.0,0.0,0.0,0.0,0.0,0.0,0.0,0.0,0.0,0.0,0.0,0.0,0.0,0.0,0.0,0.0,0.0,0.0,0.0,0.0,0.0,0.0,0.0,0.0,0.0,0.0,0.0,0.0,0.0,0.0,0.0,0.0,0.0,0.0,0.0,0.0,0.0,0.0,0.0,0.0,0.0,0.0,0.0,0.0,0.0,0.0,0.0,0.0,0.0,-2.4798,-2.6813,-2.8165,-2.8549,-2.7915,-2.6043,-2.3769,0.0,0.0,0.0,0.0,0.0,0.0,0.0,0.0,0.0,0.0,0.0,0.0,0.0,0.0,0.0,0.0,0.0,0.0,0.0,0.0,0.0,0.0,0.0,0.0,0.0,0.0,0.0,0.0,0.0,0.0,0.0,0.0,0.0,0.0,0.0,0.0,0.0,0.0,0.0,0.0,0.0,0.0,0.0,0.0,0.0,0.0,0.0,0.0,-1.2854,0.0,0.0,0.0,0.0,0.0,0.0,0.0,0.0,0.0,0.0,0.0,0.0,0.0,0.0,0.0,0.0,0.0,0.0,0.0,0.0,0.0,0.0,0.0,0.0,0.0,0.0,0.0,0.0,0.0,0.0,0.0,0.0,0.0,0.0,0.0,0.0,0.0,0.0,0.0,0.0,0.0,0.0,0.0,0.0,0.0,0.0,0.0,0.0,0.0,0.0,0.0,0.0,0.0,0.0,0.0,0.0,0.0,0.0,0.0,-2.5914,-2.7198,-2.8852,-2.9093,-2.7825,-2.6954,-2.475,0.0,0.0,0.0,0.0,0.0,0.0,0.0,0.0,0.0,0.0,0.0,0.0,0.0,0.0,0.0,0.0,0.0,0.0,0.0,0.0,0.0,0.0,0.0,0.0,0.0,0.0,0.0,0.0,0.0,0.0,0.0,0.0,0.0,0.0,0.0,0.0,0.0,0.0,0.0,0.0,0.0,0.0,0.0,0.0,0.0,0.0,0.0,0.0,0.0,0.0,0.0,0.0,0.0,0.0,0.0,0.0,0.0,0.0,0.0,0.0,0.0,0.0,0.0,0.0,0.0,0.0,0.0,0.0,0.0,0.0,0.0,0.0,0.0,0.0,0.0,0.0,0.0,0.0,0.0,0.0,0.0,0.0,0.0,0.0,0.0,0.0,0.0,0.0,0.0,0.0,0.0,0.0,0.0,0.0,0.0,0.0,0.0,0.0,0.0,0.0,0.0,0.0,0.0,0.0,0.0,0.0,0.0,-2.4105,-2.689,-2.7915,-2.9538,-2.9524,-2.7714,-2.7792,-2.5485,-2.05,0.0,0.0,0.0,0.0,0.0,0.0,0.0,0.0,0.0,0.0,0.0,0.0,0.0,0.0,0.0,0.0,0.0,0.0,0.0,0.0,0.0,0.0,0.0,0.0,0.0,0.0,0.0,0.0,0.0,0.0,0.0,0.0,0.0,0.0,0.0,0.0,0.0,0.0,-1.048,-1.2567,0.0,0.0,0.0,0.0,0.0,0.0,0.0,0.0,-1.5257,0.0,0.0,0.0,0.0,0.0,0.0,0.0,0.0,0.0,0.0,0.0,0.0,0.0,0.0,0.0,0.0,0.0,0.0,0.0,0.0,0.0,0.0,0.0,0.0,0.0,0.0,0.0,0.0,0.0,0.0,0.0,0.0,0.0,0.0,0.0,0.0,0.0,0.0,0.0,0.0,0.0,0.0,0.0,0.0,0.0,0.0,0.0,0.0,0.0,0.0,0.0,0.0,0.0,0.0,0.0,0.0,-2.2124,-2.4385,-2.6288,-2.7876,-2.9538,-2.959,-2.7934,-2.7726,-2.5346,-2.0569,0.0,0.0,0.0,0.0,0.0,0.0,0.0,0.0,0.0,0.0,0.0,0.0,0.0,0.0,0.0,0.0,0.0,0.0,0.0,0.0,0.0,0.0,0.0,0.0,0.0,0.0,0.0,0.0,0.0,0.0,0.0,0.0,0.0,0.0,0.0,0.0,0.0,0.0,0.0,-1.5274,-1.6678,0.0,0.0,0.0,0.0,0.0,0.0,0.0,0.0,-1.5281,0.0,0.0,0.0,0.0,0.0,0.0,0.0,0.0,0.0,0.0,0.0,0.0,0.0,0.0,0.0,0.0,0.0,0.0,0.0,0.0,0.0,0.0,0.0,0.0,0.0,0.0,0.0,0.0,0.0,0.0,0.0,0.0,0.0,0.0,0.0,0.0,0.0,0.0,0.0,0.0,0.0,0.0,0.0,0.0,0.0,0.0,0.0,0.0,0.0,0.0,0.0,0.0,0.0,0.0,0.0,-2.1485,-2.4889,-2.7044,-2.7915,-2.9538,-2.9548,-2.7788,-2.6882,-2.4418,0.0,0.0,0.0,0.0,0.0,0.0,0.0,0.0,0.0,0.0,0.0,0.0,0.0,0.0,0.0,0.0,0.0,0.0,0.0,0.0,0.0,0.0,0.0,0.0,0.0,0.0,0.0,0.0,0.0,0.0,0.0,0.0,0.0,0.0,0.0,0.0,0.0,0.0,0.0,0.0,-1.6661,-1.7665,-1.7354,0.0,0.0,0.0,0.0,0.0,0.0,-1.7168,-1.6566,0.0,0.0,0.0,0.0,0.0,0.0,0.0,0.0,0.0,0.0,0.0,0.0,0.0,0.0,0.0,0.0,0.0,0.0,0.0,0.0,0.0,0.0,0.0,0.0,0.0,0.0,0.0,0.0,0.0,0.0,0.0,0.0,0.0,0.0,0.0,0.0,0.0,0.0,0.0,0.0,0.0,0.0,0.0,0.0,0.0,0.0,0.0,0.0,0.0,0.0,0.0,0.0,0.0,0.0,0.0,-2.0365,-2.4812,-2.739,-2.7928,-2.9169,-2.9123,-2.7644,-2.6172,-2.3689,0.0,0.0,0.0,0.0,0.0,0.0,0.0,0.0,0.0,0.0,0.0,0.0,0.0,0.0,0.0,0.0,0.0,0.0,0.0,0.0,0.0,0.0,0.0,0.0,0.0,0.0,0.0,0.0,0.0,0.0,0.0,0.0,0.0,0.0,0.0,0.0,0.0,0.0,0.0,0.0,0.0,-1.8758,-1.8877,-1.851,0.0,0.0,0.0,0.0,-1.9227,-1.8623,0.0,0.0,0.0,0.0,0.0,0.0,0.0,0.0,0.0,0.0,0.0,0.0,0.0,0.0,0.0,0.0,0.0,0.0,0.0,0.0,0.0,0.0,0.0,0.0,0.0,0.0,0.0,0.0,0.0,0.0,0.0,0.0,0.0,0.0,0.0,0.0,0.0,0.0,0.0,0.0,0.0,0.0,0.0,0.0,0.0,0.0,0.0,0.0,0.0,0.0,0.0,0.0,0.0,0.0,0.0,0.0,-2.025,-2.3086,-2.5606,-2.7775,-2.7904,-2.7829,-2.7593,-2.6333,-2.3884,0.0,0.0,0.0,0.0,0.0,0.0,0.0,0.0,0.0,0.0,0.0,0.0,0.0,0.0,0.0,0.0,0.0,0.0,0.0,0.0,0.0,0.0,0.0,0.0,0.0,0.0,0.0,0.0,0.0,0.0,0.0,0.0,0.0,0.0,0.0,0.0,0.0,0.0,0.0,0.0,0.0,-2.1092,-1.9164,-1.9389,-1.9731,0.0,0.0,-1.9278,-2.0699,-1.9735,0.0,0.0,0.0,0.0,0.0,0.0,0.0,0.0,0.0,0.0,0.0,0.0,0.0,0.0,0.0,0.0,0.0,0.0,0.0,0.0,0.0,0.0,0.0,0.0,0.0,0.0,0.0,0.0,0.0,0.0,0.0,0.0,0.0,0.0,0.0,0.0,0.0,0.0,0.0,0.0,0.0,0.0,0.0,0.0,0.0,0.0,0.0,0.0,0.0,0.0,0.0,0.0,0.0,0.0,0.0,-1.783,-2.0308,-2.364,-2.5888,-2.696,-2.7291,-2.7201,-2.67,-2.5258,-2.3023,0.0,0.0,0.0,0.0,0.0,0.0,0.0,0.0,0.0,0.0,0.0,0.0,0.0,0.0,0.0,0.0,0.0,0.0,0.0,0.0,0.0,0.0,0.0,0.0,0.0,0.0,0.0,0.0,0.0,0.0,0.0,0.0,0.0,0.0,0.0,0.0,0.0,0.0,0.0,0.0,0.0,0.0,-2.0839,-2.0741,0.0,0.0,0.0,-2.1045,-2.1718,0.0,0.0,0.0,0.0,0.0,0.0,0.0,0.0,0.0,0.0,0.0,0.0,0.0,0.0,0.0,0.0,0.0,0.0,0.0,0.0,0.0,0.0,0.0,0.0,0.0,0.0,0.0,0.0,0.0,0.0,0.0,0.0,0.0,0.0,0.0,0.0,0.0,0.0,0.0,0.0,0.0,0.0,0.0,0.0,0.0,0.0,0.0,0.0,0.0,0.0,0.0,0.0,0.0,0.0,0.0,0.0,0.0,-2.0323,-2.4036,-2.6092,-2.6295,-2.6546,-2.642,-2.5905,-2.4467,0.0,0.0,0.0,0.0,0.0,0.0,0.0,0.0,0.0,0.0,0.0,0.0,0.0,0.0,0.0,0.0,0.0,0.0,0.0,0.0,0.0,0.0,0.0,0.0,0.0,0.0,0.0,-0.8919,0.0,0.0,0.0,0.0,0.0,0.0,0.0,0.0,0.0,0.0,0.0,0.0,0.0,0.0,-2.0775,-2.211,-2.182,-2.18,0.0,0.0,-2.2364,-2.2547,-2.2429,-2.1772,0.0,0.0,0.0,0.0,0.0,0.0,0.0,0.0,0.0,0.0,0.0,0.0,0.0,0.0,0.0,0.0,0.0,0.0,0.0,0.0,0.0,0.0,0.0,0.0,0.0,0.0,0.0,0.0,0.0,0.0,0.0,0.0,0.0,0.0,0.0,0.0,0.0,0.0,0.0,0.0,0.0,0.0,0.0,0.0,0.0,0.0,0.0,0.0,0.0,0.0,0.0,0.0,0.0,0.0,0.0,-2.0319,-2.3463,-2.5481,-2.6238,-2.5432,-2.5193,-2.5672,-2.4718,-2.2707,0.0,0.0,0.0,0.0,0.0,0.0,0.0,0.0,0.0,0.0,0.0,0.0,0.0,0.0,0.0,0.0,0.0,0.0,0.0,0.0,0.0,0.0,0.0,0.0,0.0,0.0,0.0,0.0,0.0,0.0,0.0,0.0,0.0,0.0,0.0,0.0,0.0,0.0,0.0,0.0,0.0,-2.1397,-2.2178,-2.2262,-2.2733,0.0,0.0,-2.2533,-2.3224,-2.275,-2.1789,-2.0255,0.0,0.0,0.0,0.0,0.0,0.0,0.0,0.0,0.0,0.0,0.0,0.0,0.0,0.0,0.0,0.0,0.0,0.0,0.0,0.0,0.0,0.0,0.0,0.0,0.0,0.0,0.0,0.0,0.0,0.0,0.0,0.0,0.0,0.0,0.0,0.0,0.0,0.0,0.0,0.0,0.0,0.0,0.0,0.0,0.0,0.0,0.0,0.0,0.0,0.0,0.0,0.0,0.0,-1.8361,-2.0131,-2.3258,-2.4986,-2.5163,-2.4694,-2.455,-2.4755,-2.4403,-2.2914,0.0,0.0,0.0,0.0,0.0,0.0,0.0,0.0,0.0,0.0,0.0,0.0,0.0,0.0,0.0,0.0,0.0,0.0,0.0,0.0,0.0,0.0,0.0,0.0,0.0,0.0,0.0,0.0,-0.8919,-0.8919,-0.8919,0.0,0.0,0.0,0.0,0.0,0.0,0.0,0.0,0.0,0.0,-2.2141,-2.2868,-2.3359,0.0,0.0,-2.4408,-2.412,-2.3477,-2.335,-2.2615,-2.0639,-1.9871,0.0,0.0,0.0,0.0,0.0,0.0,0.0,0.0,0.0,0.0,0.0,0.0,0.0,0.0,0.0,0.0,0.0,0.0,0.0,0.0,0.0,0.0,0.0,0.0,0.0,0.0,0.0,0.0,0.0,0.0,0.0,0.0,0.0,0.0,0.0,0.0,0.0,0.0,0.0,0.0,0.0,0.0,0.0,0.0,0.0,0.0,0.0,0.0,0.0,0.0,0.0,0.0,-1.8403,-2.0275,-2.321,-2.4639,-2.4503,-2.4357,-2.4275,-2.4199,-2.4199,-2.3162,0.0,0.0,0.0,0.0,0.0,0.0,0.0,0.0,0.0,0.0,0.0,0.0,0.0,0.0,0.0,0.0,0.0,0.0,0.0,0.0,0.0,0.0,0.0,0.0,0.0,0.0,0.0,0.0,-0.8919,-0.8919,-0.8919,0.0,0.0,0.0,0.0,0.0,0.0,0.0,0.0,0.0,0.0,-2.2649,-2.3596,-2.4186,-2.4643,-2.51,-2.5017,-2.4661,-2.3833,-2.3738,-2.3067,-2.1043,0.0,0.0,0.0,0.0,0.0,0.0,0.0,0.0,0.0,0.0,0.0,0.0,0.0,0.0,0.0,0.0,0.0,0.0,0.0,0.0,0.0,0.0,0.0,0.0,0.0,0.0,0.0,0.0,0.0,0.0,-1.0284,0.0,0.0,0.0,0.0,0.0,0.0,0.0,0.0,0.0,0.0,0.0,0.0,0.0,0.0,0.0,0.0,0.0,0.0,0.0,0.0,0.0,0.0,-1.847,-2.0941,-2.3319,-2.4503,-2.4495,-2.4495,-2.4393,-2.4209,-2.4199,-2.3419,-2.1757,0.0,0.0,0.0,0.0,0.0,0.0,0.0,0.0,0.0,0.0,0.0,0.0,0.0,0.0,0.0,0.0,0.0,0.0,0.0,0.0,0.0,0.0,0.0,0.0,0.0,0.0,-0.8919,-0.8919,-0.8919,0.0,0.0,0.0,0.0,0.0,0.0,0.0,0.0,0.0,0.0,-2.1333,-2.2852,-2.4288,-2.4491,-2.5049,-2.6404,-2.4847,-2.3731,-2.4389,-2.3883,-2.2888,0.0,0.0,0.0,0.0,0.0,0.0,0.0,0.0,0.0,0.0,0.0,0.0,0.0,0.0,0.0,0.0,0.0,0.0,0.0,0.0,0.0,0.0,0.0,0.0,0.0,0.0,0.0,-1.6107,-1.4835,0.0,0.0,0.0,0.0,0.0,0.0,0.0,0.0,0.0,0.0,0.0,-2.3212,-2.4077,0.0,0.0,0.0,0.0,0.0,0.0,0.0,0.0,0.0,0.0,0.0,0.0,-1.8983,-2.101,-2.3325,-2.4426,-2.4303,-2.4303,-2.4284,-2.4199,-2.4199,-2.318,-2.0988,0.0,0.0,0.0,0.0,0.0,0.0,0.0,0.0,0.0,0.0,0.0,0.0,0.0,0.0,0.0,0.0,0.0,0.0,0.0,0.0,0.0,0.0,0.0,0.0,0.0,-0.8919,0.0,0.0,0.0,0.0,0.0,0.0,0.0,0.0,0.0,0.0,0.0,-2.0416,-2.1383,-2.3243,-2.4678,-2.5169,-2.5642,-2.6149,0.0,0.0,0.0,0.0,0.0,0.0,0.0,0.0,0.0,0.0,0.0,0.0,0.0,0.0,-1.8899,-1.6278,-1.5604,-1.5544,-1.5754,0.0,0.0,0.0,0.0,0.0,0.0,0.0,0.0,0.0,0.0,0.0,0.0,0.0,0.0,-1.9283,0.0,-1.793,0.0,0.0,0.0,0.0,0.0,0.0,0.0,0.0,-2.4548,-2.5972,-2.6231,-2.6697,-2.6343,0.0,-2.502,-2.312,0.0,0.0,0.0,0.0,0.0,0.0,0.0,0.0,-1.993,-2.2073,-2.3898,-2.4746,-2.4631,-2.4622,-2.4493,-2.4208,-2.4199,-2.3309,-2.1428,-2.0097,-1.85,0.0,0.0,0.0,0.0,0.0,0.0,0.0,0.0,0.0,0.0,0.0,0.0,0.0,0.0,0.0,0.0,0.0,0.0,0.0,0.0,0.0,0.0,0.0,-0.9659,0.0,0.0,0.0,0.0,0.0,0.0,0.0,0.0,0.0,-1.8927,-2.0483,-2.204,-2.3291,-2.4697,-2.5677,-2.5964,0.0,0.0,0.0,0.0,0.0,0.0,0.0,-2.496,-2.4176,-2.3647,-2.3069,-2.2396,-2.2293,-2.2158,-2.1764,0.0,0.0,-1.833,-1.7656,-1.7565,-1.7806,-1.7984,-1.816,-1.8384,-1.8775,-1.9089,0.0,0.0,0.0,0.0,0.0,0.0,0.0,0.0,-2.236,-2.1937,0.0,-2.0942,0.0,0.0,0.0,0.0,0.0,0.0,0.0,0.0,-2.7626,-2.878,-2.8096,-2.7867,-2.7661,-2.7674,-2.8406,-2.7761,-2.574,-2.1257,0.0,0.0,0.0,0.0,0.0,0.0,-2.125,-2.4081,-2.5008,-2.5421,-2.5374,-2.5384,-2.5007,-2.4236,-2.4199,-2.3823,-2.3061,-2.2226,-2.0703,-1.8309,-1.6646,0.0,0.0,0.0,0.0,0.0,0.0,0.0,0.0,0.0,0.0,0.0,0.0,0.0,0.0,0.0,0.0,0.0,0.0,0.0,0.0,-1.069,0.0,0.0,0.0,0.0,0.0,0.0,0.0,0.0,0.0,0.0,-2.141,-2.204,-2.3226,-2.5355,0.0,0.0,0.0,0.0,-2.7029,-2.7739,-2.7249,-2.7046,-2.7722,-2.7755,-2.7257,-2.602,0.0,0.0,-2.3854,-2.3425,-2.3078,-2.1974,-2.1814,-2.1754,-2.1714,-2.1021,-2.0808,-2.138,-2.0976,-2.0946,-2.147,-2.138,-2.1485,-2.976,0.0,0.0,0.0,0.0,-2.6954,-2.7807,-2.9159,-2.8923,-2.7776,-2.6043,-2.5818,0.0,0.0,0.0,0.0,0.0,0.0,-2.7332,-2.7761,-2.9935,-3.1141,-3.1448,-3.1405,-3.1072,-3.0516,-3.0126,-2.9334,-2.8115,-2.6084,-2.3662,-2.0939,0.0,0.0,0.0,0.0,-2.2805,-2.432,-2.561,-2.5988,-2.5403,-2.5384,-2.5026,-2.4218,-2.4199,-2.4098,-2.3859,-2.3088,-2.2061,-2.0784,-1.861,0.0,0.0,0.0,0.0,0.0,0.0,0.0,0.0,0.0,0.0,0.0,0.0,0.0,0.0,0.0,0.0,0.0,0.0,0.0,-1.0724,-1.0978,-1.155,0.0,0.0,0.0,0.0,0.0,0.0,0.0,0.0,0.0,-2.4998,-2.5287,-2.5659,0.0,0.0,-2.791,-2.7519,-2.7977,-2.8417,-2.8619,0.0,0.0,0.0,-2.7821,-2.7092,-2.6884,-2.6403,-2.5615,-2.4463,-2.4247,-2.3993,-2.3182,-2.3041,-2.3056,-2.2981,-2.2158,-2.1545,-2.1635,-2.153,-2.1455,-2.1635,-2.1695,-2.171,-3.4487,-3.2474,-3.0666,-3.0165,-3.0608,-3.0608,-3.1198,-3.2141,-3.1852,-3.0987,-2.9852,-2.9544,-2.8255,-2.6313,-2.5967,0.0,0.0,0.0,-2.966,-3.0198,-3.1545,-3.2449,-3.2885,-3.2807,-3.2523,-3.2044,-3.1424,-3.0638,-2.9688,-2.909,-2.732,-2.4461,0.0,0.0,-2.3352,-2.3782,-2.4598,-2.5725,-2.662,-2.6686,-2.5907,-2.5246,-2.4695,-2.4236,-2.4199,-2.4199,-2.4199,-2.3731,-2.3107,-2.2299,-2.0225,-1.8181,0.0,0.0,0.0,0.0,0.0,0.0,0.0,0.0,0.0,0.0,0.0,-1.16,-1.0391,0.0,0.0,0.0,-1.1359,-1.2086,-1.2821,-1.3667,0.0,0.0,0.0,0.0,0.0,0.0,0.0,-2.2801,-2.4628,-2.6251,-2.7453,-2.7858,-2.8044,-2.8044,-2.8604,-2.8907,-2.8737,0.0,-2.9111,-2.9381,-2.945,-2.9441,-2.9504,-2.8823,-2.8066,-2.7465,-2.6619,-2.5788,-2.5113,-2.4799,-2.4455,-2.4081,-2.3789,-2.3595,-2.3595,-2.2951,-2.2443,-2.2443,-2.2458,-2.2458,-2.2443,-2.2443,-2.2458,-3.82,-3.793,-3.4814,-3.3449,-3.3314,-3.3295,-3.3314,-3.3237,-3.2526,-3.2545,-3.3045,-3.2314,-3.1929,-3.1737,-3.0962,0.0,0.0,-3.15,-3.1872,-3.1929,-3.2737,-3.3103,-3.3096,-3.2927,-3.2779,-3.2706,-3.2444,-3.176,-3.0762,-3.0721,-2.98,-2.8037,-2.6915,-2.6543,-2.6823,-2.6145,-2.6446,-2.7761,-2.7853,-2.7475,-2.6612,-2.5089,-2.4263,-2.4199,-2.4199,-2.4199,-2.4199,-2.4199,-2.3823,-2.3006,-2.1483,-1.9539,-1.7209,0.0,0.0,0.0,0.0,0.0,0.0,0.0,0.0,0.0,0.0,0.0,0.0,0.0,0.0,0.0,-1.4191,0.0,-1.5781,-1.7693,0.0,0.0,0.0,-2.1495,-2.1546,-2.3441,-2.5015,-2.571,0.0,0.0,0.0,0.0,-3.0192,-3.0192,-2.96,-2.9397,-3.0006,-2.9567,-2.9414,-3.0072,-3.0135,-3.0163,-3.017,-3.0023,-2.9286,-2.7789,-2.7027,-2.6447,-2.5824,-2.5232,-2.4814,-2.4694,-2.4171,-2.3759,-2.3699,-2.367,-2.3655,-2.355,-2.355,-2.355,-2.3505,-2.349,-2.3475,-3.9892,-3.9823,-3.9034,-3.7957,-3.6796,-3.6796,-3.6796,-3.6776,-3.6584,-3.5892,-3.4865,-3.4673,-3.3865,-3.2602,-3.2391,-3.2314,-3.2352,-3.3199,-3.3609,-3.3667,-3.4487,-3.4885,-3.4885,-3.4824,-3.4347,-3.3549,-3.3454,-3.2851,-3.1778,-3.174,-3.1123,-2.9981,-2.9646,-2.8562,-2.6743,-2.7072,-2.7456,-2.7816,-2.8411,-2.8033,-2.6631,-2.5621,-2.4824,-2.4218,-2.4199,-2.4199,-2.4199,-2.4199,-2.3823,-2.3024,-2.2024,-2.0656,-1.8812,-1.6451,0.0,0.0,0.0,0.0,0.0,0.0,0.0,0.0,0.0,-1.5808,-1.2587,0.0,-1.569,0.0,-1.525,-1.6113,-1.7941,-1.8589,0.0,0.0,-2.2699,-2.3932,-2.4509,-2.6015,-2.708,-2.7249,-2.8618,-2.9616,-2.982,-3.048,-3.092,-3.0937,-3.0804,-3.0548,-3.0192,-3.0463,-3.0753,-3.083,-3.0537,-3.0257,-3.0201,-2.9496,-2.8646,-2.7731,-2.7445,-2.7136,-2.6452,-2.6228,-2.5974,-2.5472,-2.5255,-2.4956,-2.4455,-2.4365,-2.4141,-2.3729,-2.3595,-2.3595,-2.3595,-2.3595,-2.3595,-4.1085,-4.1027,-4.0669,-3.9958,-3.9092,-3.8719,-3.8354,-3.8007,-3.8007,-3.7469,-3.6615,-3.6603,-3.6084,-3.5161,-3.4757,-3.4577,-3.4603,-3.4737,-3.4795,-3.4814,-3.5288,-3.55,-3.55,-3.55,-3.5119,-3.4399,-3.4268,-3.3592,-3.2552,-3.2366,-3.1879,-3.0953,-3.0613,-2.9673,-2.8294,-2.8301,-2.8356,-2.8338,-2.8411,-2.8014,-2.7126,-2.5999,-2.5191,-2.475,-2.4383,-2.4199,-2.4199,-2.4199,-2.3841,-2.3043,-2.2226,-2.1206,-1.9877,-1.7894,-1.6371,0.0,0.0,0.0,0.0,0.0,0.0,0.0,0.0,0.0,0.0,0.0,-1.7501,0.0,-1.7704,0.0,-2.072,-2.18,-2.275,-2.3665,-2.5406,-2.6539,-2.6573,-2.7908,-2.8821,-2.8838,-2.9871,-3.0581,-3.0615,-3.0937,-3.119,-3.119,-3.119,-3.1055,-3.0717,-3.097,-3.119,-3.1171,-3.0918,-3.0477,-3.0,-2.888,-2.8008,-2.7685,-2.7585,-2.7465,-2.7106,-2.6782,-2.6467,-2.6123,-2.5809,-2.5486,-2.5113,-2.4784,-2.447,-2.4141,-2.3804,-2.3625,-2.3595,-2.3595,-2.3595,-4.1816,-4.1731,-4.0873,-4.0496,-4.0439,-3.9746,-3.9008,-3.8315,-3.8315,-3.8257,-3.8161,-3.8046,-3.8007,-3.795,-3.7219,-3.6873,-3.6808,-3.6038,-3.5635,-3.5654,-3.5538,-3.55,-3.55,-3.55,-3.5361,-3.5077,-3.487,-3.4216,-3.3213,-3.2933,-3.2402,-3.1605,-3.0876,-3.0467,-3.0338,-2.9555,-2.9097,-2.9005,-2.8301,-2.7915,-2.778,-2.6329,-2.5503,-2.5374,-2.4612,-2.4199,-2.4199,-2.4199,-2.3841,-2.3043,-2.2318,-2.1565,-2.0694,-1.9245,-1.8364,0.0,-1.7495,0.0,0.0,0.0,0.0,0.0,0.0,0.0,0.0,-1.9559,-1.9631,-1.9486,-2.0869,-2.2341,-2.368,-2.5659,-2.6623,-2.6184,-2.7893,-2.8856,-2.8246,-2.9362,-3.0243,-3.026,-3.0818,-3.119,-3.1173,-3.119,-3.119,-3.119,-3.119,-3.1173,-3.1173,-3.1173,-3.119,-3.119,-3.1114,-3.058,-2.9607,-2.848,-2.7785,-2.775,-2.7635,-2.7585,-2.757,-2.7136,-2.6761,-2.6677,-2.6303,-2.5899,-2.5764,-2.5187,-2.4724,-2.4575,-2.4022,-2.361,-2.3595,-2.3595,-2.3595,-4.1816,-4.1731,-4.0862,-4.0496,-4.0496,-4.0323,-4.0169,-4.0035,-4.0035,-3.9642,-3.9008,-3.8315,-3.8007,-3.7969,-3.7834,-3.7738,-3.7719,-3.6865,-3.6462,-3.6442,-3.5808,-3.55,-3.55,-3.55,-3.5361,-3.5105,-3.5043,-3.4794,-3.4367,-3.4053,-3.3491,-3.2692,-3.233,-3.1843,-3.1146,0.0,0.0,0.0,-2.8858,-2.8448,-2.7787,-2.6888,-2.6043,-2.5411,-2.4622,0.0,-2.4199,-2.4199,-2.3823,-2.3061,-2.2859,0.0,0.0,0.0,0.0,0.0,0.0,0.0,0.0,0.0,0.0,0.0,-2.1358,-2.1284,-2.0834,-2.2681,-2.3553,-2.2705,-2.39,-2.5118,-2.5981,-2.6996,-2.779,-2.835,-2.9297,-2.9837,-2.9719,-3.0463,-3.0987,-3.0987,-3.1142,-3.119,-3.119,-3.119,-3.119,-3.119,-3.119,-3.119,-3.119,-3.119,-3.119,-3.1171,-3.0838,-3.023,-2.9518,-2.8803,-2.8334,-2.8286,-2.787,-2.7635,-2.757,-2.751,-2.7405,-2.739,-2.7315,-2.7001,-2.6512,-2.5884,-2.5247,-2.4724,-2.4103,-2.3595,-2.3595,-2.3595,-2.3595,-4.3028,0.0,-4.2124,-4.1527,0.0,-4.1143,-4.0893,-4.0496,-4.0496,-4.0265,-3.9861,-3.9438,-3.9246,-3.9219,-3.8815,-3.8649,-3.8611,-3.7738,-3.7353,-3.7296,-3.6481,-3.6096,-3.6084,-3.5692,-3.5361,-3.5105,-3.5096,-3.4982,-3.4694,-3.4529,-3.4239,-3.3816,-3.315,-3.2588,-3.2162,-3.0863,-2.9794,-2.9005,-2.8987,-2.8803,-2.8381,-2.7603,-2.6814,-2.6017,0.0,0.0,0.0,0.0,0.0,0.0,0.0,0.0,0.0,0.0,0.0,-2.1721,-2.1345,-2.1073,-2.0959,-2.1046,-2.1899,-2.3635,-2.4605,-2.4534,-2.3188,-2.415,-2.487,-2.5048,-2.5727,-2.6607,-2.7723,-2.8501,-2.9092,-2.9533,-3.0192,-3.0649,-3.0683,-3.0954,-3.119,-3.119,-3.119,-3.119,-3.119,-3.119,-3.119,-3.119,-3.119,-3.119,-3.119,-3.119,-3.119,-3.1171,-3.0679,-3.0208,-2.987,-2.9339,-2.8803,-2.8559,-2.8262,-2.7944,-2.7635,-2.7585,-2.7585,-2.7585,-2.7585,-2.745,-2.7151,-2.6557,-2.6004,-2.56,-2.4769,-2.4126,-2.4066,-2.3834,-2.3595,-4.4316,-4.422,-4.3431,-4.2681,-4.2027,-4.1885,-4.1316,-4.0496,0.0,0.0,0.0,-4.0496,-4.0496,-4.0439,-3.9804,-3.9515,-3.9457,-3.8623,-3.8219,-3.818,-3.7161,-3.6712,-3.6654,-3.5885,-3.5376,-3.5163,-3.5155,-3.5043,-3.4851,-3.4784,-3.4764,-3.4678,-3.3789,-3.3213,-3.2903,-3.1318,-3.0067,-2.9244,-2.9078,-2.8987,-2.8968,-2.8227,-2.7493,-2.6822,-2.5878,-2.5099,-2.4428,-2.4263,-2.3914,-2.3272,-2.3217,-2.3208,-2.3217,-2.3217,-2.3511,-2.4135,-2.4199,-2.4263,-2.4401,-2.442,-2.4824,-2.576,-2.7101,-2.7206,-2.5598,-2.5423,-2.587,-2.7024,-2.7366,-2.8066,-2.9296,-3.0006,-3.041,-3.0408,-3.0876,-3.1173,-3.1173,-3.119,-3.119,-3.119,-3.119,-3.119,-3.119,-3.119,-3.119,-3.119,-3.119,-3.119,-3.119,-3.119,-3.119,-3.1151,-3.0818,-3.0477,-3.0393,-2.9935,-2.9368,-2.9012,-2.8701,-2.8295,-2.7894,-2.766,-2.7585,-2.7585,-2.7585,-2.7585,-2.754,-2.7016,-2.6632,-2.6602,-2.5621,-2.4784,-2.4739,-2.4373,-2.3939,-4.4316,-4.4239,-4.3431,-4.3028,-4.2854,-4.2115,-4.1316,-4.0516,-4.0496,-4.0496,-4.0496,-4.0496,-4.0496,-4.0496,-4.0381,-4.0342,-4.0285,-3.9477,-3.9104,0.0,-3.7469,-3.6712,-3.6654,-3.5865,-3.5486,-3.5446,-3.5439,-3.5432,-3.5369,-3.5147,-3.5034,-3.5008,-3.4641,-3.3953,-3.3011,-3.2054,-3.1054,-3.0056,-2.9354,-2.8987,-2.8987,-2.8209,-2.7761,-2.7596,-2.6182,-2.5356,-2.5219,-2.4566,-2.4153,-2.4043,-2.4043,-2.4025,-2.4025,-2.4043,-2.408,-2.4199,-2.4199,-2.4511,-2.5172,-2.5209,-2.5888,-2.7317,-2.7991,-2.7915,-2.7051,-2.8138,-2.8848,-2.8832,-2.9832,-3.0813,-3.1081,-3.1342,-3.1526,-3.1507,-3.1342,-3.119,-3.121,-3.119,-3.119,-3.119,-3.119,-3.119,-3.119,-3.119,-3.119,-3.119,-3.119,-3.119,-3.119,-3.119,-3.119,-3.119,-3.1151,-3.1075,-3.0955,-3.0576,-3.0145,-3.0081,-2.918,-2.8583,-2.8319,-2.7944,-2.766,-2.7585,-2.7585,-2.7585,-2.7585,-2.7061,-2.6761,-2.6632,-2.6004,-2.5472,-2.5442,-2.53,-2.4866,-4.5017,-4.4979,-4.4586,-4.4182,-4.3701,-4.2854,-4.2008,-4.1219,-4.12,-4.0931,-4.0516,-4.0496,-4.0496,-4.0496,-4.0496,-4.0496,-4.0477,-4.0112,-3.9958,-3.9861,-3.8681,-3.7853,-3.7373,-3.6538,-3.5923,-3.5519,-3.55,-3.55,-3.5474,-3.5376,-3.5312,-3.5297,-3.5034,-3.4349,-3.326,-3.2716,-3.1771,-3.0431,-2.9483,-2.8987,-2.8987,-2.8638,-2.8246,-2.7824,-2.7045,-2.6494,-2.6062,-2.5283,-2.5062,-2.5493,-2.5071,-2.4842,-2.486,-2.4842,-2.4842,-2.4842,-2.486,-2.5209,-2.5988,-2.6465,-2.7008,-2.775,-2.8364,-2.8773,-2.884,-2.9138,-2.9423,-2.9695,-3.0741,-3.1574,-3.1932,-3.2122,-3.2179,-3.2179,-3.1788,-3.1545,-3.1488,-3.1329,-3.119,-3.119,-3.119,-3.119,-3.119,-3.119,-3.119,-3.119,-3.119,-3.119,-3.119,-3.119,-3.119,-3.119,-3.119,-3.119,-3.119,-3.1012,-3.0679,-3.0372,-2.9848,-2.9225,-2.8709,-2.8213,-2.7968,-2.766,-2.7585,-2.7585,-2.7585,-2.7375,-2.718,-2.7076,-2.6602,-2.6213,-2.6108,-2.563,-2.4859,-4.5594,-4.5594,-4.5594,-4.5114,-4.4259,-4.3643,-4.2893,-4.2104,-4.1865,-4.1431,-4.0816,-4.0612,-4.0496,-4.0496,-4.0496,-4.0496,-4.0496,-4.0496,-4.0496,-4.0419,-3.9688,-3.8931,-3.8238,-3.7411,-3.6577,-3.5846,-3.5769,-3.5692,-3.5519,-3.55,-3.55,-3.5486,-3.5289,-3.4727,-3.379,-3.3378,-3.255,-3.1233,-2.9998,-2.9251,-2.9005,-2.8987,-2.8712,-2.8117,-2.7879,-2.7523,-2.6888,-2.609,-2.5962,-2.6521,-2.6017,-2.5686,-2.5668,-2.5668,-2.5668,-2.5668,-2.5668,-2.6017,-2.6833,-2.7622,-2.8062,-2.8081,-2.8822,-2.9537,-3.0082,-3.0039,-3.012,-3.0716,-3.1512,-3.2212,-3.2679,-3.2713,-3.2665,-3.2614,-3.223,-3.1915,-3.1806,-3.1526,-3.1274,-3.123,-3.119,-3.119,-3.119,-3.119,-3.119,-3.119,-3.119,-3.119,-3.119,-3.119,-3.119,-3.119,-3.119,-3.119,-3.119,-3.1171,-3.0995,-3.0555,-3.0335,-2.987,-2.9157,-2.8756,-2.8343,-2.7919,-2.766,-2.7625,-2.7585,-2.757,-2.7555,-2.748,-2.7121,-2.6836,-2.6767,-2.5794,-2.4829,-4.5594,-4.5594,-4.5594,-4.5094,-4.4355,-4.422,-4.3739,-4.2931,-4.2181,-4.1777,-4.1585,-4.0835,-4.0516,-4.0496,-4.0496,-4.0496,-4.0496,-4.0496,-4.0496,-4.0419,-3.9669,-3.9265,-3.9073,-3.8277,-3.743,-3.6654,-3.6558,-3.6154,-3.5519,-3.55,-3.55,-3.55,-3.5479,-3.5281,-3.4867,-3.4137,-3.352,-3.3109,-3.1366,-2.9983,-2.9065,-2.8987,-2.895,-2.8895,-2.8172,-2.7769,-2.7677,-2.6906,-2.6539,-2.6583,-2.6547,-2.6502,-2.6484,-2.6473,-2.6484,-2.6502,-2.6502,-2.6851,-2.764,-2.8448,-2.8858,-2.895,-2.961,-3.0136,-3.032,-3.1468,-3.2253,-3.2446,-3.3081,-3.3492,-3.3648,-3.3346,-3.3121,-3.3105,-3.2713,-3.2282,-3.2003,-3.1806,-3.1604,-3.123,-3.1232,-3.119,-3.121,-3.119,-3.119,-3.119,-3.119,-3.119,-3.119,-3.119,-3.119,-3.119,-3.119,-3.119,-3.119,-3.119,-3.1131,-3.1035,-3.0642,-3.0251,-2.987,-2.9219,-2.8479,-2.8463,-2.8042,-2.7795,-2.766,-2.7585,-2.765,-2.7585,-2.7495,-2.7465,-2.736,-2.6437,-2.5442,-4.5653,-4.5594,-4.5594,-4.5402,-4.5094,-4.5075,-4.4594,-4.3778,-4.3451,-4.2758,-4.1827,-4.1412,-4.0989,-4.0516,-4.0496,-4.0496,-4.0496,-4.0496,-4.0496,-4.0477,-4.015,-3.9765,-3.9284,-3.8969,-3.8065,-3.6788,-3.6712,-3.6288,-3.5615,-3.55,-3.55,-3.55,-3.55,-3.5465,-3.53,-3.4835,-3.4279,-3.3612,-3.2251,-3.1118,-3.0211,-2.94,-2.8987,-2.8968,-2.8675,-2.851,-2.8448,-2.7732,-2.7512,-2.7923,-2.7585,-2.731,-2.731,-2.7291,-2.731,-2.7328,-2.7776,-2.8143,-2.8473,-2.8822,-2.9207,-2.9666,-2.9996,-3.0577,-3.1537,-3.2234,-3.2766,-3.3275,-3.3605,-3.3807,-3.3793,-3.3652,-3.355,-3.3508,-3.3166,-3.2825,-3.2699,-3.2384,-3.2057,-3.164,-3.1564,-3.1432,-3.1252,-3.119,-3.119,-3.119,-3.119,-3.119,-3.119,-3.119,-3.119,-3.119,-3.119,-3.119,-3.119,-3.119,-3.119,-3.1151,-3.1015,-3.0797,-3.0309,-3.0016,-2.9473,-2.9111,-2.8764,-2.8424,-2.8213,-2.8116,-2.8067,-2.7835,-2.7585,-2.7585,-2.7585,-2.6841,-2.6019,-4.5769,-4.5668,-4.5601,-4.5594,-4.5594,-4.5594,-4.5248,-4.4662,-4.4412,-4.3605,-4.2508,-4.2019,-4.147,-4.0873,-4.0631,-4.0496,-4.0496,-4.0496,-4.0496,-4.0496,-4.0496,-4.0208,-3.965,-3.9611,-3.8719,-3.7276,-3.7084,-3.6538,-3.5615,-3.55,-3.55,-3.55,-3.55,-3.55,-3.5467,-3.5297,-3.4909,-3.4247,-3.3204,-3.2256,-3.138,-3.0131,-2.9344,-2.9149,-2.904,-2.8987,-2.8987,-2.8448,-2.8393,-2.8932,-2.8448,-2.8136,-2.8136,-2.8117,-2.8117,-2.8172,-2.8656,-2.8987,-2.8987,-2.9189,-2.9574,-3.0155,-3.0558,-3.1347,-3.2344,-3.2803,-3.3183,-3.3678,-3.3807,-3.3807,-3.3807,-3.3807,-3.3807,-3.3793,-3.3522,-3.3332,-3.3184,-3.2856,-3.25,-3.2074,-3.1878,-3.1658,-3.131,-3.119,-3.119,-3.119,-3.119,-3.119,-3.119,-3.119,-3.119,-3.119,-3.119,-3.119,-3.119,-3.119,-3.119,-3.119,-3.1151,-3.0995,-3.0597,-3.0477,-3.0251,-2.9673,-2.9563,-2.9316,-2.8896,-2.8709,-2.8559,-2.8067,-2.786,-2.776,-2.765,-2.7031,-2.6378,-4.5855,-4.5776,-4.564,-4.5603,-4.5594,-4.5594,-4.5575,-4.5402,-4.4701,-4.4239,-4.3855,-4.2527,-4.1788,-4.1623,-4.0854,-4.0496,-4.0496,-4.0496,-4.0496,-4.0496,-4.0496,-4.0496,-4.0458,-4.0439,-3.9573,-3.8046,-3.795,-3.7123,-3.5635,-3.5519,-3.55,-3.55,-3.55,-3.55,-3.55,-3.5479,-3.5448,-3.5189,-3.4205,-3.3317,-3.248,-3.1214,-3.0178,-2.9522,-2.9145,-2.8987,-2.8987,-2.895,-2.895,-2.8987,-2.8932,-2.8895,-2.8913,-2.8913,-2.8895,-2.8913,-2.8987,-2.9023,-2.9133,-2.9739,-3.0228,-3.0448,-3.1586,-3.2491,-3.2693,-3.3275,-3.366,-3.3807,-3.3807,-3.3807,-3.3807,-3.3807,-3.3807,-3.3807,-3.3793,-3.3578,-3.3258,-3.3214,-3.2968,-3.2534,-3.2127,-3.1785,-3.1325,-3.119,-3.1348,-3.1362,-3.1275,-3.1258,-3.1292,-3.1258,-3.119,-3.119,-3.119,-3.119,-3.119,-3.119,-3.119,-3.119,-3.119,-3.1188,-3.0995,-3.074,-3.046,-3.0187,-2.9935,-2.9695,-2.9473,-2.9225,-2.9012,-2.8662,-2.8391,-2.8238,-2.791,-2.7105,-2.6393,-4.5959,-4.5861,-4.5757,-4.5718,-4.5703,-4.5635,-4.5594,-4.5575,-4.5259,-4.4825,-4.4162,-4.3104,-4.2316,-4.1777,-4.0893,-4.0496,-4.0496,-4.0496,-4.0496,-4.0496,-4.0496,-4.0496,-4.0496,-4.0496,-3.9958,-3.8996,-3.8834,-3.795,-3.6442,-3.625,-3.6,-3.5558,-3.55,-3.55,-3.55,-3.55,-3.55,-3.5397,-3.4541,-3.3906,-3.354,-3.2483,-3.1479,-3.0622,-2.9561,-2.8987,-2.8987,-2.8987,-2.8987,-2.8987,-2.8987,-2.8987,-2.8987,-2.8987,-2.8987,-2.9042,-2.9464,-2.9757,-2.9879,-3.0522,-3.1201,-3.1733,-3.2234,-3.2852,-3.3293,-3.3642,-3.3807,-3.3807,-3.3807,-3.3807,-3.3807,-3.3807,-3.3807,-3.3807,-3.3807,-3.3748,-3.362,-3.3564,-3.3419,-3.2999,-3.255,-3.2249,-3.2337,-3.2359,-3.243,-3.252,-3.2205,-3.1955,-3.1819,-3.1549,-3.1224,-3.1207,-3.119,-3.119,-3.119,-3.119,-3.119,-3.119,-3.119,-3.119,-3.1055,-3.1035,-3.0801,-3.074,-3.0456,-3.0251,-3.0102,-2.9717,-2.9473,-2.9225,-2.8966,-2.8662,-2.8222,-2.7473,-2.6582,-4.6045,-4.5959,-4.5866,-4.5844,-4.5801,-4.5711,-4.5657,-4.5648,-4.562,-4.5267,-4.4624,-4.3835,-4.3028,-4.2162,-4.1316,-4.0727,-4.0516,-4.0496,-4.0496,-4.0496,-4.0496,-4.0496,-4.0496,-4.0496,-4.0092,-3.9342,-3.8988,-3.8123,-3.6865,-3.6712,-3.6269,-3.5538,-3.55,-3.55,-3.55,-3.55,-3.55,-3.5365,-3.4891,-3.4507,-3.4166,-3.3405,-3.2592,-3.1694,-3.0611,-2.9717,-2.9182,-2.9134,-2.9078,-2.9017,-2.8987,-2.8987,-2.8987,-2.8987,-2.9133,-2.9409,-2.9867,-3.0338,-3.065,-3.1347,-3.2027,-3.2546,-3.2858,-3.3256,-3.3752,-3.3807,-3.3807,-3.3807,-3.3807,-3.3807,-3.3807,-3.3807,-3.3807,-3.3807,-3.3807,-3.3807,-3.3807,-3.3807,-3.3611,-3.328,-3.3205,-3.3188,-3.3229,-3.3323,-3.3457,-3.3632,-3.3077,-3.2699,-3.2581,-3.2056,-3.1546,-3.1549,-3.1343,-3.1224,-3.119,-3.119,-3.119,-3.119,-3.119,-3.119,-3.119,-3.119,-3.119,-3.119,-3.1095,-3.0955,-3.0658,-3.0251,-2.9957,-2.9717,-2.9518,-2.9271,-2.8615,-2.7867,-2.7105,-4.6091,-4.6082,-4.5947,-4.5923,-4.5905,-4.5832,-4.5796,-4.5756,-4.5657,-4.5563,-4.5306,-4.4605,-4.3758,-4.3028,-4.2085,-4.1316,-4.0727,-4.0554,-4.0496,-4.0496,-4.0496,-4.0496,-4.0496,-4.0496,-4.0169,-3.9419,-3.8546,-3.7719,-3.7,-3.6969,-3.6538,-3.5712,-3.5615,-3.5596,-3.55,-3.55,-3.55,-3.5462,-3.5385,-3.5045,-3.432,-3.3994,-3.3471,-3.2695,-3.2281,-3.1327,-2.9639,-2.9516,-2.941,-2.9147,-2.904,-2.8998,-2.909,-2.9097,-2.939,-3.0081,-3.0283,-3.065,-3.1366,-3.2155,-3.2619,-3.2821,-3.333,-3.3715,-3.377,-3.3807,-3.3807,-3.3807,-3.3807,-3.3807,-3.3807,-3.3807,-3.3807,-3.3807,-3.3807,-3.3807,-3.3807,-3.3807,-3.3684,-3.348,-3.3849,-3.4146,-3.3965,-3.4162,-3.4408,-3.431,-3.3884,-3.3401,-3.319,-3.2577,-3.2293,-3.2039,-3.1596,-3.1207,-3.119,-3.119,-3.119,-3.119,-3.119,-3.119,-3.119,-3.119,-3.119,-3.119,-3.119,-3.1055,-3.1055,-3.0679,-3.0617,-3.0393,-3.0166,-2.9789,-2.9188,-2.8505,-2.779,-4.6245,-4.6223,-4.6106,-4.602,-4.603,-4.5914,-4.5847,-4.5803,-4.5754,-4.5696,-4.5439,-4.4682,-4.4143,-4.3643,-4.247,-4.1654,-4.1354,-4.0823,-4.0496,-4.0496,-4.0496,-4.0496,-4.0496,-4.0496,-4.0381,-4.0112,-3.9881,-3.9304,-3.8584,-3.845,-3.7777,-3.6596,-3.6308,-3.6019,-3.5558,-3.55,-3.55,-3.55,-3.55,-3.5346,-3.5096,-3.499,-3.4546,-3.3791,-3.3614,-3.2921,-3.1682,-3.0883,-3.0395,-3.0111,-2.9567,-2.9422,-2.9731,-2.9831,-3.0198,-3.0944,-3.1586,-3.1904,-3.2247,-3.2926,-3.3403,-3.3458,-3.3678,-3.3788,-3.3807,-3.3807,-3.3807,-3.3807,-3.3807,-3.3807,-3.3807,-3.3807,-3.3807,-3.3807,-3.3807,-3.3807,-3.3807,-3.3807,-3.4009,-3.4383,-3.4651,-3.5039,-3.5594,-3.5864,-3.5773,-3.5625,-3.5137,-3.45,-3.3566,-3.2913,-3.2073,-3.1633,-3.1309,-3.1207,-3.119,-3.119,-3.119,-3.119,-3.119,-3.119,-3.119,-3.119,-3.119,-3.119,-3.119,-3.119,-3.119,-3.1131,-3.1015,-3.0858,-3.0555,-3.0149,-2.9756,-2.9172,-2.8467,-4.6289,-4.6289,-4.6202,-4.6174,-4.617,-4.6033,-4.5963,-4.5906,-4.5853,-4.5796,-4.558,-4.5132,-4.467,-4.4211,-4.3203,-4.2393,-4.1788,-4.1219,-4.0823,-4.0535,-4.0496,-4.0496,-4.0496,-4.0496,-4.0496,-4.0496,-4.0496,-4.0092,-3.9342,-3.9265,-3.8584,-3.7373,-3.6873,-3.6481,-3.5942,-3.5635,-3.55,-3.55,-3.55,-3.55,-3.5481,-3.55,-3.525,-3.4776,-3.468,-3.4337,-3.3654,-3.2691,-3.1884,-3.1185,-3.0343,-3.0012,-3.019,-3.021,-3.0558,-3.1347,-3.2137,-3.2693,-3.3023,-3.3495,-3.3807,-3.3807,-3.3807,-3.3807,-3.3807,-3.3807,-3.3807,-3.3807,-3.3807,-3.3807,-3.3807,-3.3807,-3.3807,-3.3807,-3.3807,-3.3807,-3.3807,-3.3807,-3.4174,-3.4752,-3.5284,-3.5974,-3.6682,-3.7116,-3.7093,-3.6901,-3.6422,-3.5533,-3.4383,-3.3539,-3.2653,-3.1834,-3.1376,-3.1292,-3.1207,-3.119,-3.119,-3.119,-3.119,-3.119,-3.119,-3.119,-3.119,-3.119,-3.119,-3.119,-3.119,-3.119,-3.1095,-3.0975,-3.0838,-3.0539,-3.0159,-2.9783,-2.9178,-4.6289,-4.6289,-4.6289,-4.6289,-4.6269,-4.615,-4.6087,-4.6075,-4.5971,-4.5894,-4.5862,-4.5716,-4.5318,-4.4698,-4.4234,-4.3357,-4.2143,-4.1739,-4.1316,-4.0796,-4.0573,-4.0496,-4.0496,-4.0496,-4.0496,-4.0496,-4.0496,-4.0131,-3.9534,-3.9496,-3.8938,-3.8104,-3.7296,-3.6731,-3.6488,-3.5904,-3.55,-3.55,-3.55,-3.55,-3.55,-3.55,-3.5481,-3.5404,-3.5404,-3.5339,-3.5114,-3.444,-3.3517,-3.2304,-3.1203,-3.0684,-3.0457,-3.0374,-3.0894,-3.1703,-3.2302,-3.2986,-3.3605,-3.3752,-3.3807,-3.3807,-3.3807,-3.3807,-3.3807,-3.3807,-3.3807,-3.3807,-3.3807,-3.3807,-3.3807,-3.3807,-3.3807,-3.3807,-3.3807,-3.3807,-3.3807,-3.3862,-3.4412,-3.5096,-3.5844,-3.667,-3.7454,-3.7796,-3.7835,-3.7666,-3.7255,-3.6298,-3.5211,-3.4125,-3.3463,-3.2564,-3.155,-3.1292,-3.119,-3.119,-3.119,-3.119,-3.119,-3.119,-3.119,-3.119,-3.119,-3.119,-3.119,-3.119,-3.119,-3.119,-3.119,-3.1112,-3.0975,-3.0821,-3.0612,-3.0257,-3.0046,-4.6289,-4.6289,-4.6289,-4.6289,-4.6289,-4.6267,-4.6198,-4.611,-4.6055,-4.5995,-4.5931,-4.5886,-4.5723,-4.5396,-4.475,-4.4109,-4.342,-4.2351,-4.1758,-4.1373,-4.0758,-4.0535,-4.0496,-4.0496,-4.0496,-4.0496,-4.0496,-4.04,-4.0189,-4.0131,-3.9727,-3.8957,-3.8084,-3.7315,-3.6692,-3.5942,-3.5519,-3.55,-3.55,-3.55,-3.55,-3.55,-3.55,-3.55,-3.55,-3.55,-3.55,-3.5269,-3.4302,-3.2651,-3.206,-3.1962,-3.2121,-3.215,-3.2383,-3.2919,-3.3296,-3.3545,-3.3747,-3.382,-3.382,-3.3807,-3.3807,-3.3807,-3.3807,-3.3807,-3.3807,-3.3807,-3.3807,-3.3825,-3.3825,-3.388,-3.3862,-3.3807,-3.3972,-3.3917,-3.3899,-3.4362,-3.5023,-3.5862,-3.6666,-3.7437,-3.8071,-3.8361,-3.8318,-3.7924,-3.7358,-3.6487,-3.5384,-3.4348,-3.3533,-3.24,-3.1521,-3.1308,-3.119,-3.119,-3.119,-3.119,-3.119,-3.119,-3.119,-3.119,-3.119,-3.119,-3.119,-3.119,-3.119,-3.119,-3.119,-3.119,-3.1114,-3.1015,-3.1055,-3.0871,-3.0814,-4.6289,-4.6289,-4.6289,-4.6289,-4.6289,-4.6289,-4.6248,-4.6199,-4.6177,-4.6145,-4.6075,-4.6018,-4.5975,-4.5852,-4.535,-4.4851,-4.4318,-4.3086,-4.2273,-4.1726,-4.0927,-4.0535,-4.0496,-4.0496,-4.0496,-4.0496,-4.0496,-4.0496,-4.0477,-4.0496,-4.0227,-3.9746,-3.8957,-3.8104,-3.7296,-3.6423,-3.5808,-3.5577,-3.55,-3.55,-3.55,-3.55,-3.55,-3.55,-3.55,-3.55,-3.55,-3.5481,-3.4865,-3.381,-3.3194,-3.2968,-3.3135,-3.3149,-3.3317,-3.3626,-3.3942,-3.4117,-3.3999,-3.3974,-3.3915,-3.3847,-3.3807,-3.3807,-3.3807,-3.3807,-3.3807,-3.3807,-3.3807,-3.3972,-3.4321,-3.4614,-3.4816,-3.4945,-3.4853,-3.4559,-3.3954,-3.4871,-3.5646,-3.634,-3.7015,-3.779,-3.8579,-3.8689,-3.8546,-3.8277,-3.801,-3.679,-3.5519,-3.4516,-3.3512,-3.249,-3.1712,-3.1507,-3.1293,-3.1252,-3.121,-3.121,-3.119,-3.119,-3.119,-3.119,-3.119,-3.119,-3.119,-3.119,-3.119,-3.119,-3.119,-3.119,-3.119,-3.119,-3.119,-3.119,-3.119,-4.6289,-4.6289,-4.6289,-4.6289,-4.6289,-4.6289,-4.6289,-4.6289,-4.6289,-4.6289,-4.625,-4.6153,-4.6108,-4.6087,-4.5854,-4.5503,-4.4805,-4.3743,-4.2689,-4.1806,-4.0964,-4.0557,-4.0537,-4.0512,-4.0496,-4.0496,-4.0496,-4.0496,-4.0496,-4.0496,-4.0496,-4.0189,-3.9611,-3.8931,-3.8104,-3.7276,-3.6442,-3.5846,-3.5769,-3.5654,-3.5538,-3.55,-3.55,-3.55,-3.55,-3.55,-3.55,-3.5493,-3.5314,-3.5127,-3.438,-3.393,-3.3696,-3.3611,-3.3591,-3.3712,-3.4244,-3.4497,-3.4323,-3.4265,-3.4171,-3.4018,-3.3972,-3.3895,-3.3967,-3.4005,-3.4079,-3.4289,-3.4031,-3.4513,-3.5151,-3.5845,-3.6009,-3.6028,-3.6174,-3.5624,-3.4816,-3.5459,-3.6413,-3.6468,-3.7162,-3.7918,-3.8414,-3.8707,-3.8673,-3.8491,-3.8167,-3.7275,-3.6093,-3.513,-3.3998,-3.2844,-3.2213,-3.1733,-3.1507,-3.1312,-3.1271,-3.123,-3.121,-3.119,-3.119,-3.119,-3.119,-3.119,-3.119,-3.119,-3.119,-3.119,-3.119,-3.119,-3.119,-3.119,-3.119,-3.119,-3.119,-4.6289,-4.6289,-4.6289,-4.6289,-4.6289,-4.6289,-4.6289,-4.6289,-4.6289,-4.6289,-4.6289,-4.6269,-4.6199,-4.6091,-4.6055,-4.5881,-4.5398,-4.4086,-4.2594,-4.1125,-4.0843,-4.0674,-4.0636,-4.054,-4.0504,-4.0496,-4.0496,-4.0496,-4.0496,-4.0496,-4.0496,-4.0381,-3.9823,-3.9207,-3.89,-3.8123,-3.7296,-3.6596,-3.6423,-3.6058,-3.5558,-3.55,-3.55,-3.55,-3.55,-3.55,-3.55,-3.55,-3.546,-3.5374,-3.5199,-3.4879,-3.4687,-3.4655,-3.4574,-3.4462,-3.4526,-3.4684,-3.4603,-3.4582,-3.4561,-3.4464,-3.4439,-3.4516,-3.4516,-3.452,-3.4824,-3.5251,-3.5458,-3.5654,-3.6209,-3.6288,-3.6489,-3.6626,-3.6905,-3.6886,-3.6189,-3.6615,-3.718,-3.7364,-3.7863,-3.8505,-3.8655,-3.8707,-3.867,-3.8634,-3.8233,-3.7649,-3.673,-3.5729,-3.4587,-3.3428,-3.2697,-3.2214,-3.1825,-3.1565,-3.1389,-3.1288,-3.121,-3.119,-3.119,-3.119,-3.119,-3.119,-3.119,-3.119,-3.119,-3.119,-3.119,-3.119,-3.119,-3.119,-3.119,-3.119,-3.119,-4.6289,-4.6289,-4.6289,-4.6289,-4.6289,-4.6289,-4.6289,-4.6289,-4.6289,-4.6289,-4.6289,-4.6289,-4.625,-4.6199,-4.6178,-4.6147,-4.5694,-4.4292,-4.2799,-4.1627,-4.1075,-4.0726,-4.0692,-4.061,-4.0554,-4.0519,-4.0496,-4.0496,-4.0496,-4.0496,-4.0496,-4.0496,-4.0054,-3.9669,-3.9342,-3.8842,-3.7911,-3.6904,-3.6692,-3.6308,-3.5635,-3.55,-3.55,-3.55,-3.55,-3.55,-3.55,-3.55,-3.55,-3.55,-3.55,-3.5439,-3.532,-3.5289,-3.5207,-3.5113,-3.5079,-3.499,-3.4944,-3.4889,-3.4822,-3.4714,-3.4694,-3.4694,-3.4826,-3.5006,-3.5413,-3.5876,-3.626,-3.672,-3.7206,-3.7634,-3.7539,-3.7507,-3.7753,-3.7845,-3.7588,-3.779,-3.7878,-3.7804,-3.8157,-3.8524,-3.8707,-3.8707,-3.8689,-3.8652,-3.8652,-3.8068,-3.7294,-3.6294,-3.5293,-3.422,-3.3347,-3.27,-3.2248,-3.1879,-3.1545,-3.137,-3.119,-3.119,-3.119,-3.119,-3.119,-3.119,-3.119,-3.119,-3.119,-3.119,-3.119,-3.119,-3.119,-3.119,-3.119,-3.119,-3.119,-4.6289,-4.6289,-4.6289,-4.6289,-4.6289,-4.6289,-4.6289,-4.6289,-4.6289,-4.6289,-4.6289,-4.6289,-4.6289,-4.6289,-4.6289,-4.625,-4.5683,-4.4716,-4.3333,-4.2173,-4.149,-4.1046,-4.0854,-4.0715,-4.0642,-4.0537,-4.0504,-4.0496,-4.0496,-4.0496,-4.0496,-4.0496,-4.0496,-4.0131,-3.9611,-3.9438,-3.8815,-3.7584,-3.7135,-3.6615,-3.5846,-3.5635,-3.55,-3.55,-3.55,-3.55,-3.55,-3.55,-3.55,-3.55,-3.55,-3.55,-3.55,-3.55,-3.5481,-3.5467,-3.5439,-3.5346,-3.5198,-3.5157,-3.507,-3.4822,-3.4832,-3.4832,-3.4984,-3.5553,-3.6084,-3.6605,-3.7125,-3.7915,-3.8191,-3.8484,-3.8743,-3.8666,-3.8652,-3.8707,-3.8707,-3.8707,-3.8322,-3.8043,-3.8285,-3.8634,-3.8707,-3.8707,-3.8707,-3.8689,-3.867,-3.8414,-3.7621,-3.6747,-3.5659,-3.475,-3.3836,-3.3178,-3.2713,-3.2264,-3.1932,-3.1695,-3.1447,-3.1332,-3.1293,-3.123,-3.123,-3.119,-3.119,-3.119,-3.119,-3.119,-3.119,-3.119,-3.119,-3.119,-3.119,-3.119,-3.119,-4.6289,-4.6289,-4.6289,-4.6289,-4.6289,-4.6289,-4.6289,-4.6289,-4.6289,-4.6289,-4.6289,-4.6289,-4.6289,-4.6289,-4.6289,-4.5937,-4.543,-4.4746,-4.3906,-4.2734,-4.208,-4.1671,-4.1133,-4.0856,-4.0742,-4.0661,-4.0575,-4.0523,-4.0496,-4.0496,-4.0496,-4.0496,-4.0496,-4.0323,-4.0285,-4.0246,-3.9727,-3.8604,-3.8046,-3.7373,-3.6481,-3.5827,-3.55,-3.55,-3.55,-3.55,-3.55,-3.55,-3.55,-3.55,-3.55,-3.55,-3.55,-3.55,-3.55,-3.55,-3.55,-3.5453,-3.5391,-3.5398,-3.5398,-3.5376,-3.5389,-3.5358,-3.5511,-3.6132,-3.687,-3.7742,-3.8622,-3.9454,-3.9307,-3.9214,-3.8966,-3.8788,-3.8707,-3.8707,-3.8707,-3.8689,-3.8652,-3.8395,-3.8579,-3.8597,-3.8487,-3.8487,-3.8542,-3.8505,-3.8487,-3.8212,-3.7621,-3.6758,-3.5805,-3.4989,-3.4234,-3.3647,-3.3151,-3.2729,-3.235,-3.2179,-3.1932,-3.1678,-3.1584,-3.1351,-3.1252,-3.123,-3.119,-3.119,-3.119,-3.119,-3.119,-3.119,-3.119,-3.119,-3.119,-3.119,-3.119,-4.6289,-4.6289,-4.6289,-4.6289,-4.6289,-4.6289,-4.6289,-4.6289,-4.6289,-4.6289,-4.6289,-4.6289,-4.6289,-4.6289,-4.6289,-4.6035,-4.5703,-4.5137,-4.4512,-4.3672,-4.2828,-4.2168,-4.1568,-4.1178,-4.0878,-4.0771,-4.0679,-4.0584,-4.0492,-4.0496,-4.0496,-4.0496,-4.0496,-4.0496,-4.0496,-4.0458,-4.0054,-3.9361,-3.8842,-3.8007,-3.6769,-3.5942,-3.5577,-3.5519,-3.5538,-3.55,-3.55,-3.55,-3.55,-3.55,-3.55,-3.55,-3.55,-3.55,-3.55,-3.55,-3.55,-3.55,-3.55,-3.55,-3.5474,-3.5532,-3.5827,-3.5865,-3.5962,-3.6608,-3.7719,-3.8658,-3.9503,-4.0101,-3.9607,-3.9457,-3.9163,-3.8803,-3.8707,-3.8707,-3.8707,-3.8707,-3.867,-3.8597,-3.8267,-3.8065,-3.7991,-3.8065,-3.8285,-3.834,-3.8285,-3.7951,-3.7511,-3.6652,-3.5752,-3.4968,-3.422,-3.3789,-3.3375,-3.3105,-3.2793,-3.2614,-3.2434,-3.2161,-3.1915,-3.1695,-3.1411,-3.1213,-3.1193,-3.1271,-3.119,-3.119,-3.119,-3.119,-3.119,-3.119,-3.119,-3.119,-3.119,-4.6289,-4.6289,-4.6289,-4.6289,-4.6289,-4.6289,-4.6289,-4.6289,-4.6289,-4.6289,-4.6289,-4.6289,-4.6289,-4.6289,-4.6289,-4.6269,-4.623,-4.5547,-4.5176,-4.4629,-4.3691,-4.2867,-4.2152,-4.1688,-4.1178,-4.086,-4.0839,-4.0733,-4.0596,-4.0559,-4.0542,-4.0504,-4.0496,-4.0496,-4.0496,-4.0496,-4.0015,-3.9727,-3.9284,-3.843,-3.7154,-3.6365,-3.6,-3.6,-3.6,-3.6084,-3.6199,-3.6212,-3.6038,-3.5904,-3.5788,-3.5692,-3.5538,-3.55,-3.55,-3.55,-3.55,-3.55,-3.55,-3.55,-3.5596,-3.5846,-3.6346,-3.6327,-3.6615,-3.7488,-3.8604,-3.9438,-4.0031,-4.023,-3.9705,-3.9599,-3.9294,-3.8877,-3.8707,-3.8707,-3.8707,-3.8652,-3.8505,-3.8267,-3.7804,-3.7676,-3.7694,-3.8065,-3.8377,-3.8193,-3.8138,-3.7679,-3.7184,-3.6413,-3.5569,-3.4816,-3.4188,-3.3794,-3.3522,-3.3465,-3.3225,-3.3087,-3.2856,-3.2616,-3.2349,-3.2074,-3.1788,-3.1488,-3.1411,-3.1432,-3.1312,-3.119,-3.119,-3.119,-3.119,-3.119,-3.119,-3.119,-3.119,-4.6289,-4.6289,-4.6289,-4.6289,-4.6289,-4.6289,-4.6289,-4.6289,-4.6289,-4.6289,-4.6289,-4.6289,-4.6289,-4.6289,-4.6289,-4.6289,-4.623,-4.6113,-4.5683,-4.5117,-4.4609,-4.373,-4.2656,-4.2343,-4.1687,-4.1209,-4.1025,-4.0855,-4.0735,-4.0672,-4.061,-4.0537,-4.0527,-4.0496,-4.0496,-4.0496,-4.0458,-4.0227,-3.965,-3.8834,-3.7988,-3.7661,-3.7565,-3.7546,-3.7526,-3.7488,-3.7392,-3.7353,-3.7199,-3.6615,-3.6558,-3.6212,-3.5654,-3.55,-3.55,-3.55,-3.55,-3.55,-3.55,-3.55,-3.5827,-3.625,-3.6699,-3.7065,-3.7623,-3.8334,-3.9323,-4.0265,-4.0477,-4.0257,-3.98,-3.9645,-3.9294,-3.9013,-3.8792,-3.8765,-3.8735,-3.8689,-3.8542,-3.8285,-3.7951,-3.7694,-3.7584,-3.8046,-3.8432,-3.8193,-3.7918,-3.7459,-3.6853,-3.6083,-3.5257,-3.4486,-3.4156,-3.3799,-3.3666,-3.3611,-3.3536,-3.3447,-3.3288,-3.3045,-3.2777,-3.2483,-3.2179,-3.195,-3.1807,-3.1603,-3.143,-3.1293,-3.1232,-3.119,-3.119,-3.119,-3.119,-3.119,-3.119,-4.6289,-4.6289,-4.6289,-4.6289,-4.6289,-4.6289,-4.6289,-4.6289,-4.6289,-4.6289,-4.6289,-4.6289,-4.6289,-4.6289,-4.6289,-4.6289,-4.6289,-4.6289,-4.6133,-4.5625,-4.5215,-4.459,-4.3808,-4.291,-4.2068,-4.1777,-4.1348,-4.1025,-4.088,-4.0781,-4.069,-4.0617,-4.0603,-4.0554,-4.0515,-4.0496,-4.0496,-4.0265,-3.9746,-3.915,-3.8707,-3.8296,-3.8027,-3.8027,-3.8046,-3.8065,-3.8084,-3.7988,-3.7873,-3.745,-3.745,-3.7315,-3.6865,-3.6558,-3.6327,-3.6846,-3.5962,-3.5558,-3.55,-3.5519,-3.6019,-3.6673,-3.7199,-3.7834,-3.8592,-3.9073,-3.9419,-3.9746,-4.0246,-4.0255,-3.9983,-3.9901,-3.963,-3.9345,-3.9022,-3.8923,-3.8873,-3.8735,-3.8597,-3.834,-3.8102,-3.7933,-3.7749,-3.7915,-3.8138,-3.7933,-3.7713,-3.7419,-3.6652,-3.5756,-3.4908,-3.4045,-3.3899,-3.3812,-3.378,-3.3753,-3.3726,-3.3652,-3.3666,-3.3422,-3.3184,-3.2905,-3.2631,-3.24,-3.2265,-3.1986,-3.1638,-3.1372,-3.1271,-3.1213,-3.119,-3.119,-3.119,-3.119,-3.119,-4.6289,-4.6289,-4.6289,-4.6289,-4.6289,-4.6289,-4.6289,-4.6289,-4.6289,-4.6289,-4.6289,-4.6289,-4.6289,-4.6289,-4.6289,-4.6289,-4.6289,-4.6289,-4.6289,-4.6055,-4.5683,-4.5215,-4.459,-4.3613,-4.2891,-4.2402,-4.1855,-4.1387,-4.107,-4.0952,-4.0859,-4.0726,-4.0715,-4.0654,-4.0582,-4.0559,-4.0552,-4.0439,-3.9977,-3.9669,-3.9496,-3.9008,-3.8796,-3.8681,-3.8623,-3.8623,-3.8623,-3.87,-3.87,-3.8334,-3.8334,-3.818,-3.7777,-3.7353,-3.7257,-3.7488,-3.6808,-3.6385,-3.625,-3.6212,-3.6411,-3.7238,-3.8084,-3.8988,-3.9438,-3.9611,-3.9611,-3.9785,-4.015,-4.0298,-4.0167,-4.0081,-3.9859,-3.9587,-3.9358,-3.9244,-3.9099,-3.8952,-3.8777,-3.856,-3.8395,-3.8322,-3.812,-3.7951,-3.7823,-3.7621,-3.7437,-3.7309,-3.6578,-3.5701,-3.4931,-3.4192,-3.3917,-3.388,-3.3844,-3.3844,-3.3825,-3.3807,-3.3807,-3.3753,-3.348,-3.3335,-3.3151,-3.2919,-3.2697,-3.2417,-3.2109,-3.1695,-3.1312,-3.1232,-3.119,-3.119,-3.119,-3.123,-3.121,-4.6289,-4.6289,-4.6289,-4.6289,-4.6289,-4.6289,-4.6289,-4.6289,-4.6289,-4.6289,-4.6289,-4.6289,-4.6289,-4.6289,-4.6289,-4.6289,-4.6289,-4.6289,-4.6289,-4.6289,-4.6172,-4.5703,-4.5176,-4.4609,-4.3906,-4.2793,-4.2246,-4.1777,-4.1348,-4.1172,-4.1016,-4.0836,-4.0817,-4.0757,-4.0682,-4.0655,-4.0603,-4.0537,-4.03,-4.0285,-4.0285,-4.015,-4.0112,-4.015,-4.0227,-4.0323,-4.0304,-4.0112,-3.9804,-3.9246,-3.9207,-3.8969,-3.8507,-3.8104,-3.8104,-3.818,-3.7796,-3.7546,-3.7642,-3.7192,-3.7565,-3.8738,-3.9669,-4.0035,-4.0169,-4.0342,-4.0381,-4.0285,-4.0419,-4.0351,-4.0213,-4.0081,-4.0003,-3.9861,-3.969,-3.9529,-3.9339,-3.9112,-3.8933,-3.8762,-3.8634,-3.8524,-3.8487,-3.8303,-3.786,-3.7639,-3.7731,-3.7621,-3.685,-3.6009,-3.5275,-3.4614,-3.4174,-3.399,-3.3899,-3.3935,-3.4064,-3.3917,-3.3807,-3.3807,-3.3739,-3.3625,-3.348,-3.3346,-3.3105,-3.284,-3.2583,-3.2248,-3.186,-3.1408,-3.1252,-3.1487,-3.1543,-3.1562,-3.1447,-4.6289,-4.6289,-4.6289,-4.6289,-4.6289,-4.6289,-4.6289,-4.6289,-4.6289,-4.6289,-4.6289,-4.6289,-4.6289,-4.6289,-4.6289,-4.6289,-4.6289,-4.6289,-4.6289,-4.6289,-4.6211,-4.6074,-4.5683,-4.5215,-4.459,-4.3808,-4.3047,-4.2324,-4.1973,-4.1445,-4.1191,-4.1052,-4.0957,-4.0854,-4.0799,-4.0721,-4.0667,-4.0623,-4.0545,-4.0496,-4.0496,-4.0496,-4.0496,-4.0496,-4.0496,-4.0496,-4.0458,-4.0477,-4.0304,-4.0112,-4.0015,-3.9719,-3.9373,-3.9027,-3.9027,-3.9161,-3.8661,-3.8623,-3.9053,-3.8373,-3.8142,-3.9053,-3.9977,-4.0496,-4.0496,-4.0496,-4.0496,-4.0477,-4.0496,-4.0406,-4.0381,-4.0347,-4.0294,-4.0148,-3.9994,-3.984,-3.9634,-3.9389,-3.9178,-3.9036,-3.8818,-3.8652,-3.8652,-3.8652,-3.812,-3.7694,-3.7841,-3.7808,-3.7162,-3.6464,-3.5789,-3.5349,-3.4945,-3.4491,-3.4412,-3.4362,-3.4344,-3.4064,-3.3807,-3.3807,-3.3807,-3.3793,-3.3666,-3.3597,-3.3508,-3.3255,-3.3027,-3.2825,-3.2451,-3.1968,-3.1878,-3.2056,-3.2039,-3.1932,-3.1787,-4.6289,-4.6289,-4.6289,-4.6289,-4.6289,-4.6289,-4.6289,-4.6289,-4.6289,-4.6289,-4.6289,-4.6289,-4.6289,-4.6289,-4.6289,-4.6289,-4.6289,-4.6289,-4.6289,-4.6289,-4.6289,-4.6289,-4.6074,-4.5742,-4.5254,-4.4746,-4.3672,-4.2734,-4.2285,-4.1562,-4.1269,-4.1152,-4.1104,-4.0992,-4.0883,-4.0761,-4.0726,-4.0693,-4.0623,-4.0566,-4.0566,-4.0519,-4.0496,-4.0496,-4.0496,-4.0496,-4.0496,-4.0496,-4.0496,-4.0439,-4.0439,-4.0458,-4.0265,-4.0112,-4.0035,-3.9861,-3.9662,-3.94,-3.9765,-3.9688,-3.9034,-3.9765,-4.0112,-4.0458,-4.0496,-4.0496,-4.0496,-4.0496,-4.0496,-4.0496,-4.0496,-4.0465,-4.0457,-4.0319,-4.0285,-4.0148,-3.9943,-3.9712,-3.9505,-3.9301,-3.9087,-3.8859,-3.8803,-3.8803,-3.8517,-3.7985,-3.7749,-3.79,-3.7881,-3.7165,-3.645,-3.6119,-3.5881,-3.5426,-3.5023,-3.4894,-3.4656,-3.4009,-3.3807,-3.3807,-3.3807,-3.3825,-3.3825,-3.3739,-3.3666,-3.3606,-3.3476,-3.3284,-3.2934,-3.2534,-3.2484,-3.2434,-3.2333,-3.2231,-3.2196,-4.6289,-4.6289,-4.6289,-4.6289,-4.6289,-4.6289,-4.6289,-4.6289,-4.6289,-4.6289,-4.6289,-4.6289,-4.6289,-4.6289,-4.6289,-4.6289,-4.6289,-4.6289,-4.6289,-4.6289,-4.6289,-4.6289,-4.6269,-4.6074,-4.5742,-4.4961,-4.4101,-4.3301,-4.2519,-4.1797,-4.1426,-4.1211,-4.1172,-4.1126,-4.0992,-4.0864,-4.0797,-4.08,-4.0751,-4.069,-4.0648,-4.0582,-4.0537,-4.0542,-4.0504,-4.0496,-4.0496,-4.0496,-4.0496,-4.0496,-4.0496,-4.0496,-4.0439,-4.0419,-4.0381,-4.0362,-4.0381,-4.0362,-4.0458,-4.0381,-4.0304,-4.0265,-4.0439,-4.0477,-4.0496,-4.0496,-4.0496,-4.0496,-4.0496,-4.0496,-4.0496,-4.0496,-4.0496,-4.0481,-4.0441,-4.0372,-4.0167,-3.9992,-3.9754,-3.9576,-3.9333,-3.9104,-3.9017,-3.8923,-3.8788,-3.8401,-3.7893,-3.786,-3.8157,-3.7753,-3.6982,-3.6982,-3.6798,-3.6303,-3.583,-3.5389,-3.4968,-3.4247,-3.3935,-3.4082,-3.399,-3.3899,-3.388,-3.3825,-3.378,-3.3707,-3.3753,-3.3766,-3.3375,-3.2981,-3.2777,-3.2681,-3.2583,-3.2599,-3.2631,-4.6289,-4.6289,-4.6289,-4.6289,-4.6289,-4.6289,-4.6289,-4.6289,-4.6289,-4.6289,-4.6289,-4.6289,-4.6289,-4.6289,-4.6289,-4.6289,-4.6289,-4.6289,-4.6289,-4.6289,-4.6289,-4.6289,-4.6289,-4.6269,-4.6133,-4.5723,-4.498,-4.4062,-4.3281,-4.2324,-4.1641,-4.1367,-4.1191,-4.1172,-4.1105,-4.1,-4.0944,-4.0914,-4.0828,-4.0757,-4.0743,-4.067,-4.0636,-4.0636,-4.0566,-4.0508,-4.0519,-4.0519,-4.0512,-4.0496,-4.0496,-4.0496,-4.0496,-4.0496,-4.0496,-4.0496,-4.0496,-4.0496,-4.0496,-4.0458,-4.0477,-4.0496,-4.0496,-4.0496,-4.0496,-4.0496,-4.0496,-4.0496,-4.0496,-4.0496,-4.0496,-4.0496,-4.0496,-4.0496,-4.0473,-4.0465,-4.0347,-4.0158,-3.9972,-3.987,-3.9656,-3.9481,-3.9333,-3.9157,-3.9022,-3.8873,-3.8401,-3.8272,-3.8484,-3.8043,-3.7437,-3.7749,-3.7679,-3.7184,-3.6707,-3.6285,-3.5848,-3.5312,-3.4871,-3.4692,-3.4491,-3.4174,-3.3917,-3.3844,-3.3825,-3.3807,-3.3807,-3.3793,-3.3707,-3.3462,-3.324,-3.3166,-3.3211,-3.3225,-3.327,-4.6289,-4.6289,-4.6289,-4.6289,-4.6289,-4.6289,-4.6289,-4.6289,-4.6289,-4.6289,-4.6289,-4.6289,-4.6289,-4.6289,-4.6289,-4.6289,-4.6289,-4.6289,-4.6289,-4.6289,-4.6289,-4.6289,-4.6289,-4.6289,-4.625,-4.6055,-4.5469,-4.4609,-4.4062,-4.2949,-4.2012,-4.1367,-4.1191,-4.1191,-4.1152,-4.1104,-4.1077,-4.1028,-4.0955,-4.0887,-4.0839,-4.0784,-4.0736,-4.0715,-4.0659,-4.0617,-4.0582,-4.0547,-4.0526,-4.0515,-4.0504,-4.0504,-4.0496,-4.0496,-4.0496,-4.0496,-4.0496,-4.0496,-4.0496,-4.0496,-4.0496,-4.0496,-4.0496,-4.0496,-4.0496,-4.0496,-4.0496,-4.0496,-4.0496,-4.0496,-4.0496,-4.0496,-4.0496,-4.0496,-4.0489,-4.0508,-4.0457,-4.0286,-4.0223,-4.012,-3.9983,-3.9819,-3.9645,-3.9445,-3.9244,-3.9109,-3.8924,-3.884,-3.8732,-3.8282,-3.7933,-3.8157,-3.8267,-3.779,-3.7437,-3.7217,-3.678,-3.6354,-3.5917,-3.5463,-3.4912,-3.4564,-3.4211,-3.3862,-3.3844,-3.3807,-3.3807,-3.378,-3.3721,-3.3721,-3.368,-3.368,-3.3807,-3.3753,-3.3666,-4.6289,-4.6289,-4.6289,-4.6289,-4.6289,-4.6289,-4.6289,-4.6289,-4.6289,-4.6289,-4.6289,-4.6289,-4.6289,-4.6289,-4.6289,-4.6289,-4.6289,-4.6289,-4.6289,-4.6289,-4.6289,-4.6289,-4.6289,-4.6289,-4.6289,-4.6016,-4.5547,-4.5058,-4.4726,-4.2969,-4.1777,-4.1348,-4.1211,-4.1191,-4.1191,-4.1172,-4.1152,-4.1113,-4.1077,-4.1019,-4.0986,-4.0874,-4.0832,-4.0809,-4.0779,-4.0732,-4.0704,-4.0665,-4.0617,-4.0582,-4.0523,-4.0527,-4.0512,-4.0496,-4.0496,-4.0496,-4.0496,-4.0496,-4.0496,-4.0496,-4.0496,-4.0496,-4.0496,-4.0496,-4.0496,-4.0496,-4.0496,-4.0496,-4.0496,-4.0496,-4.0496,-4.0496,-4.0496,-4.0496,-4.0496,-4.0489,-4.0489,-4.0457,-4.0457,-4.0364,-4.0223,-4.0053,-3.9853,-3.966,-3.9545,-3.9432,-3.9288,-3.9122,-3.8966,-3.8701,-3.8444,-3.845,-3.8469,-3.8285,-3.8028,-3.786,-3.7661,-3.7221,-3.6684,-3.6193,-3.5605,-3.5023,-3.4601,-3.4266,-3.3935,-3.3807,-3.3807,-3.3807,-3.3807,-3.3807,-3.3807,-3.3807,-3.3807,-3.3807,-3.3766,-4.6289,-4.6289,-4.6289,-4.6289,-4.6289,-4.6289,-4.6289,-4.6289,-4.6289,-4.6289,-4.6289,-4.6289,-4.6289,-4.6289,-4.6289,-4.6289,-4.6289,-4.6289,-4.6289,-4.6289,-4.6289,-4.6289,-4.6289,-4.6289,-4.6289,-4.6211,-4.5898,-4.5293,-4.4004,-4.2461,-4.166,-4.123,-4.1191,-4.1191,-4.1191,-4.1191,-4.1191,-4.1191,-4.1152,-4.1133,-4.1094,-4.0998,-4.0959,-4.0944,-4.0867,-4.084,-4.0784,-4.077,-4.0728,-4.0708,-4.066,-4.0655,-4.063,-4.0559,-4.0496,-4.0496,-4.0496,-4.0496,-4.0496,-4.0496,-4.0496,-4.0496,-4.0496,-4.0496,-4.0496,-4.0496,-4.0496,-4.0496,-4.0496,-4.0496,-4.0496,-4.0496,-4.0496,-4.0496,-4.0496,-4.0496,-4.0496,-4.0496,-4.0496,-4.0473,-4.0339,-4.0294,-4.011,-3.9984,-3.9882,-3.9775,-3.9641,-3.9451,-3.9255,-3.898,-3.8803,-3.8773,-3.8725,-3.8552,-3.8517,-3.8377,-3.8285,-3.8083,-3.7514,-3.7015,-3.656,-3.5954,-3.5188,-3.4546,-3.4064,-3.3862,-3.3807,-3.3807,-3.3807,-3.3807,-3.3807,-3.3807,-3.3807,-3.3807,-3.3807,-4.6178,-4.6147,-4.62,-4.6247,-4.6289,-4.6289,-4.6289,-4.6289,-4.6289,-4.6289,-4.6289,-4.6289,-4.6289,-4.6289,-4.6289,-4.6289,-4.6289,-4.6289,-4.6289,-4.6289,-4.6289,-4.6289,-4.6289,-4.6289,-4.6289,-4.6289,-4.6191,-4.5781,-4.4355,-4.3027,-4.2109,-4.1191,-4.1191,-4.1211,-4.1191,-4.1191,-4.1191,-4.1191,-4.1191,-4.1211,-4.1172,-4.1133,-4.1094,-4.1055,-4.0976,-4.0928,-4.0877,-4.0877,-4.086,-4.0809,-4.0747,-4.0752,-4.0722,-4.0665,-4.0597,-4.0597,-4.0582,-4.0552,-4.0519,-4.0496,-4.0496,-4.0496,-4.0496,-4.0496,-4.0496,-4.0496,-4.0496,-4.0496,-4.0496,-4.0496,-4.0496,-4.0496,-4.0496,-4.0496,-4.0496,-4.0496,-4.0496,-4.0496,-4.0496,-4.0496,-4.0481,-4.0481,-4.0397,-4.0313,-4.0186,-4.0003,-3.9851,-3.972,-3.9548,-3.9327,-3.9082,-3.8961,-3.8913,-3.8832,-3.8803,-3.8735,-3.8594,-3.8465,-3.8285,-3.7808,-3.7441,-3.656,-3.5514,-3.4724,-3.4064,-3.3935,-3.3807,-3.3807,-3.3807,-3.3807,-3.3807,-3.3807,-3.3807,-3.3807,-3.3807,-4.6024,-4.5935,-4.6017,-4.6147,-4.6267,-4.625,-4.625,-4.6268,-4.625,-4.6269,-4.6289,-4.6289,-4.6289,-4.6289,-4.6289,-4.6289,-4.6289,-4.6289,-4.6289,-4.6289,-4.6289,-4.6289,-4.6289,-4.6289,-4.6289,-4.6289,-4.6211,-4.5996,-4.5625,-4.4258,-4.2598,-4.1426,-4.1387,-4.1543,-4.1797,-4.1543,-4.1543,-4.1562,-4.1641,-4.168,-4.1289,-4.1191,-4.1191,-4.1191,-4.1172,-4.1128,-4.1031,-4.0994,-4.0959,-4.0874,-4.0836,-4.0832,-4.0781,-4.0773,-4.0747,-4.0726,-4.0701,-4.0654,-4.059,-4.0561,-4.0537,-4.0523,-4.0504,-4.0496,-4.0496,-4.0496,-4.0496,-4.0496,-4.0496,-4.0496,-4.0496,-4.0496,-4.0496,-4.0496,-4.0496,-4.0496,-4.0496,-4.0496,-4.0496,-4.0496,-4.0496,-4.0496,-4.0489,-4.0372,-4.0347,-4.0204,-4.011,-3.9993,-3.9882,-3.9701,-3.945,-3.9231,-3.9171,-3.91,-3.8898,-3.8815,-3.8765,-3.868,-3.8609,-3.8432,-3.7936,-3.6909,-3.5697,-3.4798,-3.3935,-3.388,-3.3807,-3.3807,-3.3807,-3.3807,-3.3807,-3.3807,-3.3807,-3.3807,-3.3807,-4.5924,-4.5903,-4.5928,-4.5974,-4.5972,-4.5992,-4.5995,-4.5992,-4.5995,-4.6115,-4.6269,-4.6289,-4.6289,-4.6289,-4.6289,-4.6289,-4.6289,-4.6289,-4.6289,-4.6289,-4.6289,-4.6289,-4.6289,-4.6289,-4.6289,-4.6289,-4.623,-4.5996,-4.5312,-4.4316,-4.3613,-4.3027,-4.2558,-4.2324,-4.2773,-4.2461,-4.2148,-4.2148,-4.2519,-4.2226,-4.1562,-4.1289,-4.1191,-4.1191,-4.1191,-4.1191,-4.1133,-4.1133,-4.1133,-4.1103,-4.0994,-4.0914,-4.0805,-4.0805,-4.0789,-4.0764,-4.0794,-4.0767,-4.0707,-4.0641,-4.0636,-4.0596,-4.0574,-4.0527,-4.0496,-4.0496,-4.0496,-4.0496,-4.0496,-4.0496,-4.0496,-4.0496,-4.0496,-4.0496,-4.0496,-4.0496,-4.0496,-4.0496,-4.0496,-4.0496,-4.0496,-4.0496,-4.0496,-4.0489,-4.0465,-4.0449,-4.0433,-4.0372,-4.0319,-4.0175,-3.9894,-3.9671,-3.9529,-3.9383,-3.9131,-3.9004,-3.8994,-3.8862,-3.8766,-3.8596,-3.8355,-3.7276,-3.6064,-3.4706,-3.3825,-3.388,-3.3899,-3.3807,-3.3807,-3.3807,-3.3807,-3.3807,-3.3807,-3.3807,-3.3807,-4.5817,-4.5783,-4.5828,-4.5872,-4.5894,-4.5899,-4.5899,-4.5899,-4.5899,-4.5981,-4.6113,-4.6119,-4.6149,-4.62,-4.6221,-4.6268,-4.6289,-4.6289,-4.6289,-4.6289,-4.6289,-4.6289,-4.6289,-4.6289,-4.6289,-4.6289,-4.625,-4.5879,-4.5098,-4.4629,-4.4199,-4.3789,-4.3242,-4.3223,-4.3672,-4.3203,-4.2969,-4.3008,-4.3555,-4.3125,-4.2168,-4.1953,-4.1504,-4.1406,-4.1191,-4.1191,-4.1191,-4.1191,-4.1191,-4.1191,-4.1106,-4.106,-4.1,-4.1016,-4.0957,-4.0914,-4.0896,-4.0864,-4.0813,-4.0757,-4.0726,-4.0667,-4.0595,-4.0512,-4.0496,-4.0496,-4.0496,-4.0496,-4.0496,-4.0496,-4.0496,-4.0496,-4.0496,-4.0496,-4.0496,-4.0496,-4.0496,-4.0496,-4.0496,-4.0496,-4.0496,-4.0496,-4.0496,-4.0496,-4.0481,-4.0481,-4.0489,-4.0489,-4.0496,-4.0496,-4.0257,-4.0072,-3.9913,-3.9679,-3.942,-3.932,-3.9314,-3.9154,-3.8942,-3.8483,-3.8077,-3.7393,-3.6431,-3.5147,-3.4284,-3.4119,-3.41,-3.3935,-3.3825,-3.3807,-3.3807,-3.3807,-3.3807,-3.3807,-3.3807,-4.5715,-4.5618,-4.5718,-4.5808,-4.5862,-4.5867,-4.5842,-4.5862,-4.5867,-4.5842,-4.5872,-4.5872,-4.5952,-4.6039,-4.6101,-4.6174,-4.623,-4.623,-4.625,-4.6289,-4.6289,-4.6289,-4.6289,-4.6289,-4.6289,-4.6289,-4.6269,-4.5898,-4.5351,-4.5117,-4.4824,-4.4141,-4.3945,-4.3945,-4.3965,-4.3906,-4.3867,-4.3945,-4.4121,-4.3965,-4.3437,-4.2871,-4.2109,-4.1562,-4.123,-4.1211,-4.1191,-4.1191,-4.1191,-4.1191,-4.1172,-4.1152,-4.1152,-4.1133,-4.1103,-4.1052,-4.1044,-4.0986,-4.0902,-4.0824,-4.0767,-4.0696,-4.0589,-4.0542,-4.0515,-4.0512,-4.0512,-4.0504,-4.0504,-4.0496,-4.0496,-4.0496,-4.0496,-4.0496,-4.0496,-4.0496,-4.0496,-4.0496,-4.0496,-4.0496,-4.0496,-4.0496,-4.0496,-4.0496,-4.0496,-4.0496,-4.0496,-4.0496,-4.0496,-4.0496,-4.0397,-4.0302,-4.0203,-3.9964,-3.9712,-3.9645,-3.9634,-3.9371,-3.9107,-3.8442,-3.787,-3.7478,-3.6799,-3.5716,-3.5018,-3.4637,-3.4247,-3.4009,-3.3917,-3.3825,-3.3807,-3.3807,-3.3807,-3.3807,-3.3807,-4.5637,-4.5594,-4.5627,-4.5648,-4.565,-4.5669,-4.5642,-4.5661,-4.5677,-4.5661,-4.5673,-4.5681,-4.5757,-4.5932,-4.5932,-4.6021,-4.6136,-4.6124,-4.6223,-4.6289,-4.6269,-4.6289,-4.6289,-4.6289,-4.6289,-4.6289,-4.6289,-4.6172,-4.582,-4.5879,-4.5957,-4.5625,-4.4902,-4.5039,-4.5566,-4.5293,-4.4766,-4.4863,-4.5078,-4.5098,-4.3789,-4.3144,-4.25,-4.1973,-4.1523,-4.1328,-4.1191,-4.1191,-4.1191,-4.1191,-4.1191,-4.1191,-4.1191,-4.1191,-4.1172,-4.1152,-4.1133,-4.1133,-4.1035,-4.0937,-4.0873,-4.0799,-4.069,-4.061,-4.0577,-4.0533,-4.0545,-4.0515,-4.0508,-4.0512,-4.0512,-4.0496,-4.0496,-4.0496,-4.0496,-4.0496,-4.0496,-4.0496,-4.0496,-4.0496,-4.0496,-4.0496,-4.0496,-4.0496,-4.0496,-4.0496,-4.0496,-4.0496,-4.0496,-4.0496,-4.0496,-4.0465,-4.0425,-4.0295,-4.0052,-3.9993,-3.9932,-3.9645,-3.9314,-3.8745,-3.8248,-3.7872,-3.7123,-3.6246,-3.5569,-3.5078,-3.4674,-3.4247,-3.3954,-3.3862,-3.3825,-3.3807,-3.3807,-3.3807,-3.3807]},{"header":{"parameterUnit":"m.s-1","parameterCategory":1,"la1":31.0,"la2":29.5877,"lo1":-88.7671,"lo2":-86.6584,"dy":0.0162,"dx":0.0185,"nx":115,"ny":88,"refTime":"2024-07-05T12:00:00:Z","depth":0,"parameterNumber":3,"parameterNumberName":"V-component_of_WINDS"},"data":[0.0,0.0,0.0,0.0,0.0,0.0,0.0,0.0,0.0,0.0,0.0,0.0,0.0,0.0,0.0,0.0,0.0,0.0,0.0,0.0,0.0,0.0,0.0,0.0,0.0,0.0,0.0,0.0,0.0,0.0,0.0,0.0,0.0,0.0,0.0,0.0,0.0,0.0,0.0,0.0,0.0,0.0,0.0,0.0,0.0,0.0,0.0,0.0,0.0,0.0,0.0,0.0,0.0,0.0,0.0,0.0,0.0,0.0,0.0,0.0,0.0,0.0,0.0,0.0,0.0,0.0,0.0,0.0,0.0,0.0,0.0,0.0,0.0,0.0,0.0,0.0,0.0,0.0,0.0,0.0,0.0,0.0,0.0,0.0,0.0,0.0,0.0,0.0,0.0,0.0,0.0,0.0,0.0,0.0,0.0,0.0,0.0,0.0,0.0,0.0,0.0,0.0,0.0,0.0,0.0,0.0,0.0,0.0,0.0,0.0,0.0,0.0,0.0,0.0,0.0,0.0,0.0,0.0,0.0,0.0,0.0,0.0,0.0,0.0,0.0,0.0,0.0,0.0,0.0,0.0,0.0,0.0,0.0,0.0,0.0,0.0,0.0,0.0,0.0,0.0,0.0,0.0,0.0,0.0,0.0,0.0,0.0,0.0,0.0,0.0,0.0,0.0,0.0,0.0,0.0,0.0,0.0,0.0,0.0,0.0,0.0,0.0,0.0,0.0,0.0,0.0,0.0,0.0,0.0,0.0,0.0,0.0,0.0,0.0,0.0,0.0,0.0,0.0,0.0,0.0,0.0,0.0,0.0,0.0,0.0,0.0,0.0,0.0,0.0,0.0,0.0,0.0,0.0,0.0,0.0,0.0,0.0,0.0,0.0,0.0,0.0,0.0,0.0,0.0,0.0,0.0,0.0,0.0,0.0,0.0,0.0,0.0,0.0,0.0,0.0,0.0,0.0,0.0,0.0,0.0,0.0,0.0,0.0,0.0,0.0,0.0,0.0,0.0,0.0,0.0,0.0,0.0,0.0,0.0,0.0,0.0,0.0,0.0,0.0,0.0,0.0,0.0,0.0,0.0,0.0,0.0,0.0,0.0,0.0,0.0,0.0,0.0,0.0,0.0,0.0,0.0,0.0,0.0,0.0,0.0,0.0,0.0,0.0,0.0,0.0,0.0,0.0,0.0,0.0,0.0,0.0,0.0,0.0,0.0,0.0,0.0,0.0,0.0,0.0,0.0,0.0,0.0,0.0,0.0,0.0,0.0,0.0,0.0,0.0,0.0,0.0,0.0,0.0,0.0,0.0,0.0,0.0,0.0,0.0,0.0,0.0,0.0,0.0,0.0,0.0,0.0,0.0,0.0,0.0,0.0,0.0,0.0,0.0,0.0,0.0,0.0,0.0,0.0,0.0,0.0,0.0,0.0,0.0,0.0,0.0,0.0,0.0,0.0,0.0,0.0,0.0,0.0,0.0,0.0,0.0,0.0,0.0,0.0,0.0,0.0,0.0,0.0,0.0,0.0,0.0,0.0,0.0,0.0,0.0,0.0,0.0,0.0,0.0,0.0,0.0,0.0,0.0,0.0,0.0,0.0,0.0,0.0,0.0,0.0,0.0,0.0,0.0,0.0,0.0,0.0,0.0,0.0,0.0,0.0,0.0,0.0,0.0,0.0,0.0,0.0,0.0,0.0,0.0,0.0,0.0,0.0,0.0,0.0,0.0,0.0,0.0,0.0,0.0,0.0,0.0,0.0,0.0,0.0,0.0,0.0,0.0,0.0,0.0,0.0,0.0,0.0,0.0,0.0,0.0,0.0,0.0,0.0,0.0,0.0,0.0,0.0,0.0,0.0,0.0,0.0,0.0,0.0,0.0,0.0,0.0,0.0,0.0,0.0,0.0,0.0,0.0,0.0,0.0,0.0,0.0,0.0,0.0,0.0,0.0,0.0,0.0,0.0,0.0,0.0,0.0,0.0,0.0,0.0,0.0,0.0,0.0,0.0,0.0,0.0,0.0,0.0,0.0,0.0,0.0,0.0,0.0,0.0,0.0,0.0,0.0,0.0,0.0,0.0,0.0,0.0,0.0,0.0,0.0,0.0,0.0,0.0,0.0,0.0,0.0,0.0,0.0,0.0,0.0,0.0,0.0,0.0,0.0,0.0,0.0,0.0,0.0,0.0,0.0,0.0,0.0,0.0,0.0,0.0,0.0,0.0,0.0,0.0,0.0,0.0,0.0,0.0,0.0,0.0,0.0,0.0,0.0,0.0,0.0,0.0,0.0,0.0,0.0,0.0,0.0,0.0,0.0,0.0,0.0,0.0,0.0,0.0,0.0,0.0,0.0,0.0,0.0,0.0,0.0,0.0,0.0,0.0,0.0,0.0,0.0,0.0,0.0,0.0,0.0,0.0,0.0,0.0,0.0,0.0,0.0,0.0,0.0,0.0,0.0,0.0,0.0,0.0,0.0,0.0,0.0,0.0,0.0,0.0,0.0,0.0,0.0,0.0,0.0,0.0,0.0,0.0,0.0,0.0,0.0,0.0,0.0,0.0,0.0,0.0,0.0,0.0,0.0,0.0,0.0,0.0,0.0,0.0,0.0,0.0,0.0,0.0,0.0,0.0,0.0,0.0,0.0,0.0,0.0,0.0,0.0,0.0,0.0,0.0,0.0,0.0,0.0,0.0,0.0,0.0,0.0,0.0,0.0,0.0,0.0,0.0,0.0,0.0,0.0,0.0,0.0,0.0,0.0,0.0,0.0,0.0,0.0,0.0,0.0,0.0,0.0,0.0,0.0,0.0,0.0,0.0,0.0,0.0,0.0,0.0,0.0,0.0,0.0,0.0,0.0,0.0,0.0,0.0,0.0,0.0,0.0,0.0,0.0,0.0,0.0,0.0,0.0,0.0,0.0,0.0,0.0,0.0,0.0,0.0,0.0,0.0,0.0,0.0,0.0,0.0,0.0,0.0,0.0,0.0,0.0,0.0,0.0,0.0,0.0,0.0,0.0,0.0,0.0,0.0,0.0,0.0,0.0,0.0,0.0,0.0,0.0,0.0,0.0,0.0,0.0,0.0,0.0,0.0,0.0,0.0,0.0,0.0,0.0,0.0,0.0,0.0,0.0,0.0,0.0,0.0,0.0,0.0,0.0,0.0,0.0,0.0,0.0,0.0,0.0,0.0,0.0,0.0,0.0,0.0,0.0,0.0,0.0,0.0,0.0,0.0,0.0,0.0,0.0,0.0,0.0,0.0,0.0,0.0,0.0,0.0,0.0,0.0,0.0,0.0,0.0,0.0,0.0,0.0,0.0,0.0,0.0,0.0,0.0,0.0,0.0,0.0,0.0,0.0,0.0,0.0,0.0,0.0,0.0,0.0,0.0,0.0,0.0,0.0,0.0,0.0,0.0,0.0,0.0,0.0,0.0,0.0,0.0,0.0,0.0,0.0,0.0,0.0,0.0,0.0,0.0,0.0,0.0,0.0,0.0,0.0,0.0,0.0,0.0,0.0,0.0,0.0,0.0,0.0,0.0,0.0,0.0,0.0,0.0,0.0,0.0,0.0,0.0,0.0,0.0,0.0,0.0,0.0,0.0,0.0,0.0,0.0,0.0,0.0,0.0,0.0,0.0,0.0,0.0,0.0,0.0,0.0,0.0,0.0,0.0,0.0,0.0,0.0,0.0,0.0,0.0,0.0,0.0,0.0,0.0,0.0,0.0,0.0,0.0,0.0,0.0,0.0,0.0,0.0,0.0,0.0,0.0,0.0,0.0,0.0,0.0,0.0,0.0,0.0,0.0,0.0,0.0,0.0,0.0,0.0,0.0,0.0,0.0,0.0,0.0,0.0,0.0,0.0,0.0,0.0,0.0,0.0,0.0,0.0,0.0,0.0,0.0,0.0,0.0,0.0,0.0,0.0,0.0,0.0,0.0,0.0,0.0,0.0,0.0,0.0,0.0,0.0,0.0,0.0,0.0,0.0,0.0,0.0,0.0,0.0,0.0,0.0,0.0,0.0,0.0,0.0,0.0,0.0,0.0,0.0,0.0,0.0,0.0,0.0,0.0,0.0,0.0,0.0,0.0,0.0,0.0,0.0,0.0,0.0,0.0,0.0,0.0,0.0,0.0,0.0,0.0,0.0,0.0,0.0,0.0,0.0,0.0,0.0,0.0,0.0,0.0,0.0,0.0,0.0,0.0,0.0,0.0,0.0,0.0,0.0,0.0,0.0,0.0,0.0,0.0,0.0,0.0,0.0,0.0,0.0,0.0,0.0,0.0,0.0,0.0,0.0,0.0,0.0,0.0,0.0,0.0,0.0,0.0,0.0,0.0,0.0,0.0,0.0,0.0,0.0,0.0,0.0,0.0,0.0,0.0,0.0,0.0,0.0,0.0,0.0,0.0,0.0,0.0,0.0,0.0,0.0,0.0,0.0,0.0,0.0,0.0,0.0,0.0,0.0,0.0,0.0,0.0,0.0,0.0,0.0,0.0,0.0,0.0,0.0,0.0,0.0,0.0,0.0,0.0,0.0,0.0,0.0,0.0,0.0,0.0,0.0,0.0,0.0,0.0,0.0,0.0,0.0,0.0,0.0,0.0,0.0,0.0,0.0,0.0,0.0,0.0,0.0,0.0,0.0,0.0,0.0,0.0,0.0,0.0,0.0,0.0,0.0,0.0,0.0,0.0,0.0,0.0,0.0,0.0,0.0,0.0,0.0,0.0,0.0,0.0,0.0,0.0,0.0,0.0,0.0,0.0,0.0,0.0,0.0,0.0,0.0,0.0,0.0,0.0,0.0,0.0,0.0,0.0,0.0,0.0,0.0,0.0,0.0,0.0,0.0,0.0,0.0,0.0,0.0,0.0,0.0,0.0,0.0,0.0,0.0,0.0,0.0,0.0,0.0,0.0,0.0,0.0,0.0,0.0,0.0,0.0,0.0,0.0,0.0,0.0,0.0,0.0,0.0,0.0,0.0,0.0,0.0,0.0,0.0,0.0,0.0,0.0,0.0,0.0,0.0,0.0,0.0,0.0,0.0,0.0,0.0,0.0,0.0,0.0,0.0,0.0,0.0,0.0,0.0,0.0,0.0,0.0,0.0,0.0,0.0,0.0,0.0,0.0,0.0,0.0,0.0,0.0,0.0,0.0,0.0,0.0,0.0,0.0,0.0,0.0,0.0,0.0,0.0,0.0,0.0,0.0,0.0,0.0,0.0,0.0,0.0,0.0,0.0,0.0,0.0,0.0,0.0,0.0,0.0,0.0,0.0,0.0,0.0,0.0,0.0,0.0,0.0,-0.0085,0.0,0.0,0.0,0.0,0.0,0.0,0.0,0.0,0.0,0.0,0.0,0.0,0.0,0.0,0.0,0.0,0.0,0.0,0.0,0.0,0.0,0.0,0.0,0.0,0.0,0.0,0.0,0.0,0.0,0.0,0.0,0.0,0.0,0.0,0.0,0.0,0.0,0.0,0.0,0.0,0.0,0.0,0.0,0.0,0.0,0.0,0.0,0.0,0.0,0.0,0.0,0.0,0.0,0.0,0.0,0.0,0.0,0.0,0.0,0.0,0.0,0.0,0.0,0.0,0.0,0.0,0.0,0.0,0.0,0.0,0.0,0.0,0.0,0.0,0.0,0.0,0.0,0.0,0.0,0.0,0.0,0.0,0.0,0.0,0.0,0.0,0.0,0.0,0.0,0.0,0.0,0.0,0.0,0.0,0.0,0.0,0.0,0.0,0.0,0.0,0.0,0.0,0.0,0.0,0.0,0.0,0.0,0.0,0.0,0.0,0.0,0.0,-0.0568,-0.0966,-0.0358,0.0,0.0,0.0,0.0,0.0,0.0,0.0,0.0,0.0,0.0,0.0,0.0,0.0,0.0,0.0,0.0,0.0,0.0,0.0,0.0,0.0,0.0,0.0,0.0,0.0,0.0,0.0,0.0,0.0,0.0,0.0,0.0,0.0,0.0,0.0,0.0,0.0,0.0,0.0,0.0,0.0,0.0,0.0,0.0,0.0,0.0,0.0,0.0,0.0,0.0,0.0,0.0,0.0,0.0,0.0,0.0,0.0,0.0,0.0,0.0,0.0,0.0,0.0,0.0,0.0,0.0,0.0,0.0,0.0,0.0,0.0,0.0,0.0,0.0,0.0,0.0,0.0,0.0,0.0,0.0,0.0,0.0,0.0,0.0,0.0,0.0,0.0,0.0,0.0,0.0,0.0,0.0,0.0,0.0,0.0,0.0,0.0,0.0,0.0,0.0,0.0,0.0,0.0,0.0,0.0,0.0,0.0,0.0,0.0,0.0,0.0,0.0,0.0,-0.1392,-0.0907,-0.0446,0.0,0.0,0.0,0.0,0.0,0.0,0.0,0.0,0.0,0.0,0.0,0.0,0.0,0.0,0.0,0.0,0.0,0.0,0.0,0.0,0.0,0.0,0.0,0.0,0.0,0.0,0.0,0.0,0.0,0.0,0.0,0.0,0.0,0.0,0.0,0.0,0.0,0.0,0.0,0.0,0.0,0.0,0.0,0.0,0.0,0.0,0.0,0.0,0.0,0.0,0.0,0.0,0.0,0.0,0.0,0.0,0.0,0.0,0.0,0.0,0.0,0.0,0.0,0.0,0.0,0.0,0.0,0.0,0.0,0.0,0.0,0.0,0.0,0.0,0.0,0.0,0.0,0.0,0.0,0.0,0.0,0.0,0.0,0.0,0.0,0.0,0.0,0.0,0.0,0.0,0.0,0.0,0.0,0.0,0.0,0.0,0.0,0.0,0.0,0.0,0.0,0.0,0.0,0.0,0.0,0.0,0.0,0.0,0.0,0.0,-0.1603,0.0,-0.1449,-0.1108,-0.0616,0.0,0.0,0.0,0.0,0.0,0.0,0.0,0.0,0.0,0.0,0.0,0.0,0.0,0.0,0.0,0.0,0.0,0.0,0.0,0.0,0.0,0.0,0.0,0.0,0.0,0.0,0.0,0.0,0.0,0.0,0.0,0.0,0.0,0.0,0.0,0.0,0.0,0.0,0.0,0.0,0.0,0.0,0.0,0.0,0.0,0.0,0.0,0.0,0.0,0.0,0.0,0.0,0.0,0.0,0.0,0.0,0.0,0.0,0.0,0.0,0.0,0.0,0.0,0.0,0.0,0.0,0.0,0.0,0.0,0.0,0.0,0.0,0.0,0.0,0.0,0.0,0.0,0.0,0.0,0.0,0.0,0.0,0.0,0.0,0.0,0.0,0.0,0.0,0.0,0.0,0.0,0.0,0.0,0.0,0.0,0.0,0.0,0.0,0.0,0.0,0.0,0.0,0.0,0.0,0.0,0.0,0.0,0.0,0.0,0.0,-0.2197,-0.1698,-0.1175,-0.0679,-0.0291,0.0,0.0,0.0,0.0,0.0,0.0,0.0,0.0,0.0,0.0,0.0,0.0,0.0,0.0,0.0,0.0,0.0,0.0,0.0,0.0,0.0,0.0,0.0,0.0,0.0,0.0,0.0,0.0,0.0,0.0,0.0,0.0,0.0,0.0,0.0,0.0,0.0,0.0,0.0,0.0,0.0,0.0,0.0,0.0,0.0,0.0,0.0,0.0,0.0,0.0,0.0,0.0,0.0,0.0,0.0,0.0,0.0,0.0,0.0,0.0,0.0,0.0,0.0,0.0,0.0,0.0,0.0,0.0,0.0,0.0,0.0,0.0,0.0,0.0,0.0,0.0,0.0,0.0,0.0,0.0,0.0,0.0,0.0,0.0,0.0,0.0,0.0,0.0,0.0,0.0,0.0,0.0,0.0,0.0,0.0,0.0,0.0,0.0,0.0,0.0,0.0,0.0,0.0,0.0,0.0,0.0,0.0,0.0,0.0,-0.2109,-0.2251,-0.2265,-0.2118,-0.1672,-0.1294,0.0,0.0,0.0,0.0,0.0,0.0,0.0,0.0,0.0,0.0,0.0,0.0,0.0,0.0,0.0,0.0,0.0,0.0,0.0,0.0,0.0,0.0,0.0,0.0,0.0,0.0,0.0,0.0,0.0,0.0,0.0,0.0,0.0,0.0,0.0,0.0,0.0,0.0,0.0,0.0,0.0,0.0,0.0,0.0,0.0,0.0,0.0,0.0,0.0,0.0,0.0,0.0,0.0,0.0,0.0,0.0,0.0,0.0,0.0,0.0,0.0,0.0,0.0,0.0,0.0,0.0,0.0,0.0,0.0,0.0,0.0,0.0,0.0,0.0,0.0,0.0,0.0,0.0,0.0,0.0,0.0,0.0,0.0,0.0,0.0,0.0,0.0,0.0,0.0,0.0,0.0,0.0,0.0,0.0,0.0,0.0,0.0,0.0,0.0,0.0,0.0,0.0,0.0,0.0,0.0,0.0,0.0,0.0,0.0,-0.2228,0.0,-0.2837,0.0,-0.2243,-0.1811,0.0,0.0,0.0,0.0,0.0,0.0,0.0,0.0,0.0,0.0,0.0,0.0,0.0,0.0,0.0,0.0,0.0,0.0,0.0,0.0,0.0,0.0,0.0,0.0,0.0,0.0,0.0,0.0,0.0,0.0,0.0,0.0,0.0,0.0,0.0,0.0,0.0,0.0,0.0,0.0,0.0,0.0,0.0,0.0,0.0,0.0,0.0,0.0,0.0,0.0,0.0,0.0,0.0,0.0,0.0,0.0,0.0,0.0,0.0,0.0,0.0,0.0,0.0,0.0,0.0,0.0,0.0,0.0,0.0,0.0,0.0,0.0,0.0,0.0,0.0,0.0,0.0,0.0,0.0,0.0,0.0,0.0,0.0,0.0,0.0,0.0,0.0,0.0,0.0,0.0,0.0,0.0,0.0,0.0,0.0,0.0,0.0,0.0,0.0,0.0,0.0,0.0,0.0,0.0,0.0,0.0,0.0,0.0,-0.2242,-0.3047,-0.3492,-0.3406,-0.273,-0.2277,-0.1703,0.0,0.0,0.0,0.0,0.0,0.0,0.0,0.0,0.0,0.0,0.0,0.0,0.0,0.0,0.0,0.0,0.0,0.0,0.0,0.0,0.0,0.0,0.0,0.0,0.0,0.0,0.0,0.0,0.0,0.0,0.0,0.0,0.0,0.0,0.0,0.0,0.0,0.0,0.0,0.0,0.0,0.0,0.0,0.0,0.0,0.0,0.0,0.0,0.0,0.0,0.0,0.0,0.0,0.0,0.0,0.0,0.0,0.0,0.0,0.0,0.0,0.0,0.0,0.0,0.0,0.0,0.0,0.0,0.0,0.0,0.0,0.0,0.0,0.0,0.0,0.0,0.0,0.0,0.0,0.0,0.0,0.0,0.0,0.0,0.0,0.0,0.0,0.0,0.0,0.0,0.0,0.0,0.0,0.0,0.0,0.0,0.0,0.0,0.0,0.0,0.0,0.0,0.0,0.0,0.0,0.0,0.0,0.0,0.0,-0.2822,-0.3131,-0.3366,-0.3426,-0.2832,-0.2468,0.0,0.0,0.0,0.0,0.0,0.0,0.0,0.0,0.0,0.0,0.0,0.0,0.0,0.0,0.0,0.0,0.0,0.0,0.0,0.0,0.0,0.0,0.0,0.0,0.0,0.0,0.0,0.0,0.0,0.0,0.0,0.0,0.0,0.0,0.0,0.0,0.0,0.0,0.0,0.0,0.0,0.0,0.0,0.0,0.0,0.0,0.0,0.0,0.0,0.0,0.0,0.0,0.0,0.0,0.0,0.0,0.0,0.0,0.0,0.0,0.0,0.0,0.0,0.0,0.0,0.0,0.0,0.0,0.0,0.0,0.0,0.0,0.0,0.0,0.0,0.0,0.0,0.0,0.0,0.0,0.0,0.0,0.0,0.0,0.0,0.0,0.0,0.0,0.0,0.0,0.0,0.0,0.0,0.0,0.0,0.0,0.0,0.0,0.0,0.0,0.0,0.0,0.0,0.0,0.0,0.0,0.0,0.0,0.0,-0.3276,-0.3497,-0.3673,-0.3812,-0.3229,-0.291,-0.288,0.0,0.0,0.0,0.0,0.0,0.0,0.0,0.0,0.0,0.0,0.0,0.0,0.0,0.0,0.0,0.0,0.0,0.0,0.0,0.0,0.0,0.0,0.0,0.0,0.0,0.0,0.0,0.0,0.0,0.0,0.0,0.0,0.0,0.0,0.0,0.0,0.0,0.0,0.0,0.0,0.0,0.0,0.0,0.0,0.0,0.0,0.0,0.0,0.0,0.0,0.0,0.0,0.0,0.0,0.0,0.0,0.0,0.0,0.0,0.0,0.0,0.0,0.0,0.0,0.0,0.0,0.0,0.0,0.0,0.0,0.0,0.0,0.0,0.0,0.0,0.0,0.0,0.0,0.0,0.0,0.0,0.0,0.0,0.0,0.0,0.0,0.0,0.0,0.0,0.0,0.0,0.0,0.0,0.0,0.0,0.0,0.0,0.0,0.0,0.0,0.0,0.0,0.0,0.0,0.0,0.0,0.0,0.0,-0.4187,-0.4395,-0.4293,-0.3883,-0.3516,-0.3081,0.0,0.0,0.0,0.0,0.0,0.0,0.0,0.0,0.0,0.0,0.0,0.0,0.0,0.0,0.0,0.0,0.0,0.0,0.0,0.0,0.0,0.0,0.0,0.0,0.0,0.0,0.0,0.0,0.0,0.0,0.0,0.0,0.0,0.0,0.0,0.0,0.0,0.0,0.0,0.0,0.0,0.0,0.0,0.0,0.0,0.0,0.0,0.0,0.0,0.0,0.0,0.0,0.0,0.0,0.0,0.0,0.0,0.0,0.0,0.0,0.0,0.0,0.0,0.0,0.0,0.0,0.0,0.0,0.0,0.0,0.0,0.0,0.0,0.0,0.0,0.0,0.0,0.0,0.0,0.0,0.0,0.0,0.0,0.0,0.0,0.0,0.0,0.0,0.0,0.0,0.0,0.0,0.0,0.0,0.0,0.0,0.0,0.0,0.0,0.0,0.0,0.0,0.0,0.0,0.0,0.0,0.0,0.0,0.0,-0.418,-0.4501,-0.4604,-0.445,-0.3948,-0.3478,0.0,0.0,0.0,0.0,0.0,0.0,0.0,0.0,0.0,0.0,0.0,0.0,0.0,0.0,0.0,0.0,0.0,0.0,0.0,0.0,0.0,0.0,0.0,0.0,0.0,0.0,0.0,0.0,0.0,0.0,0.0,0.0,0.0,0.0,0.0,0.0,0.0,0.0,0.0,0.0,0.0,0.0,0.0,0.0,0.0,0.0,0.0,0.0,0.0,0.0,0.0,0.0,0.0,0.0,0.0,0.0,0.0,0.0,0.0,0.0,0.0,0.0,0.0,0.0,0.0,0.0,0.0,0.0,0.0,0.0,0.0,0.0,0.0,0.0,0.0,0.0,0.0,0.0,0.0,0.0,0.0,0.0,0.0,0.0,0.0,0.0,0.0,0.0,0.0,0.0,0.0,0.0,0.0,0.0,0.0,0.0,0.0,0.0,0.0,0.0,0.0,0.0,0.0,0.0,0.0,0.0,0.0,0.0,-0.4016,-0.4462,-0.4668,-0.4785,-0.4789,-0.4267,-0.3782,0.0,0.0,0.0,0.0,0.0,0.0,0.0,0.0,0.0,0.0,0.0,0.0,0.0,0.0,0.0,0.0,0.0,0.0,0.0,0.0,0.0,0.0,0.0,0.0,0.0,0.0,0.0,0.0,0.0,0.0,0.0,0.0,0.0,0.0,0.0,0.0,0.0,0.0,0.0,0.0,0.0,0.0,0.0,0.0,0.0,0.0,0.0,0.0,0.0,0.0,0.0,0.0,0.0,0.0,0.0,0.0,0.0,0.0,0.0,0.0,0.0,0.0,0.0,0.0,0.0,0.0,0.0,0.0,0.0,0.0,0.0,0.0,0.0,0.0,0.0,0.0,0.0,0.0,0.0,0.0,0.0,0.0,0.0,0.0,0.0,0.0,0.0,0.0,0.0,0.0,0.0,0.0,0.0,0.0,0.0,0.0,0.0,0.0,0.0,0.0,0.0,0.0,0.0,0.0,0.0,0.0,0.0,0.0,-0.4291,-0.4847,-0.4928,-0.4901,-0.4908,-0.4469,-0.3995,0.0,0.0,0.0,0.0,0.0,0.0,0.0,0.0,0.0,0.0,0.0,0.0,0.0,0.0,0.0,0.0,0.0,0.0,0.0,0.0,0.0,0.0,0.0,0.0,0.0,0.0,0.0,0.0,0.0,0.0,0.0,0.0,0.0,0.0,0.0,0.0,0.0,0.0,0.0,0.0,0.0,0.0,0.0,0.0,0.0,0.0,0.0,0.0,0.0,0.0,0.0,0.0,0.0,0.0,0.0,0.0,0.0,0.0,0.0,0.0,0.0,0.0,0.0,0.0,0.0,0.0,0.0,0.0,0.0,0.0,0.0,0.0,0.0,0.0,0.0,0.0,0.0,0.0,0.0,0.0,0.0,0.0,0.0,0.0,0.0,0.0,0.0,0.0,0.0,0.0,0.0,0.0,0.0,0.0,0.0,0.0,0.0,0.0,0.0,0.0,0.0,0.0,0.0,0.0,0.0,0.0,0.0,0.0,-0.4345,-0.4728,-0.4935,-0.5002,-0.4891,-0.4592,-0.4218,0.0,0.0,0.0,0.0,0.0,0.0,0.0,0.0,0.0,0.0,0.0,0.0,0.0,0.0,0.0,0.0,0.0,0.0,0.0,0.0,0.0,0.0,0.0,0.0,0.0,0.0,0.0,0.0,0.0,0.0,0.0,0.0,0.0,0.0,0.0,0.0,0.0,0.0,0.0,0.0,0.0,0.0,0.0,0.0,0.0,0.0,0.0,0.0,-0.7384,0.0,0.0,0.0,0.0,0.0,0.0,0.0,0.0,0.0,0.0,0.0,0.0,0.0,0.0,0.0,0.0,0.0,0.0,0.0,0.0,0.0,0.0,0.0,0.0,0.0,0.0,0.0,0.0,0.0,0.0,0.0,0.0,0.0,0.0,0.0,0.0,0.0,0.0,0.0,0.0,0.0,0.0,0.0,0.0,0.0,0.0,0.0,0.0,0.0,0.0,0.0,0.0,0.0,0.0,0.0,0.0,0.0,0.0,0.0,-0.454,-0.4796,-0.5087,-0.5294,-0.5377,-0.4935,-0.4392,0.0,0.0,0.0,0.0,0.0,0.0,0.0,0.0,0.0,0.0,0.0,0.0,0.0,0.0,0.0,0.0,0.0,0.0,0.0,0.0,0.0,0.0,0.0,0.0,0.0,0.0,0.0,0.0,0.0,0.0,0.0,0.0,0.0,0.0,0.0,0.0,0.0,0.0,0.0,0.0,0.0,0.0,0.0,0.0,0.0,0.0,0.0,0.0,0.0,0.0,0.0,0.0,0.0,0.0,0.0,0.0,0.0,0.0,0.0,0.0,0.0,0.0,0.0,0.0,0.0,0.0,0.0,0.0,0.0,0.0,0.0,0.0,0.0,0.0,0.0,0.0,0.0,0.0,0.0,0.0,0.0,0.0,0.0,0.0,0.0,0.0,0.0,0.0,0.0,0.0,0.0,0.0,0.0,0.0,0.0,0.0,0.0,0.0,0.0,0.0,0.0,0.0,0.0,0.0,0.0,0.0,0.0,-0.4223,-0.4741,-0.4891,-0.5242,-0.5539,-0.5828,-0.5339,-0.4608,-0.3638,0.0,0.0,0.0,0.0,0.0,0.0,0.0,0.0,0.0,0.0,0.0,0.0,0.0,0.0,0.0,0.0,0.0,0.0,0.0,0.0,0.0,0.0,0.0,0.0,0.0,0.0,0.0,0.0,0.0,0.0,0.0,0.0,0.0,0.0,0.0,0.0,0.0,0.0,-0.6066,-0.7256,0.0,0.0,0.0,0.0,0.0,0.0,0.0,0.0,-0.8809,0.0,0.0,0.0,0.0,0.0,0.0,0.0,0.0,0.0,0.0,0.0,0.0,0.0,0.0,0.0,0.0,0.0,0.0,0.0,0.0,0.0,0.0,0.0,0.0,0.0,0.0,0.0,0.0,0.0,0.0,0.0,0.0,0.0,0.0,0.0,0.0,0.0,0.0,0.0,0.0,0.0,0.0,0.0,0.0,0.0,0.0,0.0,0.0,0.0,0.0,0.0,0.0,0.0,0.0,0.0,0.0,-0.3876,-0.4327,-0.4665,-0.4884,-0.5242,-0.5284,-0.5114,-0.5578,-0.5128,-0.3696,0.0,0.0,0.0,0.0,0.0,0.0,0.0,0.0,0.0,0.0,0.0,0.0,0.0,0.0,0.0,0.0,0.0,0.0,0.0,0.0,0.0,0.0,0.0,0.0,0.0,0.0,0.0,0.0,0.0,0.0,0.0,0.0,0.0,0.0,0.0,0.0,0.0,0.0,0.0,-0.8818,-0.9629,0.0,0.0,0.0,0.0,0.0,0.0,0.0,0.0,-0.8845,0.0,0.0,0.0,0.0,0.0,0.0,0.0,0.0,0.0,0.0,0.0,0.0,0.0,0.0,0.0,0.0,0.0,0.0,0.0,0.0,0.0,0.0,0.0,0.0,0.0,0.0,0.0,0.0,0.0,0.0,0.0,0.0,0.0,0.0,0.0,0.0,0.0,0.0,0.0,0.0,0.0,0.0,0.0,0.0,0.0,0.0,0.0,0.0,0.0,0.0,0.0,0.0,0.0,0.0,0.0,-0.3788,-0.4389,-0.4769,-0.4891,-0.5242,-0.541,-0.5464,-0.5317,-0.4885,0.0,0.0,0.0,0.0,0.0,0.0,0.0,0.0,0.0,0.0,0.0,0.0,0.0,0.0,0.0,0.0,0.0,0.0,0.0,0.0,0.0,0.0,0.0,0.0,0.0,0.0,0.0,0.0,0.0,0.0,0.0,0.0,0.0,0.0,0.0,0.0,0.0,0.0,0.0,0.0,-0.9619,-1.0224,-1.002,0.0,0.0,0.0,0.0,0.0,0.0,-0.9912,-0.9588,0.0,0.0,0.0,0.0,0.0,0.0,0.0,0.0,0.0,0.0,0.0,0.0,0.0,0.0,0.0,0.0,0.0,0.0,0.0,0.0,0.0,0.0,0.0,0.0,0.0,0.0,0.0,0.0,0.0,0.0,0.0,0.0,0.0,0.0,0.0,0.0,0.0,0.0,0.0,0.0,0.0,0.0,0.0,0.0,0.0,0.0,0.0,0.0,0.0,0.0,0.0,0.0,0.0,0.0,0.0,-0.3614,-0.4375,-0.483,-0.4925,-0.5308,-0.5661,-0.597,-0.5474,-0.5035,0.0,0.0,0.0,0.0,0.0,0.0,0.0,0.0,0.0,0.0,0.0,0.0,0.0,0.0,0.0,0.0,0.0,0.0,0.0,0.0,0.0,0.0,0.0,0.0,0.0,0.0,0.0,0.0,0.0,0.0,0.0,0.0,0.0,0.0,0.0,0.0,0.0,0.0,0.0,0.0,0.0,-1.083,-1.0898,-1.0714,0.0,0.0,0.0,0.0,-1.1073,-1.0752,0.0,0.0,0.0,0.0,0.0,0.0,0.0,0.0,0.0,0.0,0.0,0.0,0.0,0.0,0.0,0.0,0.0,0.0,0.0,0.0,0.0,0.0,0.0,0.0,0.0,0.0,0.0,0.0,0.0,0.0,0.0,0.0,0.0,0.0,0.0,0.0,0.0,0.0,0.0,0.0,0.0,0.0,0.0,0.0,0.0,0.0,0.0,0.0,0.0,0.0,0.0,0.0,0.0,0.0,0.0,0.0,-0.3593,-0.4045,-0.4486,-0.4897,-0.5582,-0.5947,-0.6022,-0.6994,-0.6624,0.0,0.0,0.0,0.0,0.0,0.0,0.0,0.0,0.0,0.0,0.0,0.0,0.0,0.0,0.0,0.0,0.0,0.0,0.0,0.0,0.0,0.0,0.0,0.0,0.0,0.0,0.0,0.0,0.0,0.0,0.0,0.0,0.0,0.0,0.0,0.0,0.0,0.0,0.0,0.0,0.0,-1.2178,-1.1064,-1.1222,-1.1449,0.0,0.0,-1.1102,-1.1921,-1.1365,0.0,0.0,0.0,0.0,0.0,0.0,0.0,0.0,0.0,0.0,0.0,0.0,0.0,0.0,0.0,0.0,0.0,0.0,0.0,0.0,0.0,0.0,0.0,0.0,0.0,0.0,0.0,0.0,0.0,0.0,0.0,0.0,0.0,0.0,0.0,0.0,0.0,0.0,0.0,0.0,0.0,0.0,0.0,0.0,0.0,0.0,0.0,0.0,0.0,0.0,0.0,0.0,0.0,0.0,0.0,-0.3144,-0.3604,-0.4595,-0.5208,-0.5424,-0.6207,-0.6593,-0.6503,-0.6856,-0.6439,0.0,0.0,0.0,0.0,0.0,0.0,0.0,0.0,0.0,0.0,0.0,0.0,0.0,0.0,0.0,0.0,0.0,0.0,0.0,0.0,0.0,0.0,0.0,0.0,0.0,0.0,0.0,0.0,0.0,0.0,0.0,0.0,0.0,0.0,0.0,0.0,0.0,0.0,0.0,0.0,0.0,0.0,-1.2031,-1.2005,0.0,0.0,0.0,-1.2181,-1.2539,0.0,0.0,0.0,0.0,0.0,0.0,0.0,0.0,0.0,0.0,0.0,0.0,0.0,0.0,0.0,0.0,0.0,0.0,0.0,0.0,0.0,0.0,0.0,0.0,0.0,0.0,0.0,0.0,0.0,0.0,0.0,0.0,0.0,0.0,0.0,0.0,0.0,0.0,0.0,0.0,0.0,0.0,0.0,0.0,0.0,0.0,0.0,0.0,0.0,0.0,0.0,0.0,0.0,0.0,0.0,0.0,0.0,-0.3629,-0.5,-0.5755,-0.5829,-0.6557,-0.7048,-0.7154,-0.7074,0.0,0.0,0.0,0.0,0.0,0.0,0.0,0.0,0.0,0.0,0.0,0.0,0.0,0.0,0.0,0.0,0.0,0.0,0.0,0.0,0.0,0.0,0.0,0.0,0.0,0.0,0.0,-0.5098,0.0,0.0,0.0,0.0,0.0,0.0,0.0,0.0,0.0,0.0,0.0,0.0,0.0,0.0,-1.2025,-1.2798,-1.2598,-1.2554,0.0,0.0,-1.2944,-1.3018,-1.2949,-1.2602,0.0,0.0,0.0,0.0,0.0,0.0,0.0,0.0,0.0,0.0,0.0,0.0,0.0,0.0,0.0,0.0,0.0,0.0,0.0,0.0,0.0,0.0,0.0,0.0,0.0,0.0,0.0,0.0,0.0,0.0,0.0,0.0,0.0,0.0,0.0,0.0,0.0,0.0,0.0,0.0,0.0,0.0,0.0,0.0,0.0,0.0,0.0,0.0,0.0,0.0,0.0,0.0,0.0,0.0,0.0,-0.3651,-0.488,-0.562,-0.5817,-0.6341,-0.7016,-0.7818,-0.8361,-0.7902,0.0,0.0,0.0,0.0,0.0,0.0,0.0,0.0,0.0,0.0,0.0,0.0,0.0,0.0,0.0,0.0,0.0,0.0,0.0,0.0,0.0,0.0,0.0,0.0,0.0,0.0,0.0,0.0,0.0,0.0,0.0,0.0,0.0,0.0,0.0,0.0,0.0,0.0,0.0,0.0,0.0,-1.2353,-1.2837,-1.2886,-1.3125,0.0,0.0,-1.3042,-1.3408,-1.3135,-1.2612,-1.1753,0.0,0.0,0.0,0.0,0.0,0.0,0.0,0.0,0.0,0.0,0.0,0.0,0.0,0.0,0.0,0.0,0.0,0.0,0.0,0.0,0.0,0.0,0.0,0.0,0.0,0.0,0.0,0.0,0.0,0.0,0.0,0.0,0.0,0.0,0.0,0.0,0.0,0.0,0.0,0.0,0.0,0.0,0.0,0.0,0.0,0.0,0.0,0.0,0.0,0.0,0.0,0.0,0.0,-0.3987,-0.4302,-0.553,-0.6433,-0.6978,-0.7609,-0.8125,-0.8433,-0.8672,-0.8255,0.0,0.0,0.0,0.0,0.0,0.0,0.0,0.0,0.0,0.0,0.0,0.0,0.0,0.0,0.0,0.0,0.0,0.0,0.0,0.0,0.0,0.0,0.0,0.0,0.0,0.0,0.0,0.0,-0.5098,-0.5098,-0.5098,0.0,0.0,0.0,0.0,0.0,0.0,0.0,0.0,0.0,0.0,-1.2783,-1.3203,-1.3486,0.0,0.0,-1.4092,-1.3926,-1.3555,-1.3926,-1.3858,-1.2709,-1.272,0.0,0.0,0.0,0.0,0.0,0.0,0.0,0.0,0.0,0.0,0.0,0.0,0.0,0.0,0.0,0.0,0.0,0.0,0.0,0.0,0.0,0.0,0.0,0.0,0.0,0.0,0.0,0.0,0.0,0.0,0.0,0.0,0.0,0.0,0.0,0.0,0.0,0.0,0.0,0.0,0.0,0.0,0.0,0.0,0.0,0.0,0.0,0.0,0.0,0.0,0.0,0.0,-0.4418,-0.4985,-0.6273,-0.7182,-0.7696,-0.8209,-0.8566,-0.8778,-0.8778,-0.843,0.0,0.0,0.0,0.0,0.0,0.0,0.0,0.0,0.0,0.0,0.0,0.0,0.0,0.0,0.0,0.0,0.0,0.0,0.0,0.0,0.0,0.0,0.0,0.0,0.0,0.0,0.0,0.0,-0.5098,-0.5098,-0.5098,0.0,0.0,0.0,0.0,0.0,0.0,0.0,0.0,0.0,0.0,-1.3076,-1.3623,-1.3929,-1.4192,-1.4455,-1.4443,-1.4238,-1.376,-1.4228,-1.4205,-1.3022,0.0,0.0,0.0,0.0,0.0,0.0,0.0,0.0,0.0,0.0,0.0,0.0,0.0,0.0,0.0,0.0,0.0,0.0,0.0,0.0,0.0,0.0,0.0,0.0,0.0,0.0,0.0,0.0,0.0,0.0,-0.1342,0.0,0.0,0.0,0.0,0.0,0.0,0.0,0.0,0.0,0.0,0.0,0.0,0.0,0.0,0.0,0.0,0.0,0.0,0.0,0.0,0.0,0.0,-0.5383,-0.5685,-0.6963,-0.7696,-0.7723,-0.7723,-0.8103,-0.8752,-0.8778,-0.8524,-0.7892,0.0,0.0,0.0,0.0,0.0,0.0,0.0,0.0,0.0,0.0,0.0,0.0,0.0,0.0,0.0,0.0,0.0,0.0,0.0,0.0,0.0,0.0,0.0,0.0,0.0,0.0,-0.5098,-0.5098,-0.5098,0.0,0.0,0.0,0.0,0.0,0.0,0.0,0.0,0.0,0.0,-1.2347,-1.3193,-1.3987,-1.4104,-1.4426,-1.5244,-1.4346,-1.3701,-1.4046,-1.3789,-1.3248,0.0,0.0,0.0,0.0,0.0,0.0,0.0,0.0,0.0,0.0,0.0,0.0,0.0,0.0,0.0,0.0,0.0,0.0,0.0,0.0,0.0,0.0,0.0,0.0,0.0,0.0,0.0,-0.2425,-0.2466,0.0,0.0,0.0,0.0,0.0,0.0,0.0,0.0,0.0,0.0,0.0,-0.4119,-0.4272,0.0,0.0,0.0,0.0,0.0,0.0,0.0,0.0,0.0,0.0,0.0,0.0,-0.5578,-0.595,-0.7076,-0.7937,-0.8427,-0.8427,-0.854,-0.8778,-0.8778,-0.8437,-0.7665,0.0,0.0,0.0,0.0,0.0,0.0,0.0,0.0,0.0,0.0,0.0,0.0,0.0,0.0,0.0,0.0,0.0,0.0,0.0,0.0,0.0,0.0,0.0,0.0,0.0,-0.5098,0.0,0.0,0.0,0.0,0.0,0.0,0.0,0.0,0.0,0.0,0.0,-1.1787,-1.2377,-1.3453,-1.4248,-1.4531,-1.4805,-1.5059,0.0,0.0,0.0,0.0,0.0,0.0,0.0,0.0,0.0,0.0,0.0,0.0,0.0,0.0,-1.5823,-1.3629,-1.3065,-1.2985,-1.316,0.0,0.0,0.0,0.0,0.0,0.0,0.0,0.0,0.0,0.0,0.0,0.0,0.0,0.0,-0.3227,0.0,-0.3141,0.0,0.0,0.0,0.0,0.0,0.0,0.0,0.0,-0.4301,-0.455,-0.4655,-0.5038,-0.5121,0.0,-0.4863,-0.4704,0.0,0.0,0.0,0.0,0.0,0.0,0.0,0.0,-0.6022,-0.696,-0.7794,-0.846,-0.8904,-0.8931,-0.8884,-0.8811,-0.8778,-0.8484,-0.7826,-0.7315,-0.6734,0.0,0.0,0.0,0.0,0.0,0.0,0.0,0.0,0.0,0.0,0.0,0.0,0.0,0.0,0.0,0.0,0.0,0.0,0.0,0.0,0.0,0.0,0.0,-0.5535,0.0,0.0,0.0,0.0,0.0,0.0,0.0,0.0,0.0,-1.0928,-1.1826,-1.2725,-1.3447,-1.4294,-1.4862,-1.499,0.0,0.0,0.0,0.0,0.0,0.0,0.0,-1.5673,-1.6269,-1.6558,-1.6993,-1.7934,-1.8093,-1.8104,-1.8182,0.0,0.0,-1.5347,-1.4782,-1.4739,-1.4908,-1.509,-1.5306,-1.5495,-1.5789,-1.6053,0.0,0.0,0.0,0.0,0.0,0.0,0.0,0.0,-0.3267,-0.345,0.0,-0.3716,0.0,0.0,0.0,0.0,0.0,0.0,0.0,0.0,-0.484,-0.5042,-0.4986,-0.5765,-0.6164,-0.6198,-0.6233,-0.6601,-0.7018,-0.5325,0.0,0.0,0.0,0.0,0.0,0.0,-0.6777,-0.8646,-0.901,-0.919,-0.9204,-0.9176,-0.9071,-0.8791,-0.8778,-0.8671,-0.8422,-0.809,-0.7535,-0.6687,-0.6059,0.0,0.0,0.0,0.0,0.0,0.0,0.0,0.0,0.0,0.0,0.0,0.0,0.0,0.0,0.0,0.0,0.0,0.0,0.0,0.0,-0.6172,0.0,0.0,0.0,0.0,0.0,0.0,0.0,0.0,0.0,0.0,-1.233,-1.2725,-1.3443,-1.4639,0.0,0.0,0.0,0.0,-1.5605,-1.6056,-1.5732,-1.5615,-1.6046,-1.6146,-1.6297,-1.6736,0.0,0.0,-1.7934,-1.8015,-1.8111,-1.8235,-1.8304,-1.8254,-1.818,-1.7639,-1.7498,-1.794,-1.7601,-1.7576,-1.8016,-1.794,-1.8028,-0.4747,0.0,0.0,0.0,0.0,-0.436,-0.4591,-0.4912,-0.4905,-0.4773,-0.4592,-0.4523,0.0,0.0,0.0,0.0,0.0,0.0,-0.4819,-0.4864,-0.5245,-0.5491,-0.5545,-0.5785,-0.5864,-0.5759,-0.572,-0.5702,-0.572,-0.5604,-0.5517,-0.5464,0.0,0.0,0.0,0.0,-0.7797,-0.8196,-0.9069,-0.9459,-0.9183,-0.9176,-0.9078,-0.8785,-0.8778,-0.8771,-0.8684,-0.8404,-0.8029,-0.7539,-0.6774,0.0,0.0,0.0,0.0,0.0,0.0,0.0,0.0,0.0,0.0,0.0,0.0,0.0,0.0,0.0,0.0,0.0,0.0,0.0,-0.6191,-0.6338,-0.6635,0.0,0.0,0.0,0.0,0.0,0.0,0.0,0.0,0.0,-1.4397,-1.46,-1.4814,0.0,0.0,-1.6073,-1.5928,-1.6152,-1.6365,-1.6523,0.0,0.0,0.0,-1.6799,-1.7343,-1.8262,-1.9448,-2.0193,-1.9943,-1.9899,-1.9778,-1.9409,-1.9334,-1.9346,-1.9284,-1.8593,-1.8078,-1.8154,-1.8066,-1.8003,-1.8154,-1.8204,-1.8216,-0.6081,-0.569,-0.5373,-0.5285,-0.5363,-0.5363,-0.5501,-0.5667,-0.5616,-0.5464,-0.5264,-0.5209,-0.4982,-0.464,-0.4579,0.0,0.0,0.0,-0.523,-0.5325,-0.5562,-0.5722,-0.5835,-0.6154,-0.6285,-0.6192,-0.6501,-0.6722,-0.6854,-0.7253,-0.7609,-0.783,0.0,0.0,-0.7056,-0.7957,-0.853,-0.8795,-0.9492,-0.9713,-0.9397,-0.9158,-0.8958,-0.8791,-0.8778,-0.8778,-0.8778,-0.8637,-0.841,-0.8116,-0.7361,-0.664,0.0,0.0,0.0,0.0,0.0,0.0,0.0,0.0,0.0,0.0,0.0,-0.6347,-0.5789,0.0,0.0,0.0,-0.6575,-0.6996,-0.7402,-0.7891,0.0,0.0,0.0,0.0,0.0,0.0,0.0,-1.3164,-1.4219,-1.5156,-1.581,-1.6084,-1.6191,-1.6191,-1.6473,-1.6689,-1.6633,0.0,-1.6765,-1.6963,-1.696,-1.717,-1.764,-1.7967,-1.8533,-1.9681,-2.0938,-2.1591,-2.1119,-2.0855,-2.0566,-2.0251,-1.9962,-1.9798,-1.9798,-1.9258,-1.8832,-1.8832,-1.8844,-1.8844,-1.8832,-1.8832,-1.8844,-0.6736,-0.6688,-0.6139,-0.5898,-0.5874,-0.5871,-0.5874,-0.5861,-0.5735,-0.5739,-0.5827,-0.5698,-0.563,-0.5596,-0.5494,0.0,0.0,-0.559,-0.562,-0.563,-0.5772,-0.5837,-0.5873,-0.6662,-0.708,-0.7139,-0.8089,-0.8845,-0.9405,-0.9539,-0.9791,-0.9997,-0.8229,-0.7768,-0.8651,-0.859,-0.9042,-1.007,-1.0103,-1.0,-0.9686,-0.9132,-0.8831,-0.8778,-0.8778,-0.8778,-0.8778,-0.8778,-0.8671,-0.8402,-0.7846,-0.7136,-0.6285,0.0,0.0,0.0,0.0,0.0,0.0,0.0,0.0,0.0,0.0,0.0,0.0,0.0,0.0,0.0,-0.8193,0.0,-0.9111,-1.0215,0.0,0.0,0.0,-1.2379,-1.2408,-1.35,-1.4406,-1.4844,0.0,0.0,0.0,0.0,-1.7432,-1.7432,-1.709,-1.6973,-1.7324,-1.707,-1.6982,-1.7406,-1.753,-1.7945,-1.8944,-1.9358,-1.994,-2.0988,-2.1837,-2.2142,-2.1669,-2.1219,-2.0867,-2.0767,-2.0327,-1.9936,-1.9886,-1.9861,-1.9849,-1.9761,-1.9761,-1.9761,-1.9723,-1.971,-1.9698,-0.7034,-0.6977,-0.6839,-0.665,-0.6488,-0.6488,-0.6488,-0.6485,-0.6451,-0.6329,-0.6187,-0.6153,-0.6009,-0.5749,-0.5711,-0.5698,-0.5705,-0.5854,-0.5888,-0.5899,-0.6081,-0.619,-0.619,-0.6415,-0.6832,-0.7399,-0.7647,-0.8153,-0.8925,-0.8989,-0.9293,-0.9741,-0.9312,-0.9177,-0.9437,-0.962,-0.9824,-1.009,-1.0341,-1.0238,-0.9693,-0.9325,-0.9004,-0.8785,-0.8778,-0.8778,-0.8778,-0.8778,-0.8671,-0.8409,-0.8016,-0.7493,-0.6847,-0.5967,0.0,0.0,0.0,0.0,0.0,0.0,0.0,0.0,0.0,-0.8251,-0.7103,0.0,-0.9036,0.0,-0.8782,-0.9279,-1.0332,-1.0732,0.0,0.0,-1.3105,-1.3782,-1.415,-1.5058,-1.5674,-1.5772,-1.6564,-1.7142,-1.7217,-1.7598,-1.7852,-1.7861,-1.774,-1.7637,-1.7432,-1.7588,-1.7711,-1.789,-1.8348,-1.8953,-1.9333,-2.0462,-2.1538,-2.2456,-2.2775,-2.2719,-2.2196,-2.2008,-2.1794,-2.1421,-2.1192,-2.0941,-2.0566,-2.049,-2.0302,-1.9911,-1.9798,-1.9798,-1.9798,-1.9798,-1.9798,-0.7244,-0.7234,-0.7125,-0.7001,-0.6849,-0.6827,-0.6763,-0.6702,-0.6702,-0.6607,-0.6497,-0.6454,-0.6363,-0.62,-0.6129,-0.6136,-0.6101,-0.6125,-0.6135,-0.6139,-0.6262,-0.63,-0.63,-0.63,-0.6747,-0.7626,-0.8109,-0.8727,-0.9488,-0.9972,-1.0281,-1.047,-1.0317,-1.029,-1.0263,-1.0301,-1.0321,-1.0314,-1.0341,-1.0231,-0.9873,-0.9431,-0.9138,-0.8978,-0.8845,-0.8778,-0.8778,-0.8778,-0.8677,-0.8415,-0.809,-0.7692,-0.7235,-0.6513,-0.5959,0.0,0.0,0.0,0.0,0.0,0.0,0.0,0.0,0.0,0.0,0.0,-1.0079,0.0,-1.0196,0.0,-1.1963,-1.2554,-1.3135,-1.3698,-1.4668,-1.5284,-1.5381,-1.6153,-1.6682,-1.6692,-1.7246,-1.7656,-1.7676,-1.7861,-1.8008,-1.8008,-1.8008,-1.793,-1.7734,-1.7881,-1.8008,-1.8042,-1.8395,-1.9044,-1.9716,-2.1322,-2.258,-2.2975,-2.3095,-2.2995,-2.2694,-2.2472,-2.2209,-2.192,-2.1656,-2.1433,-2.1119,-2.0842,-2.0578,-2.0302,-1.9974,-1.9823,-1.9798,-1.9798,-1.9798,-0.7373,-0.7405,-0.7207,-0.7095,-0.7085,-0.6964,-0.6878,-0.6756,-0.6756,-0.6746,-0.6729,-0.6709,-0.6702,-0.6692,-0.6563,-0.6502,-0.6532,-0.6395,-0.6323,-0.6327,-0.6306,-0.63,-0.63,-0.63,-0.6834,-0.7817,-0.8694,-0.9489,-1.0273,-1.1259,-1.1594,-1.127,-1.1162,-1.1089,-1.1042,-1.0794,-1.0626,-1.0593,-1.0301,-1.016,-1.0077,-0.955,-0.9251,-0.9204,-0.8958,-0.8778,-0.8778,-0.8778,-0.8677,-0.8415,-0.8123,-0.7849,-0.7558,-0.7028,-0.6707,0.0,-0.6411,0.0,0.0,0.0,0.0,0.0,0.0,0.0,0.0,-1.0842,-1.1192,-1.125,-1.2018,-1.2866,-1.3672,-1.4777,-1.5371,-1.5117,-1.6063,-1.666,-1.6349,-1.6995,-1.7461,-1.7471,-1.7793,-1.8008,-1.7998,-1.8008,-1.8008,-1.8008,-1.8008,-1.7998,-1.7998,-1.7998,-1.8008,-1.8008,-1.81,-1.8877,-2.0301,-2.1854,-2.2854,-2.2927,-2.3035,-2.3095,-2.3083,-2.2719,-2.2406,-2.2385,-2.2071,-2.1732,-2.1619,-2.1182,-2.0792,-2.0666,-2.0201,-1.9811,-1.9798,-1.9798,-1.9798,-0.7373,-0.7405,-0.7159,-0.7095,-0.7095,-0.7065,-0.7038,-0.7014,-0.7014,-0.699,-0.6878,-0.6756,-0.6702,-0.6695,-0.6671,-0.6654,-0.6651,-0.6542,-0.647,-0.6467,-0.6354,-0.63,-0.63,-0.63,-0.6834,-0.7783,-0.797,-0.8595,-0.9531,-1.0533,-1.0882,-1.0622,-1.133,-1.159,-1.1336,0.0,0.0,0.0,-1.0539,-1.0354,-1.0114,-0.9786,-0.9479,-0.9217,-0.8931,0.0,-0.8778,-0.8778,-0.8671,-0.8422,-0.8348,0.0,0.0,0.0,0.0,0.0,0.0,0.0,0.0,0.0,0.0,0.0,-0.9314,-0.9337,-0.9577,-1.137,-1.2656,-1.2977,-1.3799,-1.4502,-1.5,-1.5586,-1.6085,-1.6326,-1.6872,-1.7227,-1.7158,-1.7588,-1.7891,-1.7891,-1.7935,-1.8008,-1.8008,-1.8008,-1.8008,-1.8008,-1.8008,-1.8008,-1.8008,-1.8008,-1.8008,-1.8042,-1.8529,-1.9398,-2.043,-2.1459,-2.2137,-2.2199,-2.272,-2.3035,-2.3083,-2.3032,-2.2945,-2.2932,-2.2869,-2.2606,-2.2246,-2.1719,-2.1232,-2.0792,-2.0225,-1.9798,-1.9798,-1.9798,-1.9798,-0.7587,0.0,-0.7428,-0.7322,0.0,-0.7255,-0.721,-0.7095,-0.7095,-0.7055,-0.6984,-0.691,-0.6876,-0.6915,-0.6844,-0.6771,-0.6765,-0.6654,-0.6586,-0.6576,-0.6474,-0.6405,-0.6363,-0.6334,-0.6834,-0.7783,-0.7821,-0.8318,-0.9296,-0.982,-0.998,-0.9896,-1.0731,-1.1062,-1.0918,-1.0967,-1.0881,-1.0593,-1.0586,-1.0519,-1.0365,-1.0047,-0.976,-0.9437,0.0,0.0,0.0,0.0,0.0,0.0,0.0,0.0,0.0,0.0,0.0,-0.7879,-0.7769,-0.7774,-0.7967,-0.779,-0.8242,-0.9489,-0.9692,-1.0131,-1.0998,-1.2572,-1.375,-1.4389,-1.4853,-1.5361,-1.5966,-1.6455,-1.6838,-1.7051,-1.7432,-1.7695,-1.7715,-1.7871,-1.8008,-1.8008,-1.8008,-1.8008,-1.8008,-1.8008,-1.8008,-1.8008,-1.8008,-1.8008,-1.8008,-1.8008,-1.8008,-1.8042,-1.8754,-1.9431,-1.9911,-2.0687,-2.1459,-2.1815,-2.223,-2.2628,-2.3035,-2.3095,-2.3095,-2.3095,-2.3095,-2.2982,-2.2732,-2.2284,-2.182,-2.1481,-2.083,-2.0289,-2.0239,-1.9999,-1.9798,-0.7814,-0.7797,-0.7658,-0.7526,-0.7411,-0.7433,-0.7285,-0.7095,0.0,0.0,0.0,-0.7095,-0.7095,-0.7085,-0.6974,-0.6923,-0.6913,-0.681,-0.6739,-0.6732,-0.6552,-0.6515,-0.6504,-0.6368,-0.6756,-0.7514,-0.7553,-0.797,-0.877,-0.8955,-0.9031,-0.913,-0.9849,-1.0273,-1.0414,-1.0669,-1.0758,-1.068,-1.062,-1.0586,-1.0579,-1.0274,-1.0007,-0.9796,-0.9419,-0.9104,-0.8891,-0.8831,-0.8704,-0.847,-0.845,-0.8476,-0.845,-0.845,-0.8557,-0.8784,-0.8778,-0.8831,-0.8851,-0.8858,-0.9004,-0.9344,-0.9998,-1.1026,-1.252,-1.334,-1.412,-1.498,-1.5169,-1.5517,-1.6239,-1.689,-1.7249,-1.7292,-1.7692,-1.7998,-1.7998,-1.8008,-1.8008,-1.8008,-1.8008,-1.8008,-1.8008,-1.8008,-1.8008,-1.8008,-1.8008,-1.8008,-1.8008,-1.8008,-1.8008,-1.8076,-1.8563,-1.9044,-1.9177,-1.9814,-2.0611,-2.1175,-2.1628,-2.2156,-2.2689,-2.3005,-2.3095,-2.3095,-2.3095,-2.3095,-2.3058,-2.2619,-2.2347,-2.2322,-2.1546,-2.0842,-2.0805,-2.0451,-2.0087,-0.7814,-0.7801,-0.7658,-0.7587,-0.7556,-0.7473,-0.7285,-0.7098,-0.7095,-0.7095,-0.7095,-0.7095,-0.7095,-0.7095,-0.7075,-0.7068,-0.7058,-0.6916,-0.6895,0.0,-0.6607,-0.6515,-0.6504,-0.6364,-0.6377,-0.649,-0.6528,-0.6567,-0.6795,-0.7591,-0.8008,-0.8122,-0.8959,-0.9776,-1.0329,-1.0184,-1.0353,-1.0902,-1.072,-1.0586,-1.0586,-1.0267,-1.007,-1.001,-0.9497,-0.9198,-0.9117,-0.8911,-0.8791,-0.8751,-0.8751,-0.8744,-0.8744,-0.8751,-0.8764,-0.8778,-0.8778,-0.8891,-0.9131,-0.9144,-0.9391,-0.9976,-1.0955,-1.1563,-1.1552,-1.2089,-1.2806,-1.3637,-1.4309,-1.4656,-1.4866,-1.5969,-1.6674,-1.6752,-1.7463,-1.8008,-1.7974,-1.8008,-1.8008,-1.8008,-1.8008,-1.8008,-1.8008,-1.8008,-1.8008,-1.8008,-1.8008,-1.8008,-1.8008,-1.8008,-1.8008,-1.8008,-1.8076,-1.8168,-1.8371,-1.8921,-1.9529,-1.9628,-2.091,-2.1784,-2.2125,-2.2628,-2.3005,-2.3095,-2.3095,-2.3095,-2.3095,-2.2656,-2.2406,-2.2347,-2.182,-2.1421,-2.1395,-2.123,-2.0865,-0.7887,-0.788,-0.7862,-0.779,-0.7706,-0.7556,-0.7407,-0.7268,-0.7265,-0.7217,-0.7098,-0.7095,-0.7095,-0.7095,-0.7095,-0.7095,-0.7092,-0.7028,-0.7001,-0.6984,-0.682,-0.6675,-0.659,-0.6484,-0.6375,-0.6303,-0.63,-0.63,-0.6335,-0.6756,-0.6984,-0.7061,-0.8008,-0.8843,-0.9498,-0.9963,-1.017,-1.0182,-1.0477,-1.0586,-1.0586,-1.0459,-1.0281,-1.0127,-0.981,-0.961,-0.9486,-0.9171,-0.9091,-0.9279,-0.9125,-0.9011,-0.9018,-0.9011,-0.9011,-0.9011,-0.9018,-0.9144,-0.9459,-0.9633,-0.9797,-1.01,-1.0746,-1.1153,-1.1143,-1.2181,-1.31,-1.3729,-1.4212,-1.4598,-1.4848,-1.5451,-1.5825,-1.5825,-1.668,-1.7217,-1.732,-1.7725,-1.8008,-1.8008,-1.8008,-1.8008,-1.8008,-1.8008,-1.8008,-1.8008,-1.8008,-1.8008,-1.8008,-1.8008,-1.8008,-1.8008,-1.8008,-1.8008,-1.8008,-1.8313,-1.8754,-1.921,-1.9944,-2.0846,-2.1585,-2.2292,-2.2598,-2.3005,-2.3095,-2.3095,-2.3095,-2.292,-2.2757,-2.2669,-2.2322,-2.1995,-2.1907,-2.1506,-2.0905,-0.7988,-0.7988,-0.7988,-0.7904,-0.7804,-0.7695,-0.7563,-0.7424,-0.7429,-0.7305,-0.7197,-0.7115,-0.7095,-0.7095,-0.7095,-0.7095,-0.7095,-0.7095,-0.7095,-0.7082,-0.6953,-0.6865,-0.6742,-0.6597,-0.6491,-0.6361,-0.6347,-0.6334,-0.6303,-0.63,-0.63,-0.6377,-0.7099,-0.7858,-0.8582,-0.9296,-0.9564,-0.94,-1.0001,-1.043,-1.0593,-1.0586,-1.0486,-1.0234,-1.0147,-0.9983,-0.9786,-0.9464,-0.9417,-0.9653,-0.9437,-0.9317,-0.9311,-0.9311,-0.9311,-0.9311,-0.9311,-0.9437,-0.9766,-1.0053,-1.0214,-1.0221,-1.0526,-1.0787,-1.106,-1.2251,-1.3214,-1.3555,-1.3784,-1.4132,-1.4379,-1.4736,-1.4843,-1.4906,-1.572,-1.6393,-1.6645,-1.7251,-1.7784,-1.794,-1.8008,-1.8008,-1.8008,-1.8008,-1.8008,-1.8008,-1.8008,-1.8008,-1.8008,-1.8008,-1.8008,-1.8008,-1.8008,-1.8008,-1.8008,-1.8042,-1.8303,-1.8954,-1.9233,-1.9911,-2.0942,-2.1522,-2.2094,-2.2659,-2.3005,-2.3078,-2.3095,-2.3083,-2.307,-2.3007,-2.2706,-2.2468,-2.246,-2.1644,-2.088,-0.7988,-0.7988,-0.7988,-0.7901,-0.7821,-0.7797,-0.7712,-0.757,-0.7438,-0.7366,-0.7333,-0.72,-0.7098,-0.7095,-0.7095,-0.7095,-0.7095,-0.7095,-0.7095,-0.7082,-0.695,-0.6879,-0.6846,-0.6749,-0.66,-0.6504,-0.6487,-0.6416,-0.6303,-0.63,-0.63,-0.63,-0.6416,-0.6938,-0.777,-0.7724,-0.8047,-0.8872,-0.9365,-0.9923,-1.0543,-1.0586,-1.0573,-1.0553,-1.0254,-1.0107,-1.0074,-0.9793,-0.9659,-0.9708,-0.9695,-0.9646,-0.9639,-0.9668,-0.9639,-0.9646,-0.9646,-0.9773,-1.006,-1.0354,-1.0539,-1.0573,-1.0814,-1.0969,-1.1035,-1.1648,-1.2059,-1.2212,-1.241,-1.2647,-1.2622,-1.3346,-1.3846,-1.3882,-1.4736,-1.5658,-1.6306,-1.6645,-1.7026,-1.794,-1.7896,-1.8008,-1.7974,-1.8008,-1.8008,-1.8008,-1.8008,-1.8008,-1.8008,-1.8008,-1.8008,-1.8008,-1.8008,-1.8008,-1.8008,-1.8008,-1.811,-1.8236,-1.8777,-1.9365,-1.9911,-2.089,-2.1951,-2.1939,-2.2506,-2.2811,-2.3005,-2.3095,-2.3047,-2.3095,-2.302,-2.2995,-2.2907,-2.2184,-2.1395,-0.7282,-0.7988,-0.7988,-0.7955,-0.7901,-0.7897,-0.7813,-0.7719,-0.7662,-0.7539,-0.7422,-0.7302,-0.7227,-0.7098,-0.7095,-0.7095,-0.7095,-0.7095,-0.7095,-0.7092,-0.7034,-0.6967,-0.6883,-0.6871,-0.6712,-0.6528,-0.6515,-0.6439,-0.632,-0.63,-0.63,-0.63,-0.63,-0.6493,-0.6942,-0.7365,-0.7717,-0.7915,-0.8604,-0.9033,-0.9272,-1.0123,-1.0586,-1.0579,-1.0472,-1.0412,-1.0354,-1.0094,-1.0013,-1.0198,-1.004,-0.994,-0.994,-0.9933,-0.994,-0.9947,-1.0144,-1.0278,-1.0399,-1.0526,-1.0667,-1.0834,-1.0955,-1.1129,-1.1517,-1.1772,-1.1966,-1.2111,-1.2231,-1.2305,-1.2342,-1.2666,-1.2879,-1.2989,-1.3738,-1.4486,-1.4816,-1.5446,-1.6114,-1.7001,-1.7182,-1.7423,-1.7862,-1.8008,-1.8008,-1.8008,-1.8008,-1.8008,-1.8008,-1.8008,-1.8008,-1.8008,-1.8008,-1.8008,-1.8008,-1.8008,-1.8008,-1.8076,-1.8269,-1.8596,-1.9309,-1.9726,-2.0494,-2.1005,-2.1479,-2.1959,-2.2292,-2.2414,-2.2476,-2.2793,-2.3095,-2.3095,-2.3095,-2.2523,-2.1832,-0.6229,-0.7437,-0.7836,-0.7988,-0.7988,-0.7988,-0.7928,-0.7875,-0.7831,-0.7689,-0.7495,-0.7456,-0.7312,-0.7207,-0.7119,-0.7095,-0.7095,-0.7095,-0.7095,-0.7095,-0.7095,-0.7045,-0.6947,-0.694,-0.6827,-0.6573,-0.6539,-0.6484,-0.632,-0.63,-0.63,-0.63,-0.63,-0.63,-0.6374,-0.7061,-0.7301,-0.7123,-0.7857,-0.8117,-0.8152,-0.9464,-1.0283,-1.0251,-1.0498,-1.0586,-1.0586,-1.0354,-1.0334,-1.0566,-1.0354,-1.0241,-1.0241,-1.0234,-1.0234,-1.0254,-1.0466,-1.0586,-1.0586,-1.066,-1.0801,-1.0975,-1.1122,-1.141,-1.1812,-1.198,-1.2078,-1.2258,-1.2305,-1.2305,-1.2305,-1.2305,-1.2305,-1.2342,-1.2952,-1.3382,-1.3745,-1.4414,-1.5155,-1.6035,-1.6507,-1.6966,-1.7759,-1.8008,-1.8008,-1.8008,-1.8008,-1.8008,-1.8008,-1.8008,-1.8008,-1.8008,-1.8008,-1.8008,-1.8008,-1.8008,-1.8008,-1.8008,-1.8076,-1.8303,-1.8888,-1.9044,-1.9365,-2.0204,-2.0365,-2.0719,-2.1333,-2.1585,-2.1815,-2.2476,-2.2763,-2.2884,-2.3047,-2.2631,-2.2133,-0.487,-0.6179,-0.7484,-0.7939,-0.7988,-0.7988,-0.7985,-0.7955,-0.7882,-0.7801,-0.7733,-0.7499,-0.7415,-0.7339,-0.7204,-0.7095,-0.7095,-0.7095,-0.7095,-0.7095,-0.7095,-0.7095,-0.7088,-0.7085,-0.6933,-0.6709,-0.6692,-0.6546,-0.6323,-0.6303,-0.63,-0.63,-0.63,-0.63,-0.63,-0.6416,-0.637,-0.6482,-0.7037,-0.7272,-0.7349,-0.8693,-0.9443,-0.9379,-1.0142,-1.0586,-1.0586,-1.0573,-1.0573,-1.0586,-1.0566,-1.0553,-1.0559,-1.0559,-1.0553,-1.0559,-1.0586,-1.06,-1.064,-1.0861,-1.1002,-1.1082,-1.1496,-1.1866,-1.194,-1.2111,-1.2251,-1.2305,-1.2305,-1.2305,-1.2305,-1.2305,-1.2305,-1.2305,-1.2342,-1.2806,-1.3564,-1.3673,-1.4207,-1.5128,-1.5974,-1.6811,-1.7813,-1.8008,-1.8008,-1.8061,-1.8057,-1.8047,-1.8066,-1.8047,-1.8008,-1.8008,-1.8008,-1.8008,-1.8008,-1.8008,-1.8008,-1.8008,-1.8008,-1.8052,-1.8303,-1.8654,-1.9034,-1.9464,-1.9814,-2.0171,-2.0494,-2.0846,-2.1175,-2.1647,-2.2032,-2.2261,-2.2702,-2.2543,-2.2146,-0.3516,-0.482,-0.6176,-0.6731,-0.683,-0.7637,-0.7988,-0.7985,-0.798,-0.7853,-0.7787,-0.76,-0.7461,-0.7366,-0.721,-0.7095,-0.7095,-0.7095,-0.7095,-0.7095,-0.7095,-0.7095,-0.7095,-0.7095,-0.7001,-0.6832,-0.6848,-0.6692,-0.6467,-0.6433,-0.6388,-0.631,-0.63,-0.63,-0.63,-0.63,-0.63,-0.6321,-0.6441,-0.6437,-0.6481,-0.7425,-0.7922,-0.7884,-0.9641,-1.0586,-1.0586,-1.0586,-1.0586,-1.0586,-1.0586,-1.0586,-1.0586,-1.0586,-1.0586,-1.0606,-1.076,-1.0868,-1.0875,-1.1109,-1.1356,-1.155,-1.1772,-1.1957,-1.2118,-1.2245,-1.2305,-1.2305,-1.2305,-1.2305,-1.2305,-1.2305,-1.2305,-1.2305,-1.2305,-1.2409,-1.2696,-1.2842,-1.3164,-1.4135,-1.5092,-1.6167,-1.7104,-1.7478,-1.7838,-1.8634,-1.8594,-1.8403,-1.8325,-1.8169,-1.8027,-1.8018,-1.8008,-1.8008,-1.8008,-1.8008,-1.8008,-1.8008,-1.8008,-1.8008,-1.8202,-1.8236,-1.8553,-1.8654,-1.9077,-1.9365,-1.9595,-2.0139,-2.0494,-2.0846,-2.1239,-2.1647,-2.2249,-2.2247,-2.201,-0.2514,-0.3516,-0.477,-0.5325,-0.5522,-0.6781,-0.7385,-0.7434,-0.7839,-0.7931,-0.7868,-0.7729,-0.7587,-0.7434,-0.7285,-0.7136,-0.7098,-0.7095,-0.7095,-0.7095,-0.7095,-0.7095,-0.7095,-0.7095,-0.7024,-0.6893,-0.6875,-0.6722,-0.6542,-0.6515,-0.6436,-0.6306,-0.63,-0.63,-0.63,-0.63,-0.63,-0.6276,-0.6152,-0.6084,-0.6101,-0.6758,-0.7114,-0.7281,-0.8886,-0.9979,-1.0155,-1.0174,-1.0333,-1.0561,-1.0586,-1.0586,-1.0586,-1.0586,-1.064,-1.074,-1.0908,-1.1042,-1.1156,-1.141,-1.1657,-1.1886,-1.2,-1.2104,-1.2285,-1.2305,-1.2305,-1.2305,-1.2305,-1.2305,-1.2305,-1.2305,-1.2305,-1.2305,-1.2305,-1.2305,-1.2305,-1.2305,-1.2776,-1.3615,-1.4395,-1.5388,-1.6432,-1.7071,-1.7743,-1.869,-1.8762,-1.8831,-1.8763,-1.8461,-1.8213,-1.8169,-1.8096,-1.8027,-1.8008,-1.8008,-1.8008,-1.8008,-1.8008,-1.8008,-1.8008,-1.8008,-1.8008,-1.8008,-1.8134,-1.8371,-1.8787,-1.9365,-1.9781,-2.0139,-2.043,-2.0782,-2.1417,-2.2068,-2.1802,-0.1962,-0.2163,-0.3414,-0.3967,-0.4168,-0.5425,-0.6029,-0.6329,-0.7385,-0.7829,-0.7938,-0.7865,-0.7716,-0.7587,-0.7421,-0.7285,-0.7136,-0.7105,-0.7095,-0.7095,-0.7095,-0.7095,-0.7095,-0.7095,-0.7038,-0.6906,-0.6797,-0.6651,-0.6566,-0.6519,-0.6484,-0.6337,-0.632,-0.6317,-0.63,-0.63,-0.63,-0.6293,-0.6279,-0.6179,-0.6129,-0.68,-0.7114,-0.7099,-0.7936,-0.8651,-0.9203,-0.9271,-0.9663,-1.0429,-1.0498,-1.0555,-1.0588,-1.0626,-1.0734,-1.0949,-1.1022,-1.1156,-1.1416,-1.1703,-1.1913,-1.1986,-1.2131,-1.2271,-1.2291,-1.2305,-1.2305,-1.2305,-1.2305,-1.2305,-1.2305,-1.2305,-1.2305,-1.2305,-1.2305,-1.2305,-1.2305,-1.2305,-1.2636,-1.3484,-1.3977,-1.4582,-1.5568,-1.657,-1.7437,-1.8052,-1.8638,-1.9139,-1.9114,-1.8809,-1.8598,-1.8451,-1.8242,-1.8018,-1.8008,-1.8008,-1.8008,-1.8008,-1.8008,-1.8008,-1.8008,-1.8008,-1.8008,-1.8008,-1.8008,-1.8202,-1.8202,-1.8754,-1.8854,-1.9177,-1.9497,-1.9998,-2.0628,-2.1237,-2.1565,-0.0656,-0.0807,-0.2063,-0.2613,-0.2765,-0.4067,-0.5122,-0.5979,-0.6481,-0.7135,-0.7859,-0.7879,-0.7784,-0.7695,-0.7489,-0.7392,-0.7292,-0.7152,-0.7095,-0.7095,-0.7095,-0.7095,-0.7095,-0.7095,-0.7075,-0.7028,-0.6987,-0.6886,-0.6803,-0.678,-0.6661,-0.6494,-0.6443,-0.6392,-0.631,-0.63,-0.63,-0.63,-0.63,-0.6272,-0.6228,-0.6485,-0.652,-0.6415,-0.661,-0.7073,-0.7753,-0.8275,-0.8931,-0.9784,-0.975,-1.0059,-1.0711,-1.0894,-1.1028,-1.1263,-1.1496,-1.1651,-1.1737,-1.1984,-1.2158,-1.2178,-1.2258,-1.2298,-1.2305,-1.2305,-1.2305,-1.2305,-1.2305,-1.2305,-1.2305,-1.2305,-1.2305,-1.2305,-1.2305,-1.2305,-1.2305,-1.2305,-1.2547,-1.2941,-1.3171,-1.3846,-1.5017,-1.5968,-1.6776,-1.8103,-1.8536,-1.8732,-1.9087,-1.8812,-1.8471,-1.8217,-1.8076,-1.8018,-1.8008,-1.8008,-1.8008,-1.8008,-1.8008,-1.8008,-1.8008,-1.8008,-1.8008,-1.8008,-1.8008,-1.8008,-1.8008,-1.811,-1.8269,-1.8496,-1.8954,-1.9486,-1.9976,-2.0379,-2.073,0.0,0.0,-0.0907,-0.126,-0.1411,-0.2715,-0.3718,-0.4572,-0.5072,-0.5724,-0.6457,-0.6947,-0.7125,-0.7151,-0.7375,-0.7475,-0.7415,-0.7268,-0.7152,-0.7102,-0.7095,-0.7095,-0.7095,-0.7095,-0.7095,-0.7095,-0.7095,-0.7024,-0.6893,-0.6879,-0.6803,-0.659,-0.6502,-0.6474,-0.6378,-0.6323,-0.63,-0.63,-0.63,-0.63,-0.6296,-0.63,-0.6255,-0.6132,-0.6115,-0.6364,-0.6809,-0.721,-0.7913,-0.8869,-0.9241,-0.9896,-1.0877,-1.0995,-1.1122,-1.141,-1.1697,-1.194,-1.206,-1.2191,-1.2305,-1.2305,-1.2305,-1.2305,-1.2305,-1.2305,-1.2305,-1.2305,-1.2305,-1.2305,-1.2305,-1.2305,-1.2305,-1.2305,-1.2305,-1.2305,-1.2305,-1.2305,-1.2438,-1.2735,-1.2929,-1.354,-1.4311,-1.5327,-1.5936,-1.7453,-1.7863,-1.8154,-1.862,-1.8495,-1.824,-1.8103,-1.8115,-1.8066,-1.8018,-1.8008,-1.8008,-1.8008,-1.8008,-1.8008,-1.8008,-1.8008,-1.8008,-1.8008,-1.8008,-1.8008,-1.8008,-1.8008,-1.8134,-1.8337,-1.8529,-1.8944,-1.9399,-1.9619,-1.996,0.0,0.0,0.0,0.0,0.0,-0.141,-0.2063,-0.2314,-0.3366,-0.4066,-0.4416,-0.5411,-0.5916,-0.6133,-0.7006,-0.7401,-0.7431,-0.736,-0.7285,-0.7193,-0.7109,-0.7095,-0.7095,-0.7095,-0.7095,-0.7095,-0.7095,-0.7031,-0.6927,-0.692,-0.6822,-0.6719,-0.6576,-0.6518,-0.6434,-0.6371,-0.63,-0.63,-0.63,-0.63,-0.63,-0.63,-0.6296,-0.6282,-0.6282,-0.6311,-0.635,-0.6344,-0.6895,-0.8167,-0.8947,-0.9785,-1.0711,-1.0943,-1.1054,-1.1461,-1.1757,-1.2047,-1.2231,-1.2285,-1.2305,-1.2305,-1.2305,-1.2305,-1.2305,-1.2305,-1.2305,-1.2305,-1.2305,-1.2305,-1.2305,-1.2305,-1.2305,-1.2305,-1.2305,-1.2305,-1.2305,-1.2325,-1.2525,-1.2817,-1.3046,-1.3347,-1.3818,-1.4841,-1.5479,-1.6037,-1.6684,-1.7265,-1.7796,-1.7859,-1.7981,-1.7958,-1.785,-1.8066,-1.8008,-1.8008,-1.8008,-1.8008,-1.8008,-1.8008,-1.8008,-1.8008,-1.8008,-1.8008,-1.8008,-1.8008,-1.8008,-1.8008,-1.8008,-1.8144,-1.8337,-1.8519,-1.8713,-1.8953,-1.9141,0.0,0.0,0.0,0.0,0.0,-0.0454,-0.1109,-0.1963,-0.2313,-0.3015,-0.3867,-0.4368,-0.5007,-0.5926,-0.619,-0.6789,-0.7266,-0.7372,-0.7363,-0.7295,-0.7187,-0.7102,-0.7095,-0.7095,-0.7095,-0.7095,-0.7095,-0.7078,-0.7041,-0.7031,-0.696,-0.6825,-0.6715,-0.658,-0.6511,-0.6378,-0.6303,-0.63,-0.63,-0.63,-0.63,-0.63,-0.63,-0.63,-0.63,-0.63,-0.63,-0.6259,-0.6551,-0.7388,-0.8254,-0.9278,-1.0359,-1.0524,-1.0874,-1.1657,-1.1995,-1.2168,-1.2241,-1.2268,-1.2268,-1.2305,-1.2305,-1.2305,-1.2305,-1.2305,-1.2305,-1.2305,-1.2305,-1.2311,-1.2311,-1.2331,-1.2325,-1.2305,-1.2365,-1.2345,-1.2338,-1.2549,-1.279,-1.3053,-1.33,-1.358,-1.3951,-1.4295,-1.4901,-1.5467,-1.5761,-1.6055,-1.6641,-1.7078,-1.7132,-1.7318,-1.7382,-1.7803,-1.8008,-1.8008,-1.8008,-1.8008,-1.8008,-1.8008,-1.8008,-1.8008,-1.8008,-1.8008,-1.8008,-1.8008,-1.8008,-1.8008,-1.8008,-1.8008,-1.81,-1.8269,-1.8202,-1.8321,-1.8378,0.0,0.0,0.0,0.0,0.0,0.0,-0.0454,-0.1058,-0.1159,-0.1561,-0.2314,-0.2966,-0.3568,-0.4314,-0.4817,-0.5408,-0.6031,-0.5959,-0.6129,-0.6609,-0.6895,-0.7102,-0.7095,-0.7095,-0.7095,-0.7095,-0.7095,-0.7095,-0.7092,-0.7095,-0.7048,-0.6964,-0.6825,-0.6719,-0.6576,-0.6463,-0.6354,-0.6313,-0.63,-0.63,-0.63,-0.63,-0.63,-0.63,-0.63,-0.63,-0.63,-0.6296,-0.6619,-0.7302,-0.7816,-0.8488,-0.958,-0.9741,-1.0067,-1.0845,-1.0947,-1.1168,-1.1583,-1.1657,-1.1885,-1.2194,-1.2305,-1.2305,-1.2305,-1.2305,-1.2305,-1.2305,-1.2305,-1.2365,-1.2492,-1.2599,-1.2672,-1.2719,-1.2685,-1.2579,-1.2358,-1.2692,-1.3018,-1.3227,-1.3427,-1.3754,-1.4041,-1.4082,-1.4412,-1.4789,-1.4829,-1.5145,-1.549,-1.5912,-1.6345,-1.6555,-1.6906,-1.7285,-1.775,-1.7862,-1.7974,-1.7974,-1.8008,-1.8008,-1.8008,-1.8008,-1.8008,-1.8008,-1.8008,-1.8008,-1.8008,-1.8008,-1.8008,-1.8008,-1.8008,-1.8008,-1.8008,-1.8008,-1.8008,0.0,0.0,0.0,0.0,0.0,0.0,0.0,0.0,0.0,0.0,0.0,-0.1309,-0.2013,-0.2063,-0.3357,-0.3831,-0.3969,-0.4212,-0.4534,-0.5365,-0.6168,-0.6741,-0.6738,-0.7007,-0.7095,-0.7095,-0.7095,-0.7095,-0.7095,-0.7095,-0.7095,-0.7041,-0.694,-0.6865,-0.6719,-0.6573,-0.6467,-0.6361,-0.6347,-0.6327,-0.6306,-0.63,-0.63,-0.63,-0.63,-0.63,-0.63,-0.6338,-0.6665,-0.7587,-0.7347,-0.7755,-0.8558,-0.8731,-0.8883,-0.9112,-0.9537,-0.9933,-1.0453,-1.064,-1.0938,-1.1589,-1.1781,-1.2003,-1.1737,-1.1626,-1.1651,-1.164,-1.1968,-1.201,-1.2491,-1.287,-1.3106,-1.3113,-1.3166,-1.2966,-1.2672,-1.2906,-1.3253,-1.3273,-1.348,-1.3801,-1.3981,-1.4088,-1.4124,-1.4391,-1.4365,-1.4402,-1.4629,-1.4912,-1.5449,-1.5886,-1.6325,-1.6784,-1.7285,-1.7716,-1.7828,-1.794,-1.7974,-1.8008,-1.8008,-1.8008,-1.8008,-1.8008,-1.8008,-1.8008,-1.8008,-1.8008,-1.8008,-1.8008,-1.8008,-1.8008,-1.8008,-1.8008,-1.8008,0.0,0.0,0.0,0.0,0.0,0.0,0.0,0.0,0.0,0.0,0.0,0.0,-0.1058,-0.1962,-0.2313,-0.2957,-0.3673,-0.3663,-0.3914,-0.4096,-0.5196,-0.5716,-0.5983,-0.6602,-0.7051,-0.7095,-0.7095,-0.7095,-0.7095,-0.7095,-0.7095,-0.7075,-0.6977,-0.6869,-0.6815,-0.6722,-0.6576,-0.6494,-0.6463,-0.6399,-0.631,-0.63,-0.63,-0.63,-0.63,-0.63,-0.63,-0.63,-0.6412,-0.6556,-0.6643,-0.7057,-0.7769,-0.8001,-0.8261,-0.8792,-0.909,-0.9334,-0.9556,-0.9631,-0.9707,-1.0045,-1.0201,-0.9938,-0.9938,-1.0062,-1.0068,-1.0066,-1.0125,-1.0773,-1.1809,-1.2672,-1.3101,-1.324,-1.3387,-1.338,-1.3127,-1.3327,-1.3487,-1.3553,-1.3781,-1.4015,-1.4117,-1.4088,-1.4075,-1.4062,-1.3963,-1.3796,-1.3916,-1.4119,-1.4592,-1.5146,-1.5377,-1.5842,-1.6567,-1.7139,-1.7579,-1.7837,-1.7974,-1.8008,-1.8008,-1.8008,-1.8008,-1.8008,-1.8008,-1.8008,-1.8008,-1.8008,-1.8008,-1.8008,-1.8008,-1.8008,-1.8008,-1.8008,-1.8008,0.0,0.0,0.0,0.0,0.0,0.0,0.0,0.0,0.0,0.0,0.0,0.0,0.0,-0.1058,-0.1108,-0.1511,-0.2095,-0.2709,-0.2805,-0.3048,-0.4,-0.4865,-0.5447,-0.6024,-0.6514,-0.6962,-0.7095,-0.7095,-0.7095,-0.7095,-0.7095,-0.7095,-0.7018,-0.695,-0.6893,-0.6805,-0.6685,-0.6549,-0.6511,-0.6443,-0.6323,-0.63,-0.63,-0.63,-0.63,-0.63,-0.63,-0.63,-0.63,-0.63,-0.63,-0.6528,-0.6945,-0.7099,-0.7403,-0.7744,-0.7897,-0.8199,-0.8389,-0.8618,-0.8803,-0.9221,-0.9296,-0.9296,-0.9332,-0.9339,-0.9406,-0.9487,-0.9716,-1.0183,-1.1508,-1.2228,-1.288,-1.3559,-1.3741,-1.3774,-1.3681,-1.3754,-1.374,-1.3713,-1.3888,-1.4021,-1.4088,-1.4088,-1.4082,-1.4068,-1.4068,-1.3903,-1.3574,-1.3796,-1.3947,-1.4306,-1.4413,-1.4859,-1.5728,-1.6463,-1.7217,-1.7613,-1.8008,-1.8008,-1.8008,-1.8008,-1.8008,-1.8008,-1.8008,-1.8008,-1.8008,-1.8008,-1.8008,-1.8008,-1.8008,-1.8008,-1.8008,-1.8008,-1.8008,0.0,0.0,0.0,0.0,0.0,0.0,0.0,0.0,0.0,0.0,0.0,0.0,0.0,0.0,0.0,0.0,0.0,-0.0976,-0.1513,-0.1703,-0.2765,-0.3681,-0.4429,-0.4954,-0.5667,-0.6738,-0.7051,-0.7095,-0.7095,-0.7095,-0.7095,-0.7095,-0.7095,-0.7031,-0.694,-0.691,-0.6844,-0.6627,-0.659,-0.6497,-0.6361,-0.6323,-0.63,-0.63,-0.63,-0.63,-0.63,-0.63,-0.63,-0.63,-0.63,-0.63,-0.63,-0.63,-0.6296,-0.6374,-0.6528,-0.6911,-0.7442,-0.7633,-0.7936,-0.8803,-0.8765,-0.8765,-0.8722,-0.87,-0.8746,-0.9,-0.9256,-1.0027,-1.1494,-1.2134,-1.2916,-1.374,-1.4068,-1.4088,-1.4088,-1.4088,-1.3948,-1.38,-1.3935,-1.4062,-1.4088,-1.4088,-1.4088,-1.4082,-1.4075,-1.3981,-1.3646,-1.342,-1.3599,-1.3514,-1.3542,-1.3912,-1.4736,-1.5649,-1.6402,-1.6897,-1.7476,-1.7681,-1.775,-1.794,-1.794,-1.8008,-1.8008,-1.8008,-1.8008,-1.8008,-1.8008,-1.8008,-1.8008,-1.8008,-1.8008,-1.8008,-1.8008,0.0,0.0,0.0,0.0,0.0,0.0,0.0,0.0,0.0,0.0,0.0,0.0,0.0,0.0,0.0,0.0,0.0,0.0,0.0,0.0,-0.1561,-0.2366,-0.2831,-0.3619,-0.4552,-0.5669,-0.6381,-0.6827,-0.7095,-0.7095,-0.7095,-0.7095,-0.7095,-0.7065,-0.7058,-0.7051,-0.696,-0.6807,-0.6709,-0.659,-0.6474,-0.6358,-0.63,-0.63,-0.63,-0.63,-0.63,-0.63,-0.63,-0.63,-0.63,-0.63,-0.63,-0.63,-0.63,-0.63,-0.63,-0.6451,-0.6679,-0.6641,-0.6641,-0.6756,-0.6999,-0.6953,-0.6983,-0.7064,-0.7459,-0.7679,-0.843,-0.9518,-1.0716,-1.1616,-1.2802,-1.3688,-1.4088,-1.4088,-1.4088,-1.4082,-1.4068,-1.3975,-1.4041,-1.4048,-1.4008,-1.4008,-1.4028,-1.4015,-1.4008,-1.3908,-1.3646,-1.3333,-1.3209,-1.2995,-1.2672,-1.3169,-1.3774,-1.47,-1.5517,-1.5869,-1.6402,-1.6888,-1.7104,-1.7647,-1.7862,-1.794,-1.8008,-1.8008,-1.8008,-1.8008,-1.8008,-1.8008,-1.8008,-1.8008,-1.8008,-1.8008,-1.8008,0.0,0.0,0.0,0.0,0.0,0.0,0.0,0.0,0.0,0.0,0.0,0.0,0.0,0.0,0.0,0.0,0.0,0.0,0.0,0.0,-0.0607,-0.1288,-0.1679,-0.2428,-0.3352,-0.4285,-0.5085,-0.6065,-0.7003,-0.7095,-0.7095,-0.7095,-0.7095,-0.7095,-0.7095,-0.7088,-0.7018,-0.6896,-0.6805,-0.6702,-0.6525,-0.6378,-0.6313,-0.6303,-0.6306,-0.63,-0.63,-0.63,-0.63,-0.63,-0.63,-0.63,-0.63,-0.63,-0.63,-0.63,-0.63,-0.63,-0.63,-0.63,-0.6335,-0.6345,-0.6358,-0.6364,-0.6381,-0.6537,-0.6651,-0.6947,-0.7321,-0.8707,-1.0428,-1.1128,-1.2254,-1.3646,-1.4088,-1.4088,-1.4088,-1.4088,-1.4075,-1.4048,-1.3928,-1.3854,-1.3828,-1.3854,-1.3935,-1.3955,-1.3935,-1.3766,-1.3606,-1.334,-1.3013,-1.277,-1.254,-1.2802,-1.3273,-1.3882,-1.4557,-1.4906,-1.534,-1.586,-1.6393,-1.6897,-1.7501,-1.793,-1.7964,-1.7828,-1.8008,-1.8008,-1.8008,-1.8008,-1.8008,-1.8008,-1.8008,-1.8008,-1.8008,0.0,0.0,0.0,0.0,0.0,0.0,0.0,0.0,0.0,0.0,0.0,0.0,0.0,0.0,0.0,0.0,0.0,0.0,0.0,0.0,0.0,-0.0608,-0.115,-0.1592,-0.2068,-0.3081,-0.3349,-0.4461,-0.6248,-0.6605,-0.683,-0.7051,-0.7095,-0.7095,-0.7095,-0.7095,-0.7011,-0.696,-0.6883,-0.6776,-0.6593,-0.6453,-0.6388,-0.6388,-0.6388,-0.6363,-0.6383,-0.6426,-0.6395,-0.6371,-0.6351,-0.6334,-0.6306,-0.63,-0.63,-0.63,-0.63,-0.63,-0.63,-0.63,-0.6317,-0.6361,-0.645,-0.6446,-0.6497,-0.661,-0.6807,-0.691,-0.7149,-0.8185,-1.013,-1.0611,-1.1826,-1.3434,-1.4088,-1.4088,-1.4088,-1.4068,-1.4015,-1.3928,-1.3713,-1.3666,-1.3673,-1.3854,-1.3968,-1.3901,-1.3881,-1.3714,-1.3534,-1.3253,-1.2946,-1.2672,-1.257,-1.2677,-1.2952,-1.3098,-1.3593,-1.3875,-1.4414,-1.495,-1.5473,-1.6035,-1.668,-1.732,-1.7501,-1.7423,-1.7716,-1.8008,-1.8008,-1.8008,-1.8008,-1.8008,-1.8008,-1.8008,-1.8008,0.0,0.0,0.0,0.0,0.0,0.0,0.0,0.0,0.0,0.0,0.0,0.0,0.0,0.0,0.0,0.0,0.0,0.0,0.0,0.0,0.0,0.0,0.0,-0.0185,-0.1001,-0.1844,-0.2015,-0.3395,-0.4956,-0.5445,-0.616,-0.6738,-0.6918,-0.7095,-0.7095,-0.7095,-0.7088,-0.7048,-0.6947,-0.6848,-0.6698,-0.6641,-0.6624,-0.662,-0.6617,-0.661,-0.6593,-0.6586,-0.6559,-0.6497,-0.6487,-0.6426,-0.6327,-0.63,-0.63,-0.63,-0.63,-0.63,-0.63,-0.63,-0.6358,-0.6433,-0.6471,-0.6536,-0.6634,-0.6759,-0.6889,-0.7055,-0.7092,-0.8053,-0.9831,-1.0438,-1.1826,-1.2912,-1.3737,-1.387,-1.3955,-1.4082,-1.4028,-1.3935,-1.3766,-1.3673,-1.3633,-1.3848,-1.3988,-1.3901,-1.3801,-1.3634,-1.3414,-1.3133,-1.2832,-1.2552,-1.2432,-1.2553,-1.2629,-1.2776,-1.2915,-1.3091,-1.3491,-1.4027,-1.4593,-1.519,-1.5825,-1.6324,-1.6602,-1.707,-1.7467,-1.775,-1.7896,-1.8008,-1.8008,-1.8008,-1.8008,-1.8008,-1.8008,0.0,0.0,0.0,0.0,0.0,0.0,0.0,0.0,0.0,0.0,0.0,0.0,0.0,0.0,0.0,0.0,0.0,0.0,0.0,0.0,0.0,0.0,0.0,0.0,-0.0459,0.0,0.0,-0.1567,-0.3083,-0.4196,-0.4996,-0.598,-0.6204,-0.6514,-0.6871,-0.7095,-0.7095,-0.7055,-0.6964,-0.6859,-0.6782,-0.6753,-0.6705,-0.6705,-0.6709,-0.6712,-0.6715,-0.6698,-0.6678,-0.6603,-0.6603,-0.658,-0.6542,-0.6487,-0.6446,-0.6538,-0.6381,-0.631,-0.63,-0.6303,-0.6392,-0.6508,-0.6559,-0.6671,-0.6761,-0.6846,-0.6906,-0.6964,-0.7051,-0.7962,-0.9231,-0.9579,-1.0572,-1.1655,-1.282,-1.3118,-1.3385,-1.3955,-1.4048,-1.3955,-1.3868,-1.376,-1.3693,-1.3753,-1.3881,-1.376,-1.368,-1.3573,-1.334,-1.3058,-1.2705,-1.2392,-1.2338,-1.2348,-1.2378,-1.2452,-1.2526,-1.2666,-1.2629,-1.3208,-1.3745,-1.435,-1.4871,-1.5367,-1.5693,-1.6298,-1.7044,-1.7569,-1.7828,-1.793,-1.8008,-1.8008,-1.8008,-1.8008,-1.8008,0.0,0.0,0.0,0.0,0.0,0.0,0.0,0.0,0.0,0.0,0.0,0.0,0.0,0.0,0.0,0.0,0.0,0.0,0.0,0.0,0.0,0.0,0.0,0.0,0.0,0.0,0.0,0.0,-0.1389,-0.2281,-0.335,-0.4865,-0.4954,-0.5578,-0.6337,-0.6605,-0.665,-0.7085,-0.7004,-0.695,-0.692,-0.6878,-0.6841,-0.682,-0.681,-0.681,-0.681,-0.6824,-0.6824,-0.6759,-0.6759,-0.6732,-0.6661,-0.6586,-0.6569,-0.661,-0.6532,-0.6457,-0.6433,-0.6426,-0.642,-0.6566,-0.6715,-0.6875,-0.691,-0.694,-0.694,-0.697,-0.7034,-0.7742,-0.8584,-0.8978,-0.9753,-1.0654,-1.1472,-1.1858,-1.2328,-1.3033,-1.3779,-1.4035,-1.3975,-1.3948,-1.3874,-1.3766,-1.372,-1.3646,-1.358,-1.3533,-1.3313,-1.3038,-1.2757,-1.2445,-1.2345,-1.2331,-1.2318,-1.2318,-1.2311,-1.2305,-1.2305,-1.2452,-1.3062,-1.3426,-1.3774,-1.4271,-1.4772,-1.5376,-1.6053,-1.6897,-1.7716,-1.7896,-1.8008,-1.8008,-1.8008,-1.794,-1.7974,0.0,0.0,0.0,0.0,0.0,0.0,0.0,0.0,0.0,0.0,0.0,0.0,0.0,0.0,0.0,0.0,0.0,0.0,0.0,0.0,0.0,0.0,0.0,0.0,0.0,0.0,0.0,0.0,0.0,0.0,0.0,-0.3393,-0.3616,-0.4419,-0.522,-0.5714,-0.6204,-0.6738,-0.697,-0.7058,-0.7058,-0.7034,-0.7028,-0.7034,-0.7048,-0.7065,-0.7061,-0.7028,-0.6974,-0.6876,-0.6869,-0.6871,-0.679,-0.6719,-0.6719,-0.6732,-0.6664,-0.662,-0.6637,-0.66,-0.6624,-0.6831,-0.695,-0.7014,-0.7038,-0.7068,-0.7075,-0.7058,-0.7082,-0.757,-0.8364,-0.8978,-0.9144,-0.9662,-1.0265,-1.0869,-1.1466,-1.2285,-1.3027,-1.3822,-1.4062,-1.4021,-1.4008,-1.3941,-1.3733,-1.3653,-1.3686,-1.3646,-1.3367,-1.3106,-1.2839,-1.2599,-1.2438,-1.2371,-1.2338,-1.2351,-1.2398,-1.2345,-1.2305,-1.2305,-1.2489,-1.2739,-1.3062,-1.3346,-1.3882,-1.445,-1.5021,-1.5728,-1.6541,-1.7545,-1.7862,-1.7364,-1.726,-1.7226,-1.7476,0.0,0.0,0.0,0.0,0.0,0.0,0.0,0.0,0.0,0.0,0.0,0.0,0.0,0.0,0.0,0.0,0.0,0.0,0.0,0.0,0.0,0.0,0.0,0.0,0.0,0.0,0.0,0.0,0.0,0.0,0.0,-0.1344,-0.2191,-0.317,-0.4018,-0.491,-0.5625,-0.6071,-0.6694,-0.7095,-0.7095,-0.7095,-0.7095,-0.7095,-0.7095,-0.7095,-0.7088,-0.7092,-0.7061,-0.7028,-0.7011,-0.7004,-0.6943,-0.6881,-0.6881,-0.6905,-0.6817,-0.681,-0.6842,-0.6766,-0.6725,-0.6842,-0.7004,-0.7095,-0.7095,-0.7095,-0.7095,-0.7092,-0.7095,-0.7489,-0.7621,-0.7797,-0.7969,-0.8488,-0.9096,-0.9749,-1.0481,-1.1295,-1.2072,-1.2778,-1.3603,-1.4068,-1.4068,-1.4068,-1.3874,-1.3673,-1.3726,-1.3761,-1.348,-1.3227,-1.3026,-1.2866,-1.2719,-1.2596,-1.2525,-1.2549,-1.2543,-1.2398,-1.2305,-1.2305,-1.2305,-1.2342,-1.2629,-1.2813,-1.2989,-1.352,-1.4019,-1.4486,-1.5305,-1.6332,-1.6507,-1.6158,-1.6193,-1.6446,-1.6724,0.0,0.0,0.0,0.0,0.0,0.0,0.0,0.0,0.0,0.0,0.0,0.0,0.0,0.0,0.0,0.0,0.0,0.0,0.0,0.0,0.0,0.0,0.0,0.0,0.0,0.0,0.0,0.0,0.0,0.0,0.0,0.0,-0.0852,-0.1879,-0.3038,-0.4194,-0.4865,-0.5132,-0.5935,-0.6561,-0.6561,-0.6962,-0.7095,-0.7095,-0.7095,-0.7095,-0.7095,-0.7095,-0.7095,-0.7085,-0.7085,-0.7088,-0.7055,-0.7028,-0.7014,-0.6984,-0.6993,-0.6903,-0.6967,-0.6953,-0.6839,-0.6967,-0.7028,-0.7088,-0.7095,-0.7095,-0.7095,-0.7095,-0.7095,-0.7095,-0.7095,-0.7272,-0.7316,-0.7837,-0.8013,-0.858,-0.9405,-1.0178,-1.0956,-1.1735,-1.2559,-1.3428,-1.3646,-1.3646,-1.3924,-1.3732,-1.3693,-1.3794,-1.3788,-1.3527,-1.3267,-1.3146,-1.306,-1.2938,-1.279,-1.2744,-1.2656,-1.2378,-1.2305,-1.2305,-1.2305,-1.2311,-1.2311,-1.2489,-1.2629,-1.2732,-1.3018,-1.3448,-1.4235,-1.5128,-1.5234,-1.534,-1.5552,-1.5807,-1.5834,0.0,0.0,0.0,0.0,0.0,0.0,0.0,0.0,0.0,0.0,0.0,0.0,0.0,0.0,0.0,0.0,0.0,0.0,0.0,0.0,0.0,0.0,0.0,0.0,0.0,0.0,0.0,0.0,0.0,0.0,0.0,0.0,0.0,-0.0763,-0.1879,-0.3037,-0.3614,-0.3794,-0.4823,-0.5312,-0.5622,-0.6337,-0.6738,-0.683,-0.7051,-0.7095,-0.7095,-0.7095,-0.7095,-0.7095,-0.7095,-0.7095,-0.7085,-0.7082,-0.7075,-0.7071,-0.7075,-0.7071,-0.7088,-0.7075,-0.7061,-0.7055,-0.7085,-0.7092,-0.7095,-0.7095,-0.7095,-0.7095,-0.7095,-0.7095,-0.7095,-0.7095,-0.7095,-0.7183,-0.7404,-0.7665,-0.8492,-0.9279,-1.0096,-1.0697,-1.1558,-1.2376,-1.2772,-1.3118,-1.3688,-1.3787,-1.3698,-1.3733,-1.3888,-1.3741,-1.346,-1.346,-1.3394,-1.3213,-1.3085,-1.2924,-1.277,-1.2465,-1.2351,-1.2405,-1.2371,-1.2338,-1.2331,-1.2311,-1.2378,-1.2519,-1.2452,-1.2415,-1.3273,-1.4127,-1.4593,-1.4807,-1.5021,-1.4985,-1.4871,0.0,0.0,0.0,0.0,0.0,0.0,0.0,0.0,0.0,0.0,0.0,0.0,0.0,0.0,0.0,0.0,0.0,0.0,0.0,0.0,0.0,0.0,0.0,0.0,0.0,0.0,0.0,0.0,0.0,0.0,0.0,0.0,0.0,0.0,-0.0807,-0.17,-0.2415,-0.2592,-0.3482,-0.4239,-0.4372,-0.5309,-0.5983,-0.5983,-0.6561,-0.6915,-0.6962,-0.6962,-0.7007,-0.7095,-0.7095,-0.7095,-0.7095,-0.7095,-0.7095,-0.7095,-0.7095,-0.7095,-0.7095,-0.7088,-0.7092,-0.7095,-0.7095,-0.7095,-0.7095,-0.7095,-0.7095,-0.7095,-0.7095,-0.7095,-0.7095,-0.7095,-0.7095,-0.7095,-0.7228,-0.7272,-0.7797,-0.8627,-0.9366,-0.971,-1.0394,-1.1042,-1.1558,-1.2206,-1.282,-1.3385,-1.3316,-1.3741,-1.3959,-1.38,-1.358,-1.3693,-1.3714,-1.3534,-1.336,-1.3206,-1.3092,-1.2852,-1.2692,-1.267,-1.2596,-1.2438,-1.2345,-1.2318,-1.2311,-1.2305,-1.2305,-1.2342,-1.2519,-1.3055,-1.3557,-1.3738,-1.3629,-1.3593,-1.3484,0.0,0.0,0.0,0.0,0.0,0.0,0.0,0.0,0.0,0.0,0.0,0.0,0.0,0.0,0.0,0.0,0.0,0.0,0.0,0.0,0.0,0.0,0.0,0.0,0.0,0.0,0.0,0.0,0.0,0.0,0.0,0.0,0.0,0.0,0.0,-0.0852,-0.1165,-0.1478,-0.2236,-0.2994,-0.3349,-0.3972,-0.4776,-0.4954,-0.5398,-0.598,-0.6337,-0.6558,-0.6691,-0.6871,-0.7051,-0.7051,-0.7095,-0.7095,-0.7095,-0.7095,-0.7095,-0.7095,-0.7095,-0.7095,-0.7095,-0.7095,-0.7095,-0.7095,-0.7095,-0.7095,-0.7095,-0.7095,-0.7095,-0.7095,-0.7095,-0.7095,-0.7095,-0.7095,-0.7139,-0.7143,-0.7316,-0.8105,-0.8321,-0.8711,-0.9231,-0.9836,-1.0438,-1.1171,-1.1858,-1.2425,-1.293,-1.3421,-1.3906,-1.3886,-1.376,-1.3888,-1.3928,-1.3754,-1.358,-1.35,-1.3387,-1.3187,-1.3073,-1.2951,-1.275,-1.2623,-1.2452,-1.2325,-1.2318,-1.2305,-1.2305,-1.2378,-1.2482,-1.2482,-1.2592,-1.2592,-1.2305,-1.2452,-1.2629,0.0,0.0,0.0,0.0,0.0,0.0,0.0,0.0,0.0,0.0,0.0,0.0,0.0,0.0,0.0,0.0,0.0,0.0,0.0,0.0,0.0,0.0,0.0,0.0,0.0,0.0,0.0,0.0,0.0,0.0,0.0,0.0,0.0,0.0,0.0,0.0,0.0,0.0,-0.1165,-0.1701,-0.2013,-0.2903,-0.3438,-0.3705,-0.4016,-0.4641,-0.5043,-0.5354,-0.5844,-0.6337,-0.6827,-0.6918,-0.7007,-0.7095,-0.7095,-0.7095,-0.7095,-0.7095,-0.7095,-0.7095,-0.7095,-0.7095,-0.7095,-0.7095,-0.7095,-0.7095,-0.7095,-0.7095,-0.7095,-0.7095,-0.7095,-0.7095,-0.7095,-0.7095,-0.7095,-0.7139,-0.7139,-0.7316,-0.7316,-0.7709,-0.8321,-0.8925,-0.9614,-1.0303,-1.0735,-1.1214,-1.1778,-1.2382,-1.2991,-1.399,-1.3898,-1.3995,-1.4001,-1.3935,-1.3841,-1.3733,-1.3707,-1.3547,-1.3307,-1.3173,-1.2959,-1.279,-1.2636,-1.2472,-1.2351,-1.2305,-1.2305,-1.2305,-1.2305,-1.2305,-1.2305,-1.2305,-1.2305,-1.2305,-1.2415,0.0,0.0,0.0,0.0,0.0,0.0,0.0,0.0,0.0,0.0,0.0,0.0,0.0,0.0,0.0,0.0,0.0,0.0,0.0,0.0,0.0,0.0,0.0,0.0,0.0,0.0,0.0,0.0,0.0,0.0,0.0,0.0,0.0,0.0,0.0,0.0,0.0,0.0,0.0,0.0,0.0,-0.1745,-0.2147,-0.2415,-0.2992,-0.3573,-0.3972,-0.4105,-0.4505,-0.4683,-0.5534,-0.5849,-0.5891,-0.6605,-0.7095,-0.7095,-0.7095,-0.7095,-0.7095,-0.7095,-0.7095,-0.7095,-0.7095,-0.7095,-0.7095,-0.7095,-0.7095,-0.7095,-0.7095,-0.7095,-0.7095,-0.7095,-0.7095,-0.7095,-0.7095,-0.7095,-0.7095,-0.7095,-0.7095,-0.7228,-0.7841,-0.7969,-0.8663,-0.9139,-0.9575,-1.0009,-1.0529,-1.1219,-1.1955,-1.2948,-1.3646,-1.373,-1.3808,-1.3652,-1.3924,-1.3968,-1.3935,-1.3861,-1.3654,-1.3427,-1.3307,-1.3086,-1.2851,-1.2616,-1.2398,-1.2325,-1.2305,-1.2305,-1.2305,-1.2305,-1.2305,-1.2305,-1.2305,-1.2305,-1.2305,0.1108,0.1511,0.1008,0.0504,0.0,0.0,0.0,0.0,0.0,0.0,0.0,0.0,0.0,0.0,0.0,0.0,0.0,0.0,0.0,0.0,0.0,0.0,0.0,0.0,0.0,0.0,0.0,0.0,0.0,0.0,0.0,0.0,0.0,0.0,0.0,0.0,0.0,0.0,0.0,0.0,0.0,0.0,0.0,0.0,0.0,-0.2369,-0.2858,-0.2858,-0.3081,-0.3481,-0.4508,-0.4643,-0.473,-0.5354,-0.6113,-0.6113,-0.6337,-0.665,-0.6962,-0.7095,-0.7095,-0.7095,-0.7095,-0.7095,-0.7095,-0.7095,-0.7095,-0.7095,-0.7095,-0.7095,-0.7095,-0.7095,-0.7095,-0.7095,-0.7095,-0.7095,-0.7095,-0.7095,-0.7095,-0.7095,-0.7183,-0.7183,-0.7533,-0.7973,-0.8496,-0.9144,-0.9705,-1.0226,-1.0875,-1.1649,-1.251,-1.2942,-1.3209,-1.3324,-1.3646,-1.3955,-1.3999,-1.3953,-1.3935,-1.3761,-1.3627,-1.3307,-1.2926,-1.2639,-1.2398,-1.2351,-1.2305,-1.2305,-1.2305,-1.2305,-1.2305,-1.2305,-1.2305,-1.2305,-1.2305,0.2865,0.3817,0.2663,0.1511,0.0454,0.0,0.0,0.0303,0.0,0.0,0.0,0.0,0.0,0.0,0.0,0.0,0.0,0.0,0.0,0.0,0.0,0.0,0.0,0.0,0.0,0.0,0.0,0.0,0.0,0.0,0.0,0.0,0.0,0.0,0.0,0.0,0.0,0.0,0.0,0.0,0.0,0.0,0.0,0.0,0.0,-0.0628,-0.1388,-0.1835,-0.2147,-0.2903,-0.3393,-0.3438,-0.3792,-0.3881,-0.4508,-0.4865,-0.5223,-0.5578,-0.6157,-0.647,-0.6738,-0.6827,-0.7051,-0.7095,-0.7095,-0.7095,-0.7095,-0.7095,-0.7095,-0.7095,-0.7095,-0.7095,-0.7095,-0.7095,-0.7095,-0.7095,-0.7095,-0.7095,-0.7095,-0.7095,-0.7095,-0.7095,-0.7139,-0.7665,-0.7797,-0.8408,-0.8755,-0.9187,-0.9575,-1.0221,-1.108,-1.1901,-1.2163,-1.2516,-1.3252,-1.3555,-1.387,-1.3935,-1.3957,-1.3988,-1.3808,-1.3434,-1.2993,-1.2665,-1.2351,-1.2331,-1.2305,-1.2305,-1.2305,-1.2305,-1.2305,-1.2305,-1.2305,-1.2305,-1.2305,0.3715,0.3966,0.3665,0.3316,0.3064,0.3065,0.3015,0.3065,0.3015,0.1862,0.0,0.0,0.0,0.0,0.0,0.0,0.0,0.0,0.0,0.0,0.0,0.0,0.0,0.0,0.0,0.0,0.0,0.0,0.0,0.0,0.0,0.0,0.0,0.0,0.0,0.0,0.0,0.0,0.0,0.0,0.0,0.0,0.0,0.0,0.0,0.0,0.0,0.0,0.0,-0.0897,-0.1835,-0.2592,-0.3525,-0.3525,-0.3703,-0.397,-0.4063,-0.433,-0.4863,-0.5531,-0.5983,-0.6248,-0.6517,-0.6918,-0.7095,-0.7095,-0.7095,-0.7095,-0.7095,-0.7095,-0.7095,-0.7095,-0.7095,-0.7095,-0.7095,-0.7095,-0.7095,-0.7095,-0.7095,-0.7095,-0.7095,-0.7095,-0.7095,-0.7139,-0.7272,-0.736,-0.7448,-0.7665,-0.7837,-0.8356,-0.944,-1.026,-1.0869,-1.1386,-1.2291,-1.2814,-1.2905,-1.3476,-1.3633,-1.3762,-1.3913,-1.3567,-1.3126,-1.2632,-1.2311,-1.2331,-1.2338,-1.2305,-1.2305,-1.2305,-1.2305,-1.2305,-1.2305,-1.2305,-1.2305,0.522,0.5672,0.512,0.4518,0.4066,0.4016,0.4016,0.4016,0.4016,0.3215,0.1913,0.1762,0.146,0.1008,0.0908,0.0404,0.0,0.0,0.0,0.0,0.0,0.0,0.0,0.0,0.0,0.0,0.0,0.0,0.0,0.0,0.0,0.0,0.0,0.0,0.0,0.0,0.0,0.0,0.0,0.0,0.0,0.0,0.0,0.0,0.0,0.0,0.0,0.0,0.0,0.0,-0.0762,-0.1075,-0.17,-0.1791,-0.2191,-0.2592,-0.286,-0.3037,-0.366,-0.4419,-0.5181,-0.5625,-0.6384,-0.7007,-0.7095,-0.7095,-0.7095,-0.7095,-0.7095,-0.7095,-0.7095,-0.7095,-0.7095,-0.7095,-0.7095,-0.7095,-0.7095,-0.7095,-0.7095,-0.7095,-0.7095,-0.7095,-0.7095,-0.7095,-0.7183,-0.7183,-0.7139,-0.7139,-0.7095,-0.7095,-0.8053,-0.8746,-0.9444,-1.0308,-1.1257,-1.1601,-1.1692,-1.2345,-1.3124,-1.3439,-1.3531,-1.3472,-1.326,-1.2792,-1.2478,-1.2418,-1.2412,-1.2351,-1.2311,-1.2305,-1.2305,-1.2305,-1.2305,-1.2305,-1.2305,0.6883,0.7736,0.6731,0.5625,0.4618,0.4568,0.4616,0.4618,0.4568,0.4616,0.4518,0.4518,0.3616,0.2614,0.2164,0.126,0.0,0.0,0.0,0.0,0.0,0.0,0.0,0.0,0.0,0.0,0.0,0.0,0.0,0.0,0.0,0.0,0.0,0.0,0.0,0.0,0.0,0.0,0.0,0.0,0.0,0.0,0.0,0.0,0.0,0.0,0.0,0.0,0.0,0.0,0.0,0.0,0.0,0.0,-0.0897,-0.1344,-0.1568,-0.2013,-0.2771,-0.3751,-0.451,-0.5267,-0.6293,-0.683,-0.6871,-0.7007,-0.7007,-0.7051,-0.7051,-0.7095,-0.7095,-0.7095,-0.7095,-0.7095,-0.7095,-0.7095,-0.7095,-0.7095,-0.7095,-0.7095,-0.7095,-0.7095,-0.7095,-0.7095,-0.7095,-0.7095,-0.7095,-0.7095,-0.7095,-0.7095,-0.7533,-0.7925,-0.8317,-0.9226,-1.0178,-1.0438,-1.0481,-1.1429,-1.2237,-1.2769,-1.3178,-1.2996,-1.2986,-1.2999,-1.2746,-1.265,-1.2465,-1.2378,-1.2345,-1.2311,-1.2305,-1.2305,-1.2305,-1.2305,-1.2305,0.7739,0.7988,0.7686,0.7434,0.7179,0.7182,0.7229,0.7232,0.7132,0.7232,0.703,0.698,0.6024,0.3615,0.3615,0.2916,0.1813,0.1611,0.0807,0.0,0.0,0.0,0.0,0.0,0.0,0.0,0.0,0.0,0.0,0.0,0.0,0.0,0.0,0.0,0.0,0.0,0.0,0.0,0.0,0.0,0.0,0.0,0.0,0.0,0.0,0.0,0.0,0.0,0.0,0.0,0.0,0.0,0.0,0.0,0.0,0.0,0.0,0.0,0.0,0.0,-0.3172,-0.4018,-0.4996,-0.6024,-0.6245,-0.6647,-0.6694,-0.6871,-0.6915,-0.7007,-0.7007,-0.7095,-0.7095,-0.7095,-0.7095,-0.7095,-0.7095,-0.7095,-0.7095,-0.7095,-0.7095,-0.7095,-0.7095,-0.7095,-0.7095,-0.7095,-0.7095,-0.7095,-0.7095,-0.7095,-0.7095,-0.7272,-0.7492,-0.8061,-0.9017,-0.9187,-0.9449,-1.0438,-1.1413,-1.2216,-1.2612,-1.2442,-1.2466,-1.2969,-1.2946,-1.2811,-1.2663,-1.2465,-1.2358,-1.2325,-1.2311,-1.2305,-1.2305,-1.2305,-1.2305]}]]